<?xml version="1.0" encoding="UTF-8" standalone="no" ?>
<gpx xmlns="http://www.topografix.com/GPX/1/1" xmlns:xsi="http://www.w3.org/2001/XMLSchema-instance" xsi:schemaLocation="http://www.topografix.com/GPX/1/1 http://www.topografix.com/GPX/1/1/gpx.xsd" version="1.1" creator="VisuGPX - https://www.visugpx.com">
  <metadata>
    <name>Tourelloise</name>
    <desc><![CDATA[Tourelloise 2017 Super sortie]]></desc>
  </metadata>
  <trk>
    <name><![CDATA[Tourelloise-2017]]></name>
    <cmt><![CDATA[callardin.free.fr]]></cmt>
    <trkseg>
      <trkpt lat="45.8055" lon="4.72126">
        <ele>305.62091064453</ele>
        <time>2017-09-01T18:02:30Z</time>
      </trkpt>
      <trkpt lat="45.80546" lon="4.72128">
        <ele>305.59259033203</ele>
        <time>2017-09-01T18:02:30Z</time>
      </trkpt>
      <trkpt lat="45.80538" lon="4.72088">
        <ele>304.97863769531</ele>
        <time>2017-09-01T18:02:31Z</time>
      </trkpt>
      <trkpt lat="45.80539" lon="4.7206">
        <ele>304.35797119141</ele>
        <time>2017-09-01T18:02:39Z</time>
      </trkpt>
      <trkpt lat="45.80552" lon="4.72013">
        <ele>307.25561523438</ele>
        <time>2017-09-01T18:02:44Z</time>
      </trkpt>
      <trkpt lat="45.80557" lon="4.72005">
        <ele>307.2106628418</ele>
        <time>2017-09-01T18:02:53Z</time>
      </trkpt>
      <trkpt lat="45.80566" lon="4.72001">
        <ele>307.14862060547</ele>
        <time>2017-09-01T18:02:55Z</time>
      </trkpt>
      <trkpt lat="45.80566" lon="4.71994">
        <ele>307.17224121094</ele>
        <time>2017-09-01T18:02:58Z</time>
      </trkpt>
      <trkpt lat="45.80559" lon="4.71994">
        <ele>307.20919799805</ele>
        <time>2017-09-01T18:02:59Z</time>
      </trkpt>
      <trkpt lat="45.80559" lon="4.71994">
        <ele>307.20919799805</ele>
        <time>2017-09-01T18:03:01Z</time>
      </trkpt>
      <trkpt lat="45.80532" lon="4.71985">
        <ele>307.06909179688</ele>
        <time>2017-09-01T18:03:01Z</time>
      </trkpt>
      <trkpt lat="45.80435" lon="4.7195">
        <ele>307.72409057617</ele>
        <time>2017-09-01T18:03:08Z</time>
      </trkpt>
      <trkpt lat="45.80423" lon="4.71947">
        <ele>307.5026550293</ele>
        <time>2017-09-01T18:03:35Z</time>
      </trkpt>
      <trkpt lat="45.80388" lon="4.71946">
        <ele>308.18823242188</ele>
        <time>2017-09-01T18:03:38Z</time>
      </trkpt>
      <trkpt lat="45.80365" lon="4.71951">
        <ele>306.36154174805</ele>
        <time>2017-09-01T18:03:47Z</time>
      </trkpt>
      <trkpt lat="45.80365" lon="4.71951">
        <ele>306.36154174805</ele>
        <time>2017-09-01T18:03:53Z</time>
      </trkpt>
      <trkpt lat="45.80341" lon="4.71963">
        <ele>306.0173034668</ele>
        <time>2017-09-01T18:03:53Z</time>
      </trkpt>
      <trkpt lat="45.80318" lon="4.71985">
        <ele>305.02429199219</ele>
        <time>2017-09-01T18:04:00Z</time>
      </trkpt>
      <trkpt lat="45.80311" lon="4.7199">
        <ele>304.87979125977</ele>
        <time>2017-09-01T18:04:07Z</time>
      </trkpt>
      <trkpt lat="45.80297" lon="4.72005">
        <ele>305.1731262207</ele>
        <time>2017-09-01T18:04:09Z</time>
      </trkpt>
      <trkpt lat="45.80278" lon="4.72025">
        <ele>304.62631225586</ele>
        <time>2017-09-01T18:04:14Z</time>
      </trkpt>
      <trkpt lat="45.80266" lon="4.72042">
        <ele>302.73648071289</ele>
        <time>2017-09-01T18:04:20Z</time>
      </trkpt>
      <trkpt lat="45.80225" lon="4.72087">
        <ele>301.77709960938</ele>
        <time>2017-09-01T18:04:25Z</time>
      </trkpt>
      <trkpt lat="45.80188" lon="4.72127">
        <ele>299.62759399414</ele>
        <time>2017-09-01T18:04:39Z</time>
      </trkpt>
      <trkpt lat="45.80183" lon="4.72136">
        <ele>299.49423217773</ele>
        <time>2017-09-01T18:04:51Z</time>
      </trkpt>
      <trkpt lat="45.80168" lon="4.72156">
        <ele>298.92532348633</ele>
        <time>2017-09-01T18:04:53Z</time>
      </trkpt>
      <trkpt lat="45.80155" lon="4.72174">
        <ele>298.39059448242</ele>
        <time>2017-09-01T18:04:58Z</time>
      </trkpt>
      <trkpt lat="45.80154" lon="4.7218">
        <ele>298.39196777344</ele>
        <time>2017-09-01T18:05:03Z</time>
      </trkpt>
      <trkpt lat="45.80154" lon="4.72181">
        <ele>298.39129638672</ele>
        <time>2017-09-01T18:05:04Z</time>
      </trkpt>
      <trkpt lat="45.80154" lon="4.72181">
        <ele>298.39129638672</ele>
        <time>2017-09-01T18:05:04Z</time>
      </trkpt>
      <trkpt lat="45.80155" lon="4.72171">
        <ele>298.37121582031</ele>
        <time>2017-09-01T18:05:04Z</time>
      </trkpt>
      <trkpt lat="45.80149" lon="4.72159">
        <ele>298.21884155273</ele>
        <time>2017-09-01T18:05:06Z</time>
      </trkpt>
      <trkpt lat="45.80141" lon="4.72156">
        <ele>298.15463256836</ele>
        <time>2017-09-01T18:05:09Z</time>
      </trkpt>
      <trkpt lat="45.80135" lon="4.72155">
        <ele>298.09381103516</ele>
        <time>2017-09-01T18:05:11Z</time>
      </trkpt>
      <trkpt lat="45.8013" lon="4.72151">
        <ele>298.09783935547</ele>
        <time>2017-09-01T18:05:13Z</time>
      </trkpt>
      <trkpt lat="45.80103" lon="4.72119">
        <ele>298.53994750977</ele>
        <time>2017-09-01T18:05:15Z</time>
      </trkpt>
      <trkpt lat="45.80043" lon="4.72038">
        <ele>298.06045532227</ele>
        <time>2017-09-01T18:05:24Z</time>
      </trkpt>
      <trkpt lat="45.80022" lon="4.72013">
        <ele>296.84872436523</ele>
        <time>2017-09-01T18:05:46Z</time>
      </trkpt>
      <trkpt lat="45.8001" lon="4.72001">
        <ele>296.45413208008</ele>
        <time>2017-09-01T18:05:53Z</time>
      </trkpt>
      <trkpt lat="45.79971" lon="4.71978">
        <ele>295.13220214844</ele>
        <time>2017-09-01T18:05:57Z</time>
      </trkpt>
      <trkpt lat="45.79926" lon="4.71939">
        <ele>290.43753051758</ele>
        <time>2017-09-01T18:06:08Z</time>
      </trkpt>
      <trkpt lat="45.79872" lon="4.71891">
        <ele>279.95886230469</ele>
        <time>2017-09-01T18:06:22Z</time>
      </trkpt>
      <trkpt lat="45.79867" lon="4.71886">
        <ele>278.64245605469</ele>
        <time>2017-09-01T18:06:39Z</time>
      </trkpt>
      <trkpt lat="45.79861" lon="4.71875">
        <ele>276.50140380859</ele>
        <time>2017-09-01T18:06:41Z</time>
      </trkpt>
      <trkpt lat="45.79859" lon="4.71862">
        <ele>274.90097045898</ele>
        <time>2017-09-01T18:06:44Z</time>
      </trkpt>
      <trkpt lat="45.79862" lon="4.71848">
        <ele>273.36923217773</ele>
        <time>2017-09-01T18:06:46Z</time>
      </trkpt>
      <trkpt lat="45.79876" lon="4.71822">
        <ele>271.12677001953</ele>
        <time>2017-09-01T18:06:49Z</time>
      </trkpt>
      <trkpt lat="45.79908" lon="4.71772">
        <ele>273.00665283203</ele>
        <time>2017-09-01T18:06:55Z</time>
      </trkpt>
      <trkpt lat="45.79917" lon="4.71762">
        <ele>273.48361206055</ele>
        <time>2017-09-01T18:07:08Z</time>
      </trkpt>
      <trkpt lat="45.79923" lon="4.7176">
        <ele>273.73037719727</ele>
        <time>2017-09-01T18:07:11Z</time>
      </trkpt>
      <trkpt lat="45.79923" lon="4.7176">
        <ele>273.73037719727</ele>
        <time>2017-09-01T18:07:13Z</time>
      </trkpt>
      <trkpt lat="45.79917" lon="4.71762">
        <ele>273.48361206055</ele>
        <time>2017-09-01T18:07:13Z</time>
      </trkpt>
      <trkpt lat="45.79921" lon="4.71752">
        <ele>272.14956665039</ele>
        <time>2017-09-01T18:07:15Z</time>
      </trkpt>
      <trkpt lat="45.79926" lon="4.71744">
        <ele>271.4504699707</ele>
        <time>2017-09-01T18:07:17Z</time>
      </trkpt>
      <trkpt lat="45.7995" lon="4.71712">
        <ele>267.42568969727</ele>
        <time>2017-09-01T18:07:19Z</time>
      </trkpt>
      <trkpt lat="45.7995" lon="4.71712">
        <ele>267.42568969727</ele>
        <time>2017-09-01T18:07:28Z</time>
      </trkpt>
      <trkpt lat="45.79953" lon="4.71709">
        <ele>267.37368774414</ele>
        <time>2017-09-01T18:07:28Z</time>
      </trkpt>
      <trkpt lat="45.79957" lon="4.71708">
        <ele>267.39166259766</ele>
        <time>2017-09-01T18:07:29Z</time>
      </trkpt>
      <trkpt lat="45.79973" lon="4.71703">
        <ele>267.87683105469</ele>
        <time>2017-09-01T18:07:30Z</time>
      </trkpt>
      <trkpt lat="45.79984" lon="4.71699">
        <ele>268.96578979492</ele>
        <time>2017-09-01T18:07:34Z</time>
      </trkpt>
      <trkpt lat="45.79996" lon="4.71692">
        <ele>270.04159545898</ele>
        <time>2017-09-01T18:07:37Z</time>
      </trkpt>
      <trkpt lat="45.80041" lon="4.71644">
        <ele>273.83297729492</ele>
        <time>2017-09-01T18:07:40Z</time>
      </trkpt>
      <trkpt lat="45.80078" lon="4.71605">
        <ele>277.10440063477</ele>
        <time>2017-09-01T18:07:55Z</time>
      </trkpt>
      <trkpt lat="45.80094" lon="4.71596">
        <ele>278.68853759766</ele>
        <time>2017-09-01T18:08:07Z</time>
      </trkpt>
      <trkpt lat="45.80106" lon="4.71595">
        <ele>280.35177612305</ele>
        <time>2017-09-01T18:08:12Z</time>
      </trkpt>
      <trkpt lat="45.80121" lon="4.716">
        <ele>281.57711791992</ele>
        <time>2017-09-01T18:08:15Z</time>
      </trkpt>
      <trkpt lat="45.8014" lon="4.71609">
        <ele>282.4377746582</ele>
        <time>2017-09-01T18:08:19Z</time>
      </trkpt>
      <trkpt lat="45.80149" lon="4.71611">
        <ele>282.81967163086</ele>
        <time>2017-09-01T18:08:24Z</time>
      </trkpt>
      <trkpt lat="45.80158" lon="4.71609">
        <ele>282.80700683594</ele>
        <time>2017-09-01T18:08:26Z</time>
      </trkpt>
      <trkpt lat="45.80166" lon="4.71605">
        <ele>283.16693115234</ele>
        <time>2017-09-01T18:08:28Z</time>
      </trkpt>
      <trkpt lat="45.80181" lon="4.71588">
        <ele>285.75399780273</ele>
        <time>2017-09-01T18:08:30Z</time>
      </trkpt>
      <trkpt lat="45.80196" lon="4.71569">
        <ele>286.29806518555</ele>
        <time>2017-09-01T18:08:35Z</time>
      </trkpt>
      <trkpt lat="45.80206" lon="4.71563">
        <ele>286.84185791016</ele>
        <time>2017-09-01T18:08:40Z</time>
      </trkpt>
      <trkpt lat="45.80184" lon="4.71478">
        <ele>276.13345336914</ele>
        <time>2017-09-01T18:08:43Z</time>
      </trkpt>
      <trkpt lat="45.80181" lon="4.7146">
        <ele>273.60562133789</ele>
        <time>2017-09-01T18:09:00Z</time>
      </trkpt>
      <trkpt lat="45.80184" lon="4.71448">
        <ele>272.44964599609</ele>
        <time>2017-09-01T18:09:03Z</time>
      </trkpt>
      <trkpt lat="45.80189" lon="4.71438">
        <ele>271.98733520508</ele>
        <time>2017-09-01T18:09:05Z</time>
      </trkpt>
      <trkpt lat="45.80201" lon="4.71427">
        <ele>271.25100708008</ele>
        <time>2017-09-01T18:09:07Z</time>
      </trkpt>
      <trkpt lat="45.80213" lon="4.7141">
        <ele>268.97796630859</ele>
        <time>2017-09-01T18:09:11Z</time>
      </trkpt>
      <trkpt lat="45.80213" lon="4.7141">
        <ele>268.97796630859</ele>
        <time>2017-09-01T18:09:16Z</time>
      </trkpt>
      <trkpt lat="45.80206" lon="4.71421">
        <ele>270.52523803711</ele>
        <time>2017-09-01T18:09:16Z</time>
      </trkpt>
      <trkpt lat="45.80195" lon="4.7142">
        <ele>269.10580444336</ele>
        <time>2017-09-01T18:09:19Z</time>
      </trkpt>
      <trkpt lat="45.80195" lon="4.7142">
        <ele>269.10580444336</ele>
        <time>2017-09-01T18:09:22Z</time>
      </trkpt>
      <trkpt lat="45.80196" lon="4.71419">
        <ele>268.96450805664</ele>
        <time>2017-09-01T18:09:22Z</time>
      </trkpt>
      <trkpt lat="45.80206" lon="4.71421">
        <ele>270.52523803711</ele>
        <time>2017-09-01T18:09:22Z</time>
      </trkpt>
      <trkpt lat="45.80213" lon="4.71411">
        <ele>269.17358398438</ele>
        <time>2017-09-01T18:09:25Z</time>
      </trkpt>
      <trkpt lat="45.80237" lon="4.71366">
        <ele>270.79965209961</ele>
        <time>2017-09-01T18:09:28Z</time>
      </trkpt>
      <trkpt lat="45.80253" lon="4.71342">
        <ele>273.95907592773</ele>
        <time>2017-09-01T18:09:39Z</time>
      </trkpt>
      <trkpt lat="45.80264" lon="4.71329">
        <ele>275.69961547852</ele>
        <time>2017-09-01T18:09:45Z</time>
      </trkpt>
      <trkpt lat="45.80269" lon="4.71329">
        <ele>277.21197509766</ele>
        <time>2017-09-01T18:09:49Z</time>
      </trkpt>
      <trkpt lat="45.80273" lon="4.71331">
        <ele>277.87957763672</ele>
        <time>2017-09-01T18:09:50Z</time>
      </trkpt>
      <trkpt lat="45.80291" lon="4.71353">
        <ele>280.92660522461</ele>
        <time>2017-09-01T18:09:51Z</time>
      </trkpt>
      <trkpt lat="45.80304" lon="4.7136">
        <ele>281.96380615234</ele>
        <time>2017-09-01T18:09:57Z</time>
      </trkpt>
      <trkpt lat="45.80336" lon="4.71375">
        <ele>285.49566650391</ele>
        <time>2017-09-01T18:10:01Z</time>
      </trkpt>
      <trkpt lat="45.80362" lon="4.71384">
        <ele>288.67691040039</ele>
        <time>2017-09-01T18:10:10Z</time>
      </trkpt>
      <trkpt lat="45.80398" lon="4.71392">
        <ele>292.62515258789</ele>
        <time>2017-09-01T18:10:17Z</time>
      </trkpt>
      <trkpt lat="45.80438" lon="4.71283">
        <ele>292.55084228516</ele>
        <time>2017-09-01T18:10:27Z</time>
      </trkpt>
      <trkpt lat="45.80442" lon="4.71247">
        <ele>290.81475830078</ele>
        <time>2017-09-01T18:10:50Z</time>
      </trkpt>
      <trkpt lat="45.80447" lon="4.71228">
        <ele>290.2333984375</ele>
        <time>2017-09-01T18:10:57Z</time>
      </trkpt>
      <trkpt lat="45.80488" lon="4.71147">
        <ele>290.92831420898</ele>
        <time>2017-09-01T18:11:01Z</time>
      </trkpt>
      <trkpt lat="45.805" lon="4.71128">
        <ele>291.43273925781</ele>
        <time>2017-09-01T18:11:20Z</time>
      </trkpt>
      <trkpt lat="45.80516" lon="4.71097">
        <ele>292.7512512207</ele>
        <time>2017-09-01T18:11:25Z</time>
      </trkpt>
      <trkpt lat="45.80502" lon="4.71086">
        <ele>290.71789550781</ele>
        <time>2017-09-01T18:11:32Z</time>
      </trkpt>
      <trkpt lat="45.80476" lon="4.71066">
        <ele>287.48355102539</ele>
        <time>2017-09-01T18:11:36Z</time>
      </trkpt>
      <trkpt lat="45.80469" lon="4.71062">
        <ele>286.48181152344</ele>
        <time>2017-09-01T18:11:44Z</time>
      </trkpt>
      <trkpt lat="45.80431" lon="4.7105">
        <ele>281.4619140625</ele>
        <time>2017-09-01T18:11:46Z</time>
      </trkpt>
      <trkpt lat="45.80421" lon="4.71043">
        <ele>279.88696289062</ele>
        <time>2017-09-01T18:11:56Z</time>
      </trkpt>
      <trkpt lat="45.80419" lon="4.71034">
        <ele>279.01824951172</ele>
        <time>2017-09-01T18:11:59Z</time>
      </trkpt>
      <trkpt lat="45.80419" lon="4.71034">
        <ele>279.01824951172</ele>
        <time>2017-09-01T18:12:01Z</time>
      </trkpt>
      <trkpt lat="45.80422" lon="4.71018">
        <ele>278.08709716797</ele>
        <time>2017-09-01T18:12:01Z</time>
      </trkpt>
      <trkpt lat="45.80438" lon="4.70996">
        <ele>278.01031494141</ele>
        <time>2017-09-01T18:12:04Z</time>
      </trkpt>
      <trkpt lat="45.80452" lon="4.70981">
        <ele>278.48901367188</ele>
        <time>2017-09-01T18:12:10Z</time>
      </trkpt>
      <trkpt lat="45.8046" lon="4.7097">
        <ele>278.37661743164</ele>
        <time>2017-09-01T18:12:15Z</time>
      </trkpt>
      <trkpt lat="45.80464" lon="4.7096">
        <ele>276.81997680664</ele>
        <time>2017-09-01T18:12:18Z</time>
      </trkpt>
      <trkpt lat="45.80463" lon="4.70954">
        <ele>274.94256591797</ele>
        <time>2017-09-01T18:12:20Z</time>
      </trkpt>
      <trkpt lat="45.8046" lon="4.70946">
        <ele>273.77578735352</ele>
        <time>2017-09-01T18:12:21Z</time>
      </trkpt>
      <trkpt lat="45.80454" lon="4.70936">
        <ele>273.89398193359</ele>
        <time>2017-09-01T18:12:23Z</time>
      </trkpt>
      <trkpt lat="45.80452" lon="4.70928">
        <ele>273.73471069336</ele>
        <time>2017-09-01T18:12:25Z</time>
      </trkpt>
      <trkpt lat="45.80454" lon="4.70907">
        <ele>273.9518737793</ele>
        <time>2017-09-01T18:12:27Z</time>
      </trkpt>
      <trkpt lat="45.80454" lon="4.70886">
        <ele>274.6640625</ele>
        <time>2017-09-01T18:12:31Z</time>
      </trkpt>
      <trkpt lat="45.80447" lon="4.70865">
        <ele>274.04293823242</ele>
        <time>2017-09-01T18:12:35Z</time>
      </trkpt>
      <trkpt lat="45.80432" lon="4.70828">
        <ele>278.20364379883</ele>
        <time>2017-09-01T18:12:39Z</time>
      </trkpt>
      <trkpt lat="45.80432" lon="4.70828">
        <ele>278.20364379883</ele>
        <time>2017-09-01T18:12:47Z</time>
      </trkpt>
      <trkpt lat="45.80447" lon="4.70864">
        <ele>274.11428833008</ele>
        <time>2017-09-01T18:12:47Z</time>
      </trkpt>
      <trkpt lat="45.80451" lon="4.70862">
        <ele>274.56701660156</ele>
        <time>2017-09-01T18:12:55Z</time>
      </trkpt>
      <trkpt lat="45.80458" lon="4.70852">
        <ele>274.75637817383</ele>
        <time>2017-09-01T18:12:56Z</time>
      </trkpt>
      <trkpt lat="45.80481" lon="4.70828">
        <ele>274.59356689453</ele>
        <time>2017-09-01T18:12:59Z</time>
      </trkpt>
      <trkpt lat="45.80503" lon="4.70803">
        <ele>275.44244384766</ele>
        <time>2017-09-01T18:13:07Z</time>
      </trkpt>
      <trkpt lat="45.80517" lon="4.70786">
        <ele>272.91131591797</ele>
        <time>2017-09-01T18:13:14Z</time>
      </trkpt>
      <trkpt lat="45.80531" lon="4.70772">
        <ele>274.37554931641</ele>
        <time>2017-09-01T18:13:19Z</time>
      </trkpt>
      <trkpt lat="45.80547" lon="4.70752">
        <ele>278.35647583008</ele>
        <time>2017-09-01T18:13:24Z</time>
      </trkpt>
      <trkpt lat="45.80561" lon="4.70738">
        <ele>279.18740844727</ele>
        <time>2017-09-01T18:13:30Z</time>
      </trkpt>
      <trkpt lat="45.80591" lon="4.70715">
        <ele>274.9133605957</ele>
        <time>2017-09-01T18:13:35Z</time>
      </trkpt>
      <trkpt lat="45.8062" lon="4.70689">
        <ele>281.09820556641</ele>
        <time>2017-09-01T18:13:44Z</time>
      </trkpt>
      <trkpt lat="45.80639" lon="4.70668">
        <ele>282.04840087891</ele>
        <time>2017-09-01T18:13:53Z</time>
      </trkpt>
      <trkpt lat="45.80647" lon="4.70653">
        <ele>281.99255371094</ele>
        <time>2017-09-01T18:13:59Z</time>
      </trkpt>
      <trkpt lat="45.80651" lon="4.70634">
        <ele>281.6882019043</ele>
        <time>2017-09-01T18:14:03Z</time>
      </trkpt>
      <trkpt lat="45.80651" lon="4.70634">
        <ele>281.6882019043</ele>
        <time>2017-09-01T18:14:07Z</time>
      </trkpt>
      <trkpt lat="45.80658" lon="4.70568">
        <ele>282.9075012207</ele>
        <time>2017-09-01T18:14:07Z</time>
      </trkpt>
      <trkpt lat="45.80673" lon="4.70532">
        <ele>284.33905029297</ele>
        <time>2017-09-01T18:14:19Z</time>
      </trkpt>
      <trkpt lat="45.80682" lon="4.70496">
        <ele>284.34823608398</ele>
        <time>2017-09-01T18:14:27Z</time>
      </trkpt>
      <trkpt lat="45.80693" lon="4.70463">
        <ele>285.71374511719</ele>
        <time>2017-09-01T18:14:34Z</time>
      </trkpt>
      <trkpt lat="45.80701" lon="4.70434">
        <ele>285.5299987793</ele>
        <time>2017-09-01T18:14:41Z</time>
      </trkpt>
      <trkpt lat="45.80709" lon="4.70417">
        <ele>284.50762939453</ele>
        <time>2017-09-01T18:14:47Z</time>
      </trkpt>
      <trkpt lat="45.80713" lon="4.70413">
        <ele>283.8078918457</ele>
        <time>2017-09-01T18:14:51Z</time>
      </trkpt>
      <trkpt lat="45.80715" lon="4.70413">
        <ele>283.53427124023</ele>
        <time>2017-09-01T18:14:52Z</time>
      </trkpt>
      <trkpt lat="45.80723" lon="4.70428">
        <ele>284.53863525391</ele>
        <time>2017-09-01T18:14:53Z</time>
      </trkpt>
      <trkpt lat="45.80727" lon="4.70431">
        <ele>284.62930297852</ele>
        <time>2017-09-01T18:14:57Z</time>
      </trkpt>
      <trkpt lat="45.80733" lon="4.7043">
        <ele>284.09225463867</ele>
        <time>2017-09-01T18:14:58Z</time>
      </trkpt>
      <trkpt lat="45.80742" lon="4.70421">
        <ele>282.89645385742</ele>
        <time>2017-09-01T18:15:00Z</time>
      </trkpt>
      <trkpt lat="45.80742" lon="4.70421">
        <ele>282.89645385742</ele>
        <time>2017-09-01T18:15:03Z</time>
      </trkpt>
      <trkpt lat="45.80748" lon="4.7041">
        <ele>282.16638183594</ele>
        <time>2017-09-01T18:15:03Z</time>
      </trkpt>
      <trkpt lat="45.80762" lon="4.70371">
        <ele>279.70291137695</ele>
        <time>2017-09-01T18:15:06Z</time>
      </trkpt>
      <trkpt lat="45.8077" lon="4.7035">
        <ele>279.79888916016</ele>
        <time>2017-09-01T18:15:14Z</time>
      </trkpt>
      <trkpt lat="45.80786" lon="4.70325">
        <ele>279.56033325195</ele>
        <time>2017-09-01T18:15:18Z</time>
      </trkpt>
      <trkpt lat="45.80797" lon="4.70308">
        <ele>280.7805480957</ele>
        <time>2017-09-01T18:15:24Z</time>
      </trkpt>
      <trkpt lat="45.80797" lon="4.70293">
        <ele>279.39312744141</ele>
        <time>2017-09-01T18:15:28Z</time>
      </trkpt>
      <trkpt lat="45.80797" lon="4.70293">
        <ele>279.39312744141</ele>
        <time>2017-09-01T18:15:31Z</time>
      </trkpt>
      <trkpt lat="45.8081" lon="4.70217">
        <ele>284.02090454102</ele>
        <time>2017-09-01T18:15:31Z</time>
      </trkpt>
      <trkpt lat="45.80812" lon="4.70194">
        <ele>281.43865966797</ele>
        <time>2017-09-01T18:15:46Z</time>
      </trkpt>
      <trkpt lat="45.80808" lon="4.70162">
        <ele>288.73461914062</ele>
        <time>2017-09-01T18:15:50Z</time>
      </trkpt>
      <trkpt lat="45.80806" lon="4.70141">
        <ele>290.97476196289</ele>
        <time>2017-09-01T18:15:56Z</time>
      </trkpt>
      <trkpt lat="45.80806" lon="4.70115">
        <ele>292.04647827148</ele>
        <time>2017-09-01T18:16:00Z</time>
      </trkpt>
      <trkpt lat="45.8081" lon="4.70089">
        <ele>291.93121337891</ele>
        <time>2017-09-01T18:16:05Z</time>
      </trkpt>
      <trkpt lat="45.80807" lon="4.70083">
        <ele>292.24575805664</ele>
        <time>2017-09-01T18:16:10Z</time>
      </trkpt>
      <trkpt lat="45.80802" lon="4.70079">
        <ele>293.06607055664</ele>
        <time>2017-09-01T18:16:11Z</time>
      </trkpt>
      <trkpt lat="45.80802" lon="4.70079">
        <ele>293.06607055664</ele>
        <time>2017-09-01T18:16:13Z</time>
      </trkpt>
      <trkpt lat="45.80791" lon="4.70073">
        <ele>295.7822265625</ele>
        <time>2017-09-01T18:16:13Z</time>
      </trkpt>
      <trkpt lat="45.80773" lon="4.70058">
        <ele>296.04257202148</ele>
        <time>2017-09-01T18:16:16Z</time>
      </trkpt>
      <trkpt lat="45.80763" lon="4.70052">
        <ele>294.9469909668</ele>
        <time>2017-09-01T18:16:22Z</time>
      </trkpt>
      <trkpt lat="45.80754" lon="4.70051">
        <ele>295.48318481445</ele>
        <time>2017-09-01T18:16:25Z</time>
      </trkpt>
      <trkpt lat="45.8072" lon="4.70064">
        <ele>295.08853149414</ele>
        <time>2017-09-01T18:16:27Z</time>
      </trkpt>
      <trkpt lat="45.80716" lon="4.70072">
        <ele>295.50152587891</ele>
        <time>2017-09-01T18:16:36Z</time>
      </trkpt>
      <trkpt lat="45.80718" lon="4.70083">
        <ele>297.96810913086</ele>
        <time>2017-09-01T18:16:38Z</time>
      </trkpt>
      <trkpt lat="45.80727" lon="4.70098">
        <ele>299.91027832031</ele>
        <time>2017-09-01T18:16:40Z</time>
      </trkpt>
      <trkpt lat="45.80727" lon="4.70098">
        <ele>299.91027832031</ele>
        <time>2017-09-01T18:16:44Z</time>
      </trkpt>
      <trkpt lat="45.80729" lon="4.70107">
        <ele>300.34378051758</ele>
        <time>2017-09-01T18:16:44Z</time>
      </trkpt>
      <trkpt lat="45.80729" lon="4.70115">
        <ele>300.39926147461</ele>
        <time>2017-09-01T18:16:46Z</time>
      </trkpt>
      <trkpt lat="45.80723" lon="4.70122">
        <ele>299.88409423828</ele>
        <time>2017-09-01T18:16:47Z</time>
      </trkpt>
      <trkpt lat="45.80716" lon="4.70126">
        <ele>299.56365966797</ele>
        <time>2017-09-01T18:16:49Z</time>
      </trkpt>
      <trkpt lat="45.80641" lon="4.70168">
        <ele>302.04479980469</ele>
        <time>2017-09-01T18:16:51Z</time>
      </trkpt>
      <trkpt lat="45.80597" lon="4.70191">
        <ele>306.15170288086</ele>
        <time>2017-09-01T18:17:13Z</time>
      </trkpt>
      <trkpt lat="45.8058" lon="4.70198">
        <ele>305.94686889648</ele>
        <time>2017-09-01T18:17:26Z</time>
      </trkpt>
      <trkpt lat="45.80574" lon="4.70197">
        <ele>305.55780029297</ele>
        <time>2017-09-01T18:17:31Z</time>
      </trkpt>
      <trkpt lat="45.80569" lon="4.70194">
        <ele>305.76184082031</ele>
        <time>2017-09-01T18:17:33Z</time>
      </trkpt>
      <trkpt lat="45.80569" lon="4.70194">
        <ele>305.76184082031</ele>
        <time>2017-09-01T18:17:34Z</time>
      </trkpt>
      <trkpt lat="45.8051" lon="4.70128">
        <ele>305.7854309082</ele>
        <time>2017-09-01T18:17:34Z</time>
      </trkpt>
      <trkpt lat="45.80507" lon="4.70126">
        <ele>306.44564819336</ele>
        <time>2017-09-01T18:17:54Z</time>
      </trkpt>
      <trkpt lat="45.80486" lon="4.70119">
        <ele>309.15158081055</ele>
        <time>2017-09-01T18:17:55Z</time>
      </trkpt>
      <trkpt lat="45.80455" lon="4.70103">
        <ele>311.6481628418</ele>
        <time>2017-09-01T18:18:01Z</time>
      </trkpt>
      <trkpt lat="45.80424" lon="4.70089">
        <ele>312.82336425781</ele>
        <time>2017-09-01T18:18:10Z</time>
      </trkpt>
      <trkpt lat="45.804" lon="4.70074">
        <ele>311.98736572266</ele>
        <time>2017-09-01T18:18:19Z</time>
      </trkpt>
      <trkpt lat="45.80375" lon="4.70053">
        <ele>311.40612792969</ele>
        <time>2017-09-01T18:18:26Z</time>
      </trkpt>
      <trkpt lat="45.80353" lon="4.70038">
        <ele>312.5403137207</ele>
        <time>2017-09-01T18:18:34Z</time>
      </trkpt>
      <trkpt lat="45.80315" lon="4.70028">
        <ele>319.61135864258</ele>
        <time>2017-09-01T18:18:41Z</time>
      </trkpt>
      <trkpt lat="45.8031" lon="4.70027">
        <ele>320.77972412109</ele>
        <time>2017-09-01T18:18:51Z</time>
      </trkpt>
      <trkpt lat="45.80227" lon="4.69939">
        <ele>326.88873291016</ele>
        <time>2017-09-01T18:18:52Z</time>
      </trkpt>
      <trkpt lat="45.8019" lon="4.69864">
        <ele>325.59732055664</ele>
        <time>2017-09-01T18:19:20Z</time>
      </trkpt>
      <trkpt lat="45.8013" lon="4.69749">
        <ele>319.89501953125</ele>
        <time>2017-09-01T18:19:37Z</time>
      </trkpt>
      <trkpt lat="45.80084" lon="4.69666">
        <ele>316.12857055664</ele>
        <time>2017-09-01T18:20:04Z</time>
      </trkpt>
      <trkpt lat="45.80067" lon="4.69632">
        <ele>316.80990600586</ele>
        <time>2017-09-01T18:20:24Z</time>
      </trkpt>
      <trkpt lat="45.80048" lon="4.69602">
        <ele>317.20581054688</ele>
        <time>2017-09-01T18:20:32Z</time>
      </trkpt>
      <trkpt lat="45.80017" lon="4.69549">
        <ele>318.15747070312</ele>
        <time>2017-09-01T18:20:40Z</time>
      </trkpt>
      <trkpt lat="45.79975" lon="4.69468">
        <ele>320.14685058594</ele>
        <time>2017-09-01T18:20:53Z</time>
      </trkpt>
      <trkpt lat="45.79966" lon="4.69457">
        <ele>320.33892822266</ele>
        <time>2017-09-01T18:21:12Z</time>
      </trkpt>
      <trkpt lat="45.79945" lon="4.69439">
        <ele>321.00216674805</ele>
        <time>2017-09-01T18:21:15Z</time>
      </trkpt>
      <trkpt lat="45.79947" lon="4.69432">
        <ele>321.46621704102</ele>
        <time>2017-09-01T18:21:22Z</time>
      </trkpt>
      <trkpt lat="45.79932" lon="4.69424">
        <ele>321.91860961914</ele>
        <time>2017-09-01T18:21:23Z</time>
      </trkpt>
      <trkpt lat="45.7992" lon="4.69415">
        <ele>322.37982177734</ele>
        <time>2017-09-01T18:21:27Z</time>
      </trkpt>
      <trkpt lat="45.799" lon="4.69396">
        <ele>322.62896728516</ele>
        <time>2017-09-01T18:21:31Z</time>
      </trkpt>
      <trkpt lat="45.79874" lon="4.69365">
        <ele>323.14172363281</ele>
        <time>2017-09-01T18:21:37Z</time>
      </trkpt>
      <trkpt lat="45.79862" lon="4.69346">
        <ele>324.37454223633</ele>
        <time>2017-09-01T18:21:46Z</time>
      </trkpt>
      <trkpt lat="45.7984" lon="4.69308">
        <ele>326.01608276367</ele>
        <time>2017-09-01T18:21:51Z</time>
      </trkpt>
      <trkpt lat="45.79781" lon="4.69197">
        <ele>329.03890991211</ele>
        <time>2017-09-01T18:22:00Z</time>
      </trkpt>
      <trkpt lat="45.79771" lon="4.69187">
        <ele>329.16009521484</ele>
        <time>2017-09-01T18:22:26Z</time>
      </trkpt>
      <trkpt lat="45.79674" lon="4.69123">
        <ele>328.67321777344</ele>
        <time>2017-09-01T18:22:29Z</time>
      </trkpt>
      <trkpt lat="45.79645" lon="4.69102">
        <ele>329.48831176758</ele>
        <time>2017-09-01T18:22:58Z</time>
      </trkpt>
      <trkpt lat="45.7963" lon="4.69084">
        <ele>330.44891357422</ele>
        <time>2017-09-01T18:23:07Z</time>
      </trkpt>
      <trkpt lat="45.79608" lon="4.69048">
        <ele>330.5439453125</ele>
        <time>2017-09-01T18:23:12Z</time>
      </trkpt>
      <trkpt lat="45.79597" lon="4.69035">
        <ele>331.27743530273</ele>
        <time>2017-09-01T18:23:21Z</time>
      </trkpt>
      <trkpt lat="45.79582" lon="4.69026">
        <ele>331.86419677734</ele>
        <time>2017-09-01T18:23:25Z</time>
      </trkpt>
      <trkpt lat="45.79566" lon="4.69022">
        <ele>332.81838989258</ele>
        <time>2017-09-01T18:23:29Z</time>
      </trkpt>
      <trkpt lat="45.79482" lon="4.69014">
        <ele>335.44259643555</ele>
        <time>2017-09-01T18:23:33Z</time>
      </trkpt>
      <trkpt lat="45.79469" lon="4.69006">
        <ele>335.78466796875</ele>
        <time>2017-09-01T18:23:55Z</time>
      </trkpt>
      <trkpt lat="45.79469" lon="4.68998">
        <ele>336.04946899414</ele>
        <time>2017-09-01T18:23:59Z</time>
      </trkpt>
      <trkpt lat="45.79469" lon="4.68998">
        <ele>336.04946899414</ele>
        <time>2017-09-01T18:24:00Z</time>
      </trkpt>
      <trkpt lat="45.79471" lon="4.68868">
        <ele>339.05685424805</ele>
        <time>2017-09-01T18:24:00Z</time>
      </trkpt>
      <trkpt lat="45.79477" lon="4.68863">
        <ele>339.37640380859</ele>
        <time>2017-09-01T18:24:24Z</time>
      </trkpt>
      <trkpt lat="45.79479" lon="4.6886">
        <ele>339.44522094727</ele>
        <time>2017-09-01T18:24:26Z</time>
      </trkpt>
      <trkpt lat="45.79483" lon="4.68784">
        <ele>340.33804321289</ele>
        <time>2017-09-01T18:24:27Z</time>
      </trkpt>
      <trkpt lat="45.79488" lon="4.68761">
        <ele>340.54406738281</ele>
        <time>2017-09-01T18:24:41Z</time>
      </trkpt>
      <trkpt lat="45.79502" lon="4.68723">
        <ele>341.85665893555</ele>
        <time>2017-09-01T18:24:45Z</time>
      </trkpt>
      <trkpt lat="45.79546" lon="4.68633">
        <ele>345.84872436523</ele>
        <time>2017-09-01T18:24:53Z</time>
      </trkpt>
      <trkpt lat="45.79546" lon="4.68633">
        <ele>345.84872436523</ele>
        <time>2017-09-01T18:25:13Z</time>
      </trkpt>
      <trkpt lat="45.79478" lon="4.68593">
        <ele>346.38619995117</ele>
        <time>2017-09-01T18:25:13Z</time>
      </trkpt>
      <trkpt lat="45.7944" lon="4.68574">
        <ele>344.72396850586</ele>
        <time>2017-09-01T18:25:33Z</time>
      </trkpt>
      <trkpt lat="45.79423" lon="4.68565">
        <ele>344.5617980957</ele>
        <time>2017-09-01T18:25:44Z</time>
      </trkpt>
      <trkpt lat="45.79405" lon="4.6855">
        <ele>343.78656005859</ele>
        <time>2017-09-01T18:25:49Z</time>
      </trkpt>
      <trkpt lat="45.79378" lon="4.68528">
        <ele>343.47933959961</ele>
        <time>2017-09-01T18:25:55Z</time>
      </trkpt>
      <trkpt lat="45.79364" lon="4.68514">
        <ele>342.9143371582</ele>
        <time>2017-09-01T18:26:03Z</time>
      </trkpt>
      <trkpt lat="45.79341" lon="4.68487">
        <ele>341.04818725586</ele>
        <time>2017-09-01T18:26:08Z</time>
      </trkpt>
      <trkpt lat="45.79323" lon="4.68461">
        <ele>337.53771972656</ele>
        <time>2017-09-01T18:26:16Z</time>
      </trkpt>
      <trkpt lat="45.79309" lon="4.68436">
        <ele>334.341796875</ele>
        <time>2017-09-01T18:26:23Z</time>
      </trkpt>
      <trkpt lat="45.79301" lon="4.68406">
        <ele>330.1399230957</ele>
        <time>2017-09-01T18:26:29Z</time>
      </trkpt>
      <trkpt lat="45.79301" lon="4.68406">
        <ele>330.1399230957</ele>
        <time>2017-09-01T18:26:35Z</time>
      </trkpt>
      <trkpt lat="45.79294" lon="4.68381">
        <ele>331.62603759766</ele>
        <time>2017-09-01T18:26:35Z</time>
      </trkpt>
      <trkpt lat="45.79286" lon="4.68367">
        <ele>331.62945556641</ele>
        <time>2017-09-01T18:26:40Z</time>
      </trkpt>
      <trkpt lat="45.79271" lon="4.68359">
        <ele>328.19436645508</ele>
        <time>2017-09-01T18:26:43Z</time>
      </trkpt>
      <trkpt lat="45.79255" lon="4.68357">
        <ele>326.02133178711</ele>
        <time>2017-09-01T18:26:47Z</time>
      </trkpt>
      <trkpt lat="45.79233" lon="4.6836">
        <ele>330.29312133789</ele>
        <time>2017-09-01T18:26:51Z</time>
      </trkpt>
      <trkpt lat="45.79227" lon="4.6836">
        <ele>332.83749389648</ele>
        <time>2017-09-01T18:26:57Z</time>
      </trkpt>
      <trkpt lat="45.79227" lon="4.6836">
        <ele>332.83749389648</ele>
        <time>2017-09-01T18:26:59Z</time>
      </trkpt>
      <trkpt lat="45.79219" lon="4.68347">
        <ele>338.55505371094</ele>
        <time>2017-09-01T18:26:59Z</time>
      </trkpt>
      <trkpt lat="45.79197" lon="4.68299">
        <ele>346.50518798828</ele>
        <time>2017-09-01T18:27:02Z</time>
      </trkpt>
      <trkpt lat="45.79184" lon="4.68261">
        <ele>348.03817749023</ele>
        <time>2017-09-01T18:27:13Z</time>
      </trkpt>
      <trkpt lat="45.79183" lon="4.6825">
        <ele>347.27386474609</ele>
        <time>2017-09-01T18:27:21Z</time>
      </trkpt>
      <trkpt lat="45.79185" lon="4.68247">
        <ele>347.33435058594</ele>
        <time>2017-09-01T18:27:23Z</time>
      </trkpt>
      <trkpt lat="45.79189" lon="4.68246">
        <ele>347.11294555664</ele>
        <time>2017-09-01T18:27:24Z</time>
      </trkpt>
      <trkpt lat="45.79207" lon="4.68249">
        <ele>349.64633178711</ele>
        <time>2017-09-01T18:27:25Z</time>
      </trkpt>
      <trkpt lat="45.79209" lon="4.68249">
        <ele>349.70199584961</ele>
        <time>2017-09-01T18:27:30Z</time>
      </trkpt>
      <trkpt lat="45.79212" lon="4.68243">
        <ele>350.20593261719</ele>
        <time>2017-09-01T18:27:31Z</time>
      </trkpt>
      <trkpt lat="45.7921" lon="4.68223">
        <ele>351.61325073242</ele>
        <time>2017-09-01T18:27:32Z</time>
      </trkpt>
      <trkpt lat="45.79199" lon="4.68186">
        <ele>353.51223754883</ele>
        <time>2017-09-01T18:27:36Z</time>
      </trkpt>
      <trkpt lat="45.79199" lon="4.68186">
        <ele>353.51223754883</ele>
        <time>2017-09-01T18:27:43Z</time>
      </trkpt>
      <trkpt lat="45.79148" lon="4.68147">
        <ele>356.01831054688</ele>
        <time>2017-09-01T18:27:43Z</time>
      </trkpt>
      <trkpt lat="45.79131" lon="4.68136">
        <ele>357.23355102539</ele>
        <time>2017-09-01T18:27:58Z</time>
      </trkpt>
      <trkpt lat="45.79122" lon="4.68127">
        <ele>357.96286010742</ele>
        <time>2017-09-01T18:28:03Z</time>
      </trkpt>
      <trkpt lat="45.79109" lon="4.68118">
        <ele>358.89825439453</ele>
        <time>2017-09-01T18:28:06Z</time>
      </trkpt>
      <trkpt lat="45.79091" lon="4.68114">
        <ele>360.13858032227</ele>
        <time>2017-09-01T18:28:10Z</time>
      </trkpt>
      <trkpt lat="45.79066" lon="4.68093">
        <ele>363.17636108398</ele>
        <time>2017-09-01T18:28:15Z</time>
      </trkpt>
      <trkpt lat="45.79065" lon="4.68092">
        <ele>363.36642456055</ele>
        <time>2017-09-01T18:28:23Z</time>
      </trkpt>
      <trkpt lat="45.7906" lon="4.68091">
        <ele>364.0339050293</ele>
        <time>2017-09-01T18:28:23Z</time>
      </trkpt>
      <trkpt lat="45.79059" lon="4.68092">
        <ele>364.08123779297</ele>
        <time>2017-09-01T18:28:24Z</time>
      </trkpt>
      <trkpt lat="45.79023" lon="4.68164">
        <ele>366.36972045898</ele>
        <time>2017-09-01T18:28:24Z</time>
      </trkpt>
      <trkpt lat="45.7902" lon="4.68168">
        <ele>366.70013427734</ele>
        <time>2017-09-01T18:28:41Z</time>
      </trkpt>
      <trkpt lat="45.79016" lon="4.68168">
        <ele>367.28161621094</ele>
        <time>2017-09-01T18:28:42Z</time>
      </trkpt>
      <trkpt lat="45.79007" lon="4.68165">
        <ele>368.84848022461</ele>
        <time>2017-09-01T18:28:43Z</time>
      </trkpt>
      <trkpt lat="45.7895" lon="4.68146">
        <ele>373.90151977539</ele>
        <time>2017-09-01T18:28:45Z</time>
      </trkpt>
      <trkpt lat="45.78906" lon="4.68132">
        <ele>374.67123413086</ele>
        <time>2017-09-01T18:29:01Z</time>
      </trkpt>
      <trkpt lat="45.78887" lon="4.68122">
        <ele>374.88082885742</ele>
        <time>2017-09-01T18:29:13Z</time>
      </trkpt>
      <trkpt lat="45.78863" lon="4.68101">
        <ele>373.96084594727</ele>
        <time>2017-09-01T18:29:18Z</time>
      </trkpt>
      <trkpt lat="45.78863" lon="4.68101">
        <ele>373.96084594727</ele>
        <time>2017-09-01T18:29:26Z</time>
      </trkpt>
      <trkpt lat="45.78858" lon="4.68109">
        <ele>372.69427490234</ele>
        <time>2017-09-01T18:29:26Z</time>
      </trkpt>
      <trkpt lat="45.78858" lon="4.68113">
        <ele>372.29461669922</ele>
        <time>2017-09-01T18:29:28Z</time>
      </trkpt>
      <trkpt lat="45.78861" lon="4.6812">
        <ele>372.17889404297</ele>
        <time>2017-09-01T18:29:29Z</time>
      </trkpt>
      <trkpt lat="45.78863" lon="4.68133">
        <ele>371.51205444336</ele>
        <time>2017-09-01T18:29:31Z</time>
      </trkpt>
      <trkpt lat="45.7886" lon="4.68161">
        <ele>368.37835693359</ele>
        <time>2017-09-01T18:29:33Z</time>
      </trkpt>
      <trkpt lat="45.78856" lon="4.68183">
        <ele>364.92578125</ele>
        <time>2017-09-01T18:29:38Z</time>
      </trkpt>
      <trkpt lat="45.78852" lon="4.68188">
        <ele>363.79898071289</ele>
        <time>2017-09-01T18:29:42Z</time>
      </trkpt>
      <trkpt lat="45.78848" lon="4.68189">
        <ele>363.10525512695</ele>
        <time>2017-09-01T18:29:43Z</time>
      </trkpt>
      <trkpt lat="45.78829" lon="4.68187">
        <ele>360.99237060547</ele>
        <time>2017-09-01T18:29:44Z</time>
      </trkpt>
      <trkpt lat="45.78823" lon="4.68188">
        <ele>359.97375488281</ele>
        <time>2017-09-01T18:29:49Z</time>
      </trkpt>
      <trkpt lat="45.78817" lon="4.68194">
        <ele>357.37362670898</ele>
        <time>2017-09-01T18:29:51Z</time>
      </trkpt>
      <trkpt lat="45.78813" lon="4.68202">
        <ele>353.22927856445</ele>
        <time>2017-09-01T18:29:53Z</time>
      </trkpt>
      <trkpt lat="45.78806" lon="4.68201">
        <ele>353.26553344727</ele>
        <time>2017-09-01T18:29:55Z</time>
      </trkpt>
      <trkpt lat="45.78801" lon="4.68203">
        <ele>352.810546875</ele>
        <time>2017-09-01T18:29:57Z</time>
      </trkpt>
      <trkpt lat="45.78794" lon="4.68214">
        <ele>350.18893432617</ele>
        <time>2017-09-01T18:29:58Z</time>
      </trkpt>
      <trkpt lat="45.78791" lon="4.68214">
        <ele>350.00607299805</ele>
        <time>2017-09-01T18:30:01Z</time>
      </trkpt>
      <trkpt lat="45.78789" lon="4.68211">
        <ele>350.3440246582</ele>
        <time>2017-09-01T18:30:02Z</time>
      </trkpt>
      <trkpt lat="45.78779" lon="4.68184">
        <ele>352.6418762207</ele>
        <time>2017-09-01T18:30:03Z</time>
      </trkpt>
      <trkpt lat="45.78779" lon="4.6817">
        <ele>355.1393737793</ele>
        <time>2017-09-01T18:30:09Z</time>
      </trkpt>
      <trkpt lat="45.78774" lon="4.68156">
        <ele>356.38958740234</ele>
        <time>2017-09-01T18:30:12Z</time>
      </trkpt>
      <trkpt lat="45.78768" lon="4.68149">
        <ele>355.26342773438</ele>
        <time>2017-09-01T18:30:15Z</time>
      </trkpt>
      <trkpt lat="45.78756" lon="4.6814">
        <ele>352.22229003906</ele>
        <time>2017-09-01T18:30:17Z</time>
      </trkpt>
      <trkpt lat="45.78722" lon="4.68124">
        <ele>343.90228271484</ele>
        <time>2017-09-01T18:30:21Z</time>
      </trkpt>
      <trkpt lat="45.78693" lon="4.68108">
        <ele>342.69485473633</ele>
        <time>2017-09-01T18:30:31Z</time>
      </trkpt>
      <trkpt lat="45.78673" lon="4.68092">
        <ele>342.05883789062</ele>
        <time>2017-09-01T18:30:39Z</time>
      </trkpt>
      <trkpt lat="45.78648" lon="4.68086">
        <ele>340.68566894531</ele>
        <time>2017-09-01T18:30:45Z</time>
      </trkpt>
      <trkpt lat="45.78648" lon="4.68086">
        <ele>340.68566894531</ele>
        <time>2017-09-01T18:30:52Z</time>
      </trkpt>
      <trkpt lat="45.78642" lon="4.68087">
        <ele>340.37811279297</ele>
        <time>2017-09-01T18:30:52Z</time>
      </trkpt>
      <trkpt lat="45.78638" lon="4.68095">
        <ele>340.17892456055</ele>
        <time>2017-09-01T18:30:54Z</time>
      </trkpt>
      <trkpt lat="45.78641" lon="4.68103">
        <ele>339.68392944336</ele>
        <time>2017-09-01T18:30:56Z</time>
      </trkpt>
      <trkpt lat="45.78684" lon="4.68189">
        <ele>336.21578979492</ele>
        <time>2017-09-01T18:30:58Z</time>
      </trkpt>
      <trkpt lat="45.78686" lon="4.68202">
        <ele>336.47265625</ele>
        <time>2017-09-01T18:31:18Z</time>
      </trkpt>
      <trkpt lat="45.78687" lon="4.68228">
        <ele>336.77615356445</ele>
        <time>2017-09-01T18:31:20Z</time>
      </trkpt>
      <trkpt lat="45.78685" lon="4.68241">
        <ele>336.78356933594</ele>
        <time>2017-09-01T18:31:25Z</time>
      </trkpt>
      <trkpt lat="45.78668" lon="4.68278">
        <ele>335.42202758789</ele>
        <time>2017-09-01T18:31:27Z</time>
      </trkpt>
      <trkpt lat="45.78666" lon="4.68283">
        <ele>335.13909912109</ele>
        <time>2017-09-01T18:31:35Z</time>
      </trkpt>
      <trkpt lat="45.78652" lon="4.68294">
        <ele>334.71325683594</ele>
        <time>2017-09-01T18:31:36Z</time>
      </trkpt>
      <trkpt lat="45.78568" lon="4.68304">
        <ele>344.20477294922</ele>
        <time>2017-09-01T18:31:40Z</time>
      </trkpt>
      <trkpt lat="45.78503" lon="4.6831">
        <ele>353.16223144531</ele>
        <time>2017-09-01T18:32:03Z</time>
      </trkpt>
      <trkpt lat="45.7847" lon="4.68311">
        <ele>357.64465332031</ele>
        <time>2017-09-01T18:32:20Z</time>
      </trkpt>
      <trkpt lat="45.78466" lon="4.6832">
        <ele>357.47241210938</ele>
        <time>2017-09-01T18:32:29Z</time>
      </trkpt>
      <trkpt lat="45.78472" lon="4.68348">
        <ele>355.25549316406</ele>
        <time>2017-09-01T18:32:31Z</time>
      </trkpt>
      <trkpt lat="45.78475" lon="4.68353">
        <ele>354.76034545898</ele>
        <time>2017-09-01T18:32:36Z</time>
      </trkpt>
      <trkpt lat="45.78491" lon="4.68363">
        <ele>352.45791625977</ele>
        <time>2017-09-01T18:32:37Z</time>
      </trkpt>
      <trkpt lat="45.78521" lon="4.68402">
        <ele>347.01885986328</ele>
        <time>2017-09-01T18:32:42Z</time>
      </trkpt>
      <trkpt lat="45.78534" lon="4.6841">
        <ele>345.76901245117</ele>
        <time>2017-09-01T18:32:53Z</time>
      </trkpt>
      <trkpt lat="45.78532" lon="4.68427">
        <ele>344.3786315918</ele>
        <time>2017-09-01T18:32:57Z</time>
      </trkpt>
      <trkpt lat="45.78529" lon="4.68439">
        <ele>343.11135864258</ele>
        <time>2017-09-01T18:33:00Z</time>
      </trkpt>
      <trkpt lat="45.78516" lon="4.6846">
        <ele>342.05813598633</ele>
        <time>2017-09-01T18:33:02Z</time>
      </trkpt>
      <trkpt lat="45.78509" lon="4.68478">
        <ele>341.13134765625</ele>
        <time>2017-09-01T18:33:07Z</time>
      </trkpt>
      <trkpt lat="45.78508" lon="4.68488">
        <ele>340.60000610352</ele>
        <time>2017-09-01T18:33:11Z</time>
      </trkpt>
      <trkpt lat="45.7851" lon="4.68495">
        <ele>340.65615844727</ele>
        <time>2017-09-01T18:33:13Z</time>
      </trkpt>
      <trkpt lat="45.78522" lon="4.6852">
        <ele>340.26983642578</ele>
        <time>2017-09-01T18:33:14Z</time>
      </trkpt>
      <trkpt lat="45.78532" lon="4.68552">
        <ele>342.01693725586</ele>
        <time>2017-09-01T18:33:20Z</time>
      </trkpt>
      <trkpt lat="45.78536" lon="4.6857">
        <ele>342.55575561523</ele>
        <time>2017-09-01T18:33:27Z</time>
      </trkpt>
      <trkpt lat="45.78527" lon="4.68565">
        <ele>343.49426269531</ele>
        <time>2017-09-01T18:33:31Z</time>
      </trkpt>
      <trkpt lat="45.78527" lon="4.68565">
        <ele>343.49426269531</ele>
        <time>2017-09-01T18:33:34Z</time>
      </trkpt>
      <trkpt lat="45.7845" lon="4.68542">
        <ele>351.83804321289</ele>
        <time>2017-09-01T18:33:34Z</time>
      </trkpt>
      <trkpt lat="45.78371" lon="4.6852">
        <ele>360.3967590332</ele>
        <time>2017-09-01T18:33:55Z</time>
      </trkpt>
      <trkpt lat="45.78279" lon="4.68499">
        <ele>369.97332763672</ele>
        <time>2017-09-01T18:34:17Z</time>
      </trkpt>
      <trkpt lat="45.78182" lon="4.68479">
        <ele>384.90765380859</ele>
        <time>2017-09-01T18:34:42Z</time>
      </trkpt>
      <trkpt lat="45.78179" lon="4.68479">
        <ele>385.09176635742</ele>
        <time>2017-09-01T18:35:08Z</time>
      </trkpt>
      <trkpt lat="45.78163" lon="4.68476">
        <ele>386.93515014648</ele>
        <time>2017-09-01T18:35:09Z</time>
      </trkpt>
      <trkpt lat="45.78078" lon="4.68457">
        <ele>400.64453125</ele>
        <time>2017-09-01T18:35:13Z</time>
      </trkpt>
      <trkpt lat="45.78054" lon="4.68449">
        <ele>404.45568847656</ele>
        <time>2017-09-01T18:35:36Z</time>
      </trkpt>
      <trkpt lat="45.78018" lon="4.6843">
        <ele>408.37747192383</ele>
        <time>2017-09-01T18:35:43Z</time>
      </trkpt>
      <trkpt lat="45.77964" lon="4.68408">
        <ele>412.96395874023</ele>
        <time>2017-09-01T18:35:53Z</time>
      </trkpt>
      <trkpt lat="45.77879" lon="4.68366">
        <ele>414.85717773438</ele>
        <time>2017-09-01T18:36:08Z</time>
      </trkpt>
      <trkpt lat="45.77857" lon="4.68352">
        <ele>414.64334106445</ele>
        <time>2017-09-01T18:36:32Z</time>
      </trkpt>
      <trkpt lat="45.77777" lon="4.68279">
        <ele>410.57809448242</ele>
        <time>2017-09-01T18:36:38Z</time>
      </trkpt>
      <trkpt lat="45.77769" lon="4.6827">
        <ele>410.71948242188</ele>
        <time>2017-09-01T18:37:03Z</time>
      </trkpt>
      <trkpt lat="45.77769" lon="4.6827">
        <ele>410.71948242188</ele>
        <time>2017-09-01T18:37:06Z</time>
      </trkpt>
      <trkpt lat="45.77752" lon="4.68254">
        <ele>409.97424316406</ele>
        <time>2017-09-01T18:37:06Z</time>
      </trkpt>
      <trkpt lat="45.77712" lon="4.68229">
        <ele>405.46792602539</ele>
        <time>2017-09-01T18:37:11Z</time>
      </trkpt>
      <trkpt lat="45.77673" lon="4.68211">
        <ele>402.21557617188</ele>
        <time>2017-09-01T18:37:23Z</time>
      </trkpt>
      <trkpt lat="45.77644" lon="4.68201">
        <ele>400.78753662109</ele>
        <time>2017-09-01T18:37:34Z</time>
      </trkpt>
      <trkpt lat="45.77632" lon="4.68202">
        <ele>400.3076171875</ele>
        <time>2017-09-01T18:37:42Z</time>
      </trkpt>
      <trkpt lat="45.77531" lon="4.68253">
        <ele>388.41333007812</ele>
        <time>2017-09-01T18:37:45Z</time>
      </trkpt>
      <trkpt lat="45.77497" lon="4.68265">
        <ele>384.85003662109</ele>
        <time>2017-09-01T18:38:14Z</time>
      </trkpt>
      <trkpt lat="45.77454" lon="4.68277">
        <ele>380.55630493164</ele>
        <time>2017-09-01T18:38:23Z</time>
      </trkpt>
      <trkpt lat="45.77454" lon="4.68277">
        <ele>380.55630493164</ele>
        <time>2017-09-01T18:38:35Z</time>
      </trkpt>
      <trkpt lat="45.77445" lon="4.68279">
        <ele>378.97521972656</ele>
        <time>2017-09-01T18:38:35Z</time>
      </trkpt>
      <trkpt lat="45.77426" lon="4.68268">
        <ele>379.48257446289</ele>
        <time>2017-09-01T18:38:37Z</time>
      </trkpt>
      <trkpt lat="45.77401" lon="4.68245">
        <ele>379.76638793945</ele>
        <time>2017-09-01T18:38:42Z</time>
      </trkpt>
      <trkpt lat="45.77387" lon="4.68227">
        <ele>378.33483886719</ele>
        <time>2017-09-01T18:38:50Z</time>
      </trkpt>
      <trkpt lat="45.77381" lon="4.68216">
        <ele>377.13821411133</ele>
        <time>2017-09-01T18:38:55Z</time>
      </trkpt>
      <trkpt lat="45.77372" lon="4.6819">
        <ele>377.18441772461</ele>
        <time>2017-09-01T18:38:58Z</time>
      </trkpt>
      <trkpt lat="45.77354" lon="4.68151">
        <ele>374.54040527344</ele>
        <time>2017-09-01T18:39:03Z</time>
      </trkpt>
      <trkpt lat="45.77329" lon="4.681">
        <ele>372.73101806641</ele>
        <time>2017-09-01T18:39:12Z</time>
      </trkpt>
      <trkpt lat="45.77297" lon="4.68058">
        <ele>369.90316772461</ele>
        <time>2017-09-01T18:39:24Z</time>
      </trkpt>
      <trkpt lat="45.77288" lon="4.68045">
        <ele>368.24588012695</ele>
        <time>2017-09-01T18:39:36Z</time>
      </trkpt>
      <trkpt lat="45.77276" lon="4.6801">
        <ele>363.92205810547</ele>
        <time>2017-09-01T18:39:39Z</time>
      </trkpt>
      <trkpt lat="45.77245" lon="4.67916">
        <ele>356.0524597168</ele>
        <time>2017-09-01T18:39:46Z</time>
      </trkpt>
      <trkpt lat="45.77239" lon="4.67896">
        <ele>355.31671142578</ele>
        <time>2017-09-01T18:40:05Z</time>
      </trkpt>
      <trkpt lat="45.77235" lon="4.67876">
        <ele>355.18408203125</ele>
        <time>2017-09-01T18:40:09Z</time>
      </trkpt>
      <trkpt lat="45.77232" lon="4.67845">
        <ele>355.26898193359</ele>
        <time>2017-09-01T18:40:13Z</time>
      </trkpt>
      <trkpt lat="45.77226" lon="4.67818">
        <ele>356.01019287109</ele>
        <time>2017-09-01T18:40:19Z</time>
      </trkpt>
      <trkpt lat="45.77216" lon="4.67782">
        <ele>358.50143432617</ele>
        <time>2017-09-01T18:40:24Z</time>
      </trkpt>
      <trkpt lat="45.77213" lon="4.67756">
        <ele>360.65740966797</ele>
        <time>2017-09-01T18:40:31Z</time>
      </trkpt>
      <trkpt lat="45.77209" lon="4.67723">
        <ele>364.05084228516</ele>
        <time>2017-09-01T18:40:36Z</time>
      </trkpt>
      <trkpt lat="45.77203" lon="4.67703">
        <ele>366.01718139648</ele>
        <time>2017-09-01T18:40:42Z</time>
      </trkpt>
      <trkpt lat="45.7717" lon="4.67589">
        <ele>373.4391784668</ele>
        <time>2017-09-01T18:40:46Z</time>
      </trkpt>
      <trkpt lat="45.77162" lon="4.67557">
        <ele>375.00588989258</ele>
        <time>2017-09-01T18:41:09Z</time>
      </trkpt>
      <trkpt lat="45.77162" lon="4.67557">
        <ele>375.00588989258</ele>
        <time>2017-09-01T18:41:15Z</time>
      </trkpt>
      <trkpt lat="45.77145" lon="4.67491">
        <ele>377.1672668457</ele>
        <time>2017-09-01T18:41:15Z</time>
      </trkpt>
      <trkpt lat="45.77139" lon="4.67462">
        <ele>378.74557495117</ele>
        <time>2017-09-01T18:41:28Z</time>
      </trkpt>
      <trkpt lat="45.77136" lon="4.67433">
        <ele>379.01895141602</ele>
        <time>2017-09-01T18:41:34Z</time>
      </trkpt>
      <trkpt lat="45.77136" lon="4.67393">
        <ele>379.68878173828</ele>
        <time>2017-09-01T18:41:39Z</time>
      </trkpt>
      <trkpt lat="45.77138" lon="4.67336">
        <ele>377.79635620117</ele>
        <time>2017-09-01T18:41:46Z</time>
      </trkpt>
      <trkpt lat="45.77141" lon="4.67227">
        <ele>373.26055908203</ele>
        <time>2017-09-01T18:41:57Z</time>
      </trkpt>
      <trkpt lat="45.77147" lon="4.67149">
        <ele>371.37295532227</ele>
        <time>2017-09-01T18:42:17Z</time>
      </trkpt>
      <trkpt lat="45.77152" lon="4.67114">
        <ele>371.4345703125</ele>
        <time>2017-09-01T18:42:32Z</time>
      </trkpt>
      <trkpt lat="45.77166" lon="4.67046">
        <ele>371.38482666016</ele>
        <time>2017-09-01T18:42:39Z</time>
      </trkpt>
      <trkpt lat="45.77179" lon="4.67">
        <ele>372.76651000977</ele>
        <time>2017-09-01T18:42:52Z</time>
      </trkpt>
      <trkpt lat="45.77217" lon="4.66891">
        <ele>375.35330200195</ele>
        <time>2017-09-01T18:43:01Z</time>
      </trkpt>
      <trkpt lat="45.77247" lon="4.66821">
        <ele>372.89053344727</ele>
        <time>2017-09-01T18:43:24Z</time>
      </trkpt>
      <trkpt lat="45.7725" lon="4.66799">
        <ele>373.20074462891</ele>
        <time>2017-09-01T18:43:39Z</time>
      </trkpt>
      <trkpt lat="45.77251" lon="4.66785">
        <ele>373.28729248047</ele>
        <time>2017-09-01T18:43:43Z</time>
      </trkpt>
      <trkpt lat="45.77258" lon="4.66784">
        <ele>374.32495117188</ele>
        <time>2017-09-01T18:43:46Z</time>
      </trkpt>
      <trkpt lat="45.77258" lon="4.66784">
        <ele>374.32495117188</ele>
        <time>2017-09-01T18:43:48Z</time>
      </trkpt>
      <trkpt lat="45.77284" lon="4.66781">
        <ele>379.77191162109</ele>
        <time>2017-09-01T18:43:48Z</time>
      </trkpt>
      <trkpt lat="45.77339" lon="4.66783">
        <ele>387.08996582031</ele>
        <time>2017-09-01T18:43:55Z</time>
      </trkpt>
      <trkpt lat="45.77372" lon="4.66779">
        <ele>391.61309814453</ele>
        <time>2017-09-01T18:44:10Z</time>
      </trkpt>
      <trkpt lat="45.77437" lon="4.66761">
        <ele>397.15747070312</ele>
        <time>2017-09-01T18:44:19Z</time>
      </trkpt>
      <trkpt lat="45.77461" lon="4.66756">
        <ele>399.22448730469</ele>
        <time>2017-09-01T18:44:37Z</time>
      </trkpt>
      <trkpt lat="45.77496" lon="4.66753">
        <ele>402.33337402344</ele>
        <time>2017-09-01T18:44:43Z</time>
      </trkpt>
      <trkpt lat="45.77516" lon="4.66756">
        <ele>403.84579467773</ele>
        <time>2017-09-01T18:44:52Z</time>
      </trkpt>
      <trkpt lat="45.77544" lon="4.66769">
        <ele>405.35217285156</ele>
        <time>2017-09-01T18:44:57Z</time>
      </trkpt>
      <trkpt lat="45.77564" lon="4.66785">
        <ele>406.73614501953</ele>
        <time>2017-09-01T18:45:05Z</time>
      </trkpt>
      <trkpt lat="45.7759" lon="4.668">
        <ele>409.11828613281</ele>
        <time>2017-09-01T18:45:11Z</time>
      </trkpt>
      <trkpt lat="45.77631" lon="4.66814">
        <ele>413.51388549805</ele>
        <time>2017-09-01T18:45:18Z</time>
      </trkpt>
      <trkpt lat="45.77655" lon="4.66828">
        <ele>416.9924621582</ele>
        <time>2017-09-01T18:45:29Z</time>
      </trkpt>
      <trkpt lat="45.77671" lon="4.66835">
        <ele>420.2467956543</ele>
        <time>2017-09-01T18:45:36Z</time>
      </trkpt>
      <trkpt lat="45.77695" lon="4.66838">
        <ele>423.64038085938</ele>
        <time>2017-09-01T18:45:40Z</time>
      </trkpt>
      <trkpt lat="45.77727" lon="4.66845">
        <ele>426.78103637695</ele>
        <time>2017-09-01T18:45:46Z</time>
      </trkpt>
      <trkpt lat="45.77746" lon="4.66855">
        <ele>427.44351196289</ele>
        <time>2017-09-01T18:45:55Z</time>
      </trkpt>
      <trkpt lat="45.77765" lon="4.66867">
        <ele>428.57186889648</ele>
        <time>2017-09-01T18:46:00Z</time>
      </trkpt>
      <trkpt lat="45.77767" lon="4.66866">
        <ele>428.65655517578</ele>
        <time>2017-09-01T18:46:06Z</time>
      </trkpt>
      <trkpt lat="45.77793" lon="4.66858">
        <ele>429.224609375</ele>
        <time>2017-09-01T18:46:07Z</time>
      </trkpt>
      <trkpt lat="45.77793" lon="4.66858">
        <ele>429.224609375</ele>
        <time>2017-09-01T18:46:14Z</time>
      </trkpt>
      <trkpt lat="45.77797" lon="4.66856">
        <ele>429.03759765625</ele>
        <time>2017-09-01T18:46:14Z</time>
      </trkpt>
      <trkpt lat="45.77799" lon="4.6685">
        <ele>429.18432617188</ele>
        <time>2017-09-01T18:46:15Z</time>
      </trkpt>
      <trkpt lat="45.77788" lon="4.66825">
        <ele>430.81466674805</ele>
        <time>2017-09-01T18:46:16Z</time>
      </trkpt>
      <trkpt lat="45.77788" lon="4.66825">
        <ele>430.81466674805</ele>
        <time>2017-09-01T18:46:22Z</time>
      </trkpt>
      <trkpt lat="45.77748" lon="4.66713">
        <ele>435.38684082031</ele>
        <time>2017-09-01T18:46:22Z</time>
      </trkpt>
      <trkpt lat="45.77699" lon="4.66537">
        <ele>436.79016113281</ele>
        <time>2017-09-01T18:46:45Z</time>
      </trkpt>
      <trkpt lat="45.77699" lon="4.66537">
        <ele>436.79016113281</ele>
        <time>2017-09-01T18:47:20Z</time>
      </trkpt>
      <trkpt lat="45.77685" lon="4.66488">
        <ele>436.4677734375</ele>
        <time>2017-09-01T18:47:20Z</time>
      </trkpt>
      <trkpt lat="45.77676" lon="4.66446">
        <ele>434.33004760742</ele>
        <time>2017-09-01T18:47:30Z</time>
      </trkpt>
      <trkpt lat="45.77673" lon="4.66415">
        <ele>433.08187866211</ele>
        <time>2017-09-01T18:47:38Z</time>
      </trkpt>
      <trkpt lat="45.77678" lon="4.66335">
        <ele>430.94235229492</ele>
        <time>2017-09-01T18:47:44Z</time>
      </trkpt>
      <trkpt lat="45.77678" lon="4.66312">
        <ele>429.90707397461</ele>
        <time>2017-09-01T18:47:59Z</time>
      </trkpt>
      <trkpt lat="45.77674" lon="4.66297">
        <ele>429.90240478516</ele>
        <time>2017-09-01T18:48:03Z</time>
      </trkpt>
      <trkpt lat="45.77665" lon="4.66283">
        <ele>431.40948486328</ele>
        <time>2017-09-01T18:48:06Z</time>
      </trkpt>
      <trkpt lat="45.77654" lon="4.66277">
        <ele>432.95169067383</ele>
        <time>2017-09-01T18:48:10Z</time>
      </trkpt>
      <trkpt lat="45.7764" lon="4.66274">
        <ele>433.72451782227</ele>
        <time>2017-09-01T18:48:13Z</time>
      </trkpt>
      <trkpt lat="45.77597" lon="4.66278">
        <ele>437.23849487305</ele>
        <time>2017-09-01T18:48:17Z</time>
      </trkpt>
      <trkpt lat="45.77564" lon="4.66292">
        <ele>436.69345092773</ele>
        <time>2017-09-01T18:48:29Z</time>
      </trkpt>
      <trkpt lat="45.77531" lon="4.66308">
        <ele>436.13888549805</ele>
        <time>2017-09-01T18:48:38Z</time>
      </trkpt>
      <trkpt lat="45.77513" lon="4.66313">
        <ele>433.84085083008</ele>
        <time>2017-09-01T18:48:47Z</time>
      </trkpt>
      <trkpt lat="45.77494" lon="4.66313">
        <ele>433.66793823242</ele>
        <time>2017-09-01T18:48:52Z</time>
      </trkpt>
      <trkpt lat="45.77477" lon="4.66308">
        <ele>432.14691162109</ele>
        <time>2017-09-01T18:48:57Z</time>
      </trkpt>
      <trkpt lat="45.77456" lon="4.66293">
        <ele>431.56903076172</ele>
        <time>2017-09-01T18:49:02Z</time>
      </trkpt>
      <trkpt lat="45.77438" lon="4.66278">
        <ele>430.7721862793</ele>
        <time>2017-09-01T18:49:08Z</time>
      </trkpt>
      <trkpt lat="45.77426" lon="4.66264">
        <ele>430.04956054688</ele>
        <time>2017-09-01T18:49:14Z</time>
      </trkpt>
      <trkpt lat="45.77407" lon="4.66229">
        <ele>429.1071472168</ele>
        <time>2017-09-01T18:49:18Z</time>
      </trkpt>
      <trkpt lat="45.77391" lon="4.66177">
        <ele>429.40667724609</ele>
        <time>2017-09-01T18:49:26Z</time>
      </trkpt>
      <trkpt lat="45.77354" lon="4.66035">
        <ele>426.37640380859</ele>
        <time>2017-09-01T18:49:37Z</time>
      </trkpt>
      <trkpt lat="45.77352" lon="4.66047">
        <ele>426.11032104492</ele>
        <time>2017-09-01T18:50:05Z</time>
      </trkpt>
      <trkpt lat="45.77349" lon="4.66056">
        <ele>425.67034912109</ele>
        <time>2017-09-01T18:50:07Z</time>
      </trkpt>
      <trkpt lat="45.77338" lon="4.66075">
        <ele>422.4814453125</ele>
        <time>2017-09-01T18:50:09Z</time>
      </trkpt>
      <trkpt lat="45.77336" lon="4.66088">
        <ele>421.92413330078</ele>
        <time>2017-09-01T18:50:14Z</time>
      </trkpt>
      <trkpt lat="45.77346" lon="4.66142">
        <ele>423.67510986328</ele>
        <time>2017-09-01T18:50:16Z</time>
      </trkpt>
      <trkpt lat="45.77347" lon="4.66158">
        <ele>423.35205078125</ele>
        <time>2017-09-01T18:50:26Z</time>
      </trkpt>
      <trkpt lat="45.77345" lon="4.6621">
        <ele>419.6389465332</ele>
        <time>2017-09-01T18:50:29Z</time>
      </trkpt>
      <trkpt lat="45.77348" lon="4.66218">
        <ele>419.82043457031</ele>
        <time>2017-09-01T18:50:39Z</time>
      </trkpt>
      <trkpt lat="45.77355" lon="4.66228">
        <ele>420.55563354492</ele>
        <time>2017-09-01T18:50:41Z</time>
      </trkpt>
      <trkpt lat="45.7737" lon="4.66241">
        <ele>422.32424926758</ele>
        <time>2017-09-01T18:50:44Z</time>
      </trkpt>
      <trkpt lat="45.77376" lon="4.66255">
        <ele>421.60159301758</ele>
        <time>2017-09-01T18:50:49Z</time>
      </trkpt>
      <trkpt lat="45.77381" lon="4.66283">
        <ele>419.25189208984</ele>
        <time>2017-09-01T18:50:52Z</time>
      </trkpt>
      <trkpt lat="45.77391" lon="4.6631">
        <ele>418.3669128418</ele>
        <time>2017-09-01T18:50:57Z</time>
      </trkpt>
      <trkpt lat="45.77395" lon="4.66319">
        <ele>418.57006835938</ele>
        <time>2017-09-01T18:51:03Z</time>
      </trkpt>
      <trkpt lat="45.77394" lon="4.66325">
        <ele>417.44122314453</ele>
        <time>2017-09-01T18:51:05Z</time>
      </trkpt>
      <trkpt lat="45.77394" lon="4.66325">
        <ele>417.44122314453</ele>
        <time>2017-09-01T18:51:06Z</time>
      </trkpt>
      <trkpt lat="45.77395" lon="4.66319">
        <ele>418.57006835938</ele>
        <time>2017-09-01T18:51:06Z</time>
      </trkpt>
      <trkpt lat="45.77391" lon="4.6631">
        <ele>418.3669128418</ele>
        <time>2017-09-01T18:51:07Z</time>
      </trkpt>
      <trkpt lat="45.77381" lon="4.66283">
        <ele>419.25189208984</ele>
        <time>2017-09-01T18:51:09Z</time>
      </trkpt>
      <trkpt lat="45.77376" lon="4.66255">
        <ele>421.60159301758</ele>
        <time>2017-09-01T18:51:15Z</time>
      </trkpt>
      <trkpt lat="45.7737" lon="4.66241">
        <ele>422.32424926758</ele>
        <time>2017-09-01T18:51:20Z</time>
      </trkpt>
      <trkpt lat="45.77355" lon="4.66228">
        <ele>420.55563354492</ele>
        <time>2017-09-01T18:51:23Z</time>
      </trkpt>
      <trkpt lat="45.77348" lon="4.66218">
        <ele>419.82043457031</ele>
        <time>2017-09-01T18:51:28Z</time>
      </trkpt>
      <trkpt lat="45.77345" lon="4.6621">
        <ele>419.6389465332</ele>
        <time>2017-09-01T18:51:31Z</time>
      </trkpt>
      <trkpt lat="45.77347" lon="4.66158">
        <ele>423.35205078125</ele>
        <time>2017-09-01T18:51:33Z</time>
      </trkpt>
      <trkpt lat="45.77346" lon="4.66142">
        <ele>423.67510986328</ele>
        <time>2017-09-01T18:51:43Z</time>
      </trkpt>
      <trkpt lat="45.77337" lon="4.661">
        <ele>422.19940185547</ele>
        <time>2017-09-01T18:51:46Z</time>
      </trkpt>
      <trkpt lat="45.77336" lon="4.66088">
        <ele>421.92413330078</ele>
        <time>2017-09-01T18:51:54Z</time>
      </trkpt>
      <trkpt lat="45.77338" lon="4.66075">
        <ele>422.4814453125</ele>
        <time>2017-09-01T18:51:56Z</time>
      </trkpt>
      <trkpt lat="45.77349" lon="4.66056">
        <ele>425.67034912109</ele>
        <time>2017-09-01T18:51:58Z</time>
      </trkpt>
      <trkpt lat="45.77352" lon="4.66047">
        <ele>426.11032104492</ele>
        <time>2017-09-01T18:52:03Z</time>
      </trkpt>
      <trkpt lat="45.77354" lon="4.66035">
        <ele>426.37640380859</ele>
        <time>2017-09-01T18:52:05Z</time>
      </trkpt>
      <trkpt lat="45.77353" lon="4.66029">
        <ele>426.35290527344</ele>
        <time>2017-09-01T18:52:07Z</time>
      </trkpt>
      <trkpt lat="45.77353" lon="4.66029">
        <ele>426.35290527344</ele>
        <time>2017-09-01T18:52:08Z</time>
      </trkpt>
      <trkpt lat="45.77341" lon="4.65992">
        <ele>425.47866821289</ele>
        <time>2017-09-01T18:52:08Z</time>
      </trkpt>
      <trkpt lat="45.77334" lon="4.65981">
        <ele>425.43054199219</ele>
        <time>2017-09-01T18:52:16Z</time>
      </trkpt>
      <trkpt lat="45.77322" lon="4.65973">
        <ele>425.41952514648</ele>
        <time>2017-09-01T18:52:19Z</time>
      </trkpt>
      <trkpt lat="45.77315" lon="4.65972">
        <ele>425.48101806641</ele>
        <time>2017-09-01T18:52:23Z</time>
      </trkpt>
      <trkpt lat="45.77315" lon="4.65966">
        <ele>427.28164672852</ele>
        <time>2017-09-01T18:52:25Z</time>
      </trkpt>
      <trkpt lat="45.773" lon="4.6596">
        <ele>429.60552978516</ele>
        <time>2017-09-01T18:52:26Z</time>
      </trkpt>
      <trkpt lat="45.77288" lon="4.65952">
        <ele>430.2727355957</ele>
        <time>2017-09-01T18:52:30Z</time>
      </trkpt>
      <trkpt lat="45.77273" lon="4.65935">
        <ele>433.1930847168</ele>
        <time>2017-09-01T18:52:34Z</time>
      </trkpt>
      <trkpt lat="45.77262" lon="4.65888">
        <ele>435.55017089844</ele>
        <time>2017-09-01T18:52:39Z</time>
      </trkpt>
      <trkpt lat="45.77262" lon="4.65854">
        <ele>438.57940673828</ele>
        <time>2017-09-01T18:52:48Z</time>
      </trkpt>
      <trkpt lat="45.7726" lon="4.65852">
        <ele>438.51104736328</ele>
        <time>2017-09-01T18:52:54Z</time>
      </trkpt>
      <trkpt lat="45.77255" lon="4.65853">
        <ele>437.6584777832</ele>
        <time>2017-09-01T18:52:55Z</time>
      </trkpt>
      <trkpt lat="45.77232" lon="4.6587">
        <ele>432.04339599609</ele>
        <time>2017-09-01T18:52:56Z</time>
      </trkpt>
      <trkpt lat="45.77225" lon="4.65867">
        <ele>430.90380859375</ele>
        <time>2017-09-01T18:53:03Z</time>
      </trkpt>
      <trkpt lat="45.77202" lon="4.6583">
        <ele>426.01168823242</ele>
        <time>2017-09-01T18:53:05Z</time>
      </trkpt>
      <trkpt lat="45.77189" lon="4.65826">
        <ele>423.10705566406</ele>
        <time>2017-09-01T18:53:14Z</time>
      </trkpt>
      <trkpt lat="45.77185" lon="4.65821">
        <ele>421.86822509766</ele>
        <time>2017-09-01T18:53:18Z</time>
      </trkpt>
      <trkpt lat="45.7718" lon="4.65801">
        <ele>421.00451660156</ele>
        <time>2017-09-01T18:53:19Z</time>
      </trkpt>
      <trkpt lat="45.77172" lon="4.65753">
        <ele>416.92544555664</ele>
        <time>2017-09-01T18:53:23Z</time>
      </trkpt>
      <trkpt lat="45.77167" lon="4.65741">
        <ele>415.81793212891</ele>
        <time>2017-09-01T18:53:32Z</time>
      </trkpt>
      <trkpt lat="45.77162" lon="4.6574">
        <ele>414.90545654297</ele>
        <time>2017-09-01T18:53:35Z</time>
      </trkpt>
      <trkpt lat="45.77149" lon="4.65758">
        <ele>412.22317504883</ele>
        <time>2017-09-01T18:53:36Z</time>
      </trkpt>
      <trkpt lat="45.77139" lon="4.65792">
        <ele>410.22250366211</ele>
        <time>2017-09-01T18:53:41Z</time>
      </trkpt>
      <trkpt lat="45.77136" lon="4.65796">
        <ele>409.59039306641</ele>
        <time>2017-09-01T18:53:48Z</time>
      </trkpt>
      <trkpt lat="45.77134" lon="4.65797">
        <ele>409.25219726562</ele>
        <time>2017-09-01T18:53:49Z</time>
      </trkpt>
      <trkpt lat="45.77134" lon="4.65797">
        <ele>409.25219726562</ele>
        <time>2017-09-01T18:53:50Z</time>
      </trkpt>
      <trkpt lat="45.77128" lon="4.65801">
        <ele>408.39077758789</ele>
        <time>2017-09-01T18:53:50Z</time>
      </trkpt>
      <trkpt lat="45.77126" lon="4.65799">
        <ele>408.55935668945</ele>
        <time>2017-09-01T18:53:52Z</time>
      </trkpt>
      <trkpt lat="45.77118" lon="4.65794">
        <ele>408.67736816406</ele>
        <time>2017-09-01T18:53:53Z</time>
      </trkpt>
      <trkpt lat="45.77105" lon="4.65792">
        <ele>407.96981811523</ele>
        <time>2017-09-01T18:53:55Z</time>
      </trkpt>
      <trkpt lat="45.77103" lon="4.6579">
        <ele>408.59063720703</ele>
        <time>2017-09-01T18:53:58Z</time>
      </trkpt>
      <trkpt lat="45.77103" lon="4.65772">
        <ele>411.71685791016</ele>
        <time>2017-09-01T18:53:59Z</time>
      </trkpt>
      <trkpt lat="45.77111" lon="4.65739">
        <ele>413.31784057617</ele>
        <time>2017-09-01T18:54:02Z</time>
      </trkpt>
      <trkpt lat="45.77113" lon="4.65724">
        <ele>414.2721862793</ele>
        <time>2017-09-01T18:54:09Z</time>
      </trkpt>
      <trkpt lat="45.77111" lon="4.65711">
        <ele>415.80392456055</ele>
        <time>2017-09-01T18:54:12Z</time>
      </trkpt>
      <trkpt lat="45.77117" lon="4.65668">
        <ele>420.02716064453</ele>
        <time>2017-09-01T18:54:14Z</time>
      </trkpt>
      <trkpt lat="45.77128" lon="4.65607">
        <ele>422.33087158203</ele>
        <time>2017-09-01T18:54:22Z</time>
      </trkpt>
      <trkpt lat="45.77139" lon="4.65541">
        <ele>426.79943847656</ele>
        <time>2017-09-01T18:54:34Z</time>
      </trkpt>
      <trkpt lat="45.77161" lon="4.65454">
        <ele>435.56820678711</ele>
        <time>2017-09-01T18:54:47Z</time>
      </trkpt>
      <trkpt lat="45.77179" lon="4.65412">
        <ele>435.43948364258</ele>
        <time>2017-09-01T18:55:04Z</time>
      </trkpt>
      <trkpt lat="45.77179" lon="4.65412">
        <ele>435.43948364258</ele>
        <time>2017-09-01T18:55:13Z</time>
      </trkpt>
      <trkpt lat="45.77187" lon="4.65412">
        <ele>432.94879150391</ele>
        <time>2017-09-01T18:55:13Z</time>
      </trkpt>
      <trkpt lat="45.77218" lon="4.65354">
        <ele>444.26913452148</ele>
        <time>2017-09-01T18:55:15Z</time>
      </trkpt>
      <trkpt lat="45.77234" lon="4.65328">
        <ele>447.12313842773</ele>
        <time>2017-09-01T18:55:29Z</time>
      </trkpt>
      <trkpt lat="45.77242" lon="4.65311">
        <ele>447.8928527832</ele>
        <time>2017-09-01T18:55:35Z</time>
      </trkpt>
      <trkpt lat="45.77264" lon="4.65263">
        <ele>450.78530883789</ele>
        <time>2017-09-01T18:55:39Z</time>
      </trkpt>
      <trkpt lat="45.77312" lon="4.65181">
        <ele>454.92114257812</ele>
        <time>2017-09-01T18:55:50Z</time>
      </trkpt>
      <trkpt lat="45.77328" lon="4.65158">
        <ele>457.11044311523</ele>
        <time>2017-09-01T18:56:10Z</time>
      </trkpt>
      <trkpt lat="45.77346" lon="4.65122">
        <ele>459.04971313477</ele>
        <time>2017-09-01T18:56:16Z</time>
      </trkpt>
      <trkpt lat="45.7736" lon="4.651">
        <ele>458.74490356445</ele>
        <time>2017-09-01T18:56:24Z</time>
      </trkpt>
      <trkpt lat="45.77373" lon="4.65083">
        <ele>454.30505371094</ele>
        <time>2017-09-01T18:56:30Z</time>
      </trkpt>
      <trkpt lat="45.77389" lon="4.6506">
        <ele>458.02603149414</ele>
        <time>2017-09-01T18:56:35Z</time>
      </trkpt>
      <trkpt lat="45.774" lon="4.65051">
        <ele>459.59802246094</ele>
        <time>2017-09-01T18:56:41Z</time>
      </trkpt>
      <trkpt lat="45.77411" lon="4.65046">
        <ele>462.35708618164</ele>
        <time>2017-09-01T18:56:44Z</time>
      </trkpt>
      <trkpt lat="45.77423" lon="4.65043">
        <ele>462.05541992188</ele>
        <time>2017-09-01T18:56:47Z</time>
      </trkpt>
      <trkpt lat="45.77424" lon="4.65039">
        <ele>462.86975097656</ele>
        <time>2017-09-01T18:56:50Z</time>
      </trkpt>
      <trkpt lat="45.77422" lon="4.65025">
        <ele>464.97909545898</ele>
        <time>2017-09-01T18:56:51Z</time>
      </trkpt>
      <trkpt lat="45.77424" lon="4.6501">
        <ele>465.70568847656</ele>
        <time>2017-09-01T18:56:54Z</time>
      </trkpt>
      <trkpt lat="45.77437" lon="4.64967">
        <ele>465.86892700195</ele>
        <time>2017-09-01T18:56:57Z</time>
      </trkpt>
      <trkpt lat="45.77446" lon="4.64937">
        <ele>467.91906738281</ele>
        <time>2017-09-01T18:57:06Z</time>
      </trkpt>
      <trkpt lat="45.77456" lon="4.64905">
        <ele>471.43466186523</ele>
        <time>2017-09-01T18:57:12Z</time>
      </trkpt>
      <trkpt lat="45.77472" lon="4.64873">
        <ele>474.37106323242</ele>
        <time>2017-09-01T18:57:19Z</time>
      </trkpt>
      <trkpt lat="45.77482" lon="4.64853">
        <ele>476.6086730957</ele>
        <time>2017-09-01T18:57:26Z</time>
      </trkpt>
      <trkpt lat="45.77488" lon="4.64817">
        <ele>481.48626708984</ele>
        <time>2017-09-01T18:57:31Z</time>
      </trkpt>
      <trkpt lat="45.7749" lon="4.64788">
        <ele>484.07922363281</ele>
        <time>2017-09-01T18:57:38Z</time>
      </trkpt>
      <trkpt lat="45.77487" lon="4.64768">
        <ele>484.67300415039</ele>
        <time>2017-09-01T18:57:43Z</time>
      </trkpt>
      <trkpt lat="45.77477" lon="4.64741">
        <ele>485.9892578125</ele>
        <time>2017-09-01T18:57:47Z</time>
      </trkpt>
      <trkpt lat="45.77463" lon="4.6472">
        <ele>487.1653137207</ele>
        <time>2017-09-01T18:57:53Z</time>
      </trkpt>
      <trkpt lat="45.77451" lon="4.64696">
        <ele>489.6071472168</ele>
        <time>2017-09-01T18:57:58Z</time>
      </trkpt>
      <trkpt lat="45.77448" lon="4.64674">
        <ele>491.08081054688</ele>
        <time>2017-09-01T18:58:04Z</time>
      </trkpt>
      <trkpt lat="45.77448" lon="4.64638">
        <ele>493.62173461914</ele>
        <time>2017-09-01T18:58:08Z</time>
      </trkpt>
      <trkpt lat="45.77457" lon="4.64572">
        <ele>499.79241943359</ele>
        <time>2017-09-01T18:58:15Z</time>
      </trkpt>
      <trkpt lat="45.77462" lon="4.64552">
        <ele>503.55178833008</ele>
        <time>2017-09-01T18:58:28Z</time>
      </trkpt>
      <trkpt lat="45.7747" lon="4.64535">
        <ele>503.96832275391</ele>
        <time>2017-09-01T18:58:32Z</time>
      </trkpt>
      <trkpt lat="45.77483" lon="4.64517">
        <ele>506.63278198242</ele>
        <time>2017-09-01T18:58:36Z</time>
      </trkpt>
      <trkpt lat="45.77505" lon="4.64485">
        <ele>511.30139160156</ele>
        <time>2017-09-01T18:58:41Z</time>
      </trkpt>
      <trkpt lat="45.77512" lon="4.64463">
        <ele>514.40734863281</ele>
        <time>2017-09-01T18:58:49Z</time>
      </trkpt>
      <trkpt lat="45.77522" lon="4.6443">
        <ele>515.20770263672</ele>
        <time>2017-09-01T18:58:54Z</time>
      </trkpt>
      <trkpt lat="45.77534" lon="4.64416">
        <ele>520.72955322266</ele>
        <time>2017-09-01T18:59:01Z</time>
      </trkpt>
      <trkpt lat="45.77549" lon="4.64403">
        <ele>524.77789306641</ele>
        <time>2017-09-01T18:59:05Z</time>
      </trkpt>
      <trkpt lat="45.77554" lon="4.64396">
        <ele>525.81958007812</ele>
        <time>2017-09-01T18:59:10Z</time>
      </trkpt>
      <trkpt lat="45.77554" lon="4.64396">
        <ele>525.81958007812</ele>
        <time>2017-09-01T18:59:12Z</time>
      </trkpt>
      <trkpt lat="45.77534" lon="4.64359">
        <ele>524.50555419922</ele>
        <time>2017-09-01T18:59:12Z</time>
      </trkpt>
      <trkpt lat="45.77527" lon="4.64355">
        <ele>524.59094238281</ele>
        <time>2017-09-01T18:59:21Z</time>
      </trkpt>
      <trkpt lat="45.77521" lon="4.64356">
        <ele>522.92858886719</ele>
        <time>2017-09-01T18:59:23Z</time>
      </trkpt>
      <trkpt lat="45.77514" lon="4.64359">
        <ele>520.64978027344</ele>
        <time>2017-09-01T18:59:25Z</time>
      </trkpt>
      <trkpt lat="45.77476" lon="4.64392">
        <ele>526.27984619141</ele>
        <time>2017-09-01T18:59:27Z</time>
      </trkpt>
      <trkpt lat="45.77435" lon="4.6444">
        <ele>535.90631103516</ele>
        <time>2017-09-01T18:59:39Z</time>
      </trkpt>
      <trkpt lat="45.77394" lon="4.64487">
        <ele>531.23480224609</ele>
        <time>2017-09-01T18:59:53Z</time>
      </trkpt>
      <trkpt lat="45.7738" lon="4.64496">
        <ele>528.56890869141</ele>
        <time>2017-09-01T19:00:07Z</time>
      </trkpt>
      <trkpt lat="45.77378" lon="4.64498">
        <ele>527.75018310547</ele>
        <time>2017-09-01T19:00:11Z</time>
      </trkpt>
      <trkpt lat="45.77373" lon="4.64498">
        <ele>525.93878173828</ele>
        <time>2017-09-01T19:00:12Z</time>
      </trkpt>
      <trkpt lat="45.77374" lon="4.64501">
        <ele>526.27215576172</ele>
        <time>2017-09-01T19:00:13Z</time>
      </trkpt>
      <trkpt lat="45.7737" lon="4.64509">
        <ele>524.72625732422</ele>
        <time>2017-09-01T19:00:14Z</time>
      </trkpt>
      <trkpt lat="45.77367" lon="4.64517">
        <ele>524.94976806641</ele>
        <time>2017-09-01T19:00:16Z</time>
      </trkpt>
      <trkpt lat="45.7736" lon="4.64521">
        <ele>524.47302246094</ele>
        <time>2017-09-01T19:00:18Z</time>
      </trkpt>
      <trkpt lat="45.77348" lon="4.64528">
        <ele>523.50329589844</ele>
        <time>2017-09-01T19:00:20Z</time>
      </trkpt>
      <trkpt lat="45.77329" lon="4.64532">
        <ele>523.10559082031</ele>
        <time>2017-09-01T19:00:23Z</time>
      </trkpt>
      <trkpt lat="45.77313" lon="4.64531">
        <ele>525.03582763672</ele>
        <time>2017-09-01T19:00:28Z</time>
      </trkpt>
      <trkpt lat="45.77302" lon="4.64535">
        <ele>525.93762207031</ele>
        <time>2017-09-01T19:00:32Z</time>
      </trkpt>
      <trkpt lat="45.77292" lon="4.64536">
        <ele>527.25988769531</ele>
        <time>2017-09-01T19:00:35Z</time>
      </trkpt>
      <trkpt lat="45.77284" lon="4.64533">
        <ele>528.54058837891</ele>
        <time>2017-09-01T19:00:38Z</time>
      </trkpt>
      <trkpt lat="45.77257" lon="4.64514">
        <ele>532.33361816406</ele>
        <time>2017-09-01T19:00:40Z</time>
      </trkpt>
      <trkpt lat="45.7725" lon="4.64513">
        <ele>531.96197509766</ele>
        <time>2017-09-01T19:00:48Z</time>
      </trkpt>
      <trkpt lat="45.77247" lon="4.64518">
        <ele>530.54510498047</ele>
        <time>2017-09-01T19:00:50Z</time>
      </trkpt>
      <trkpt lat="45.77251" lon="4.64544">
        <ele>524.94299316406</ele>
        <time>2017-09-01T19:00:51Z</time>
      </trkpt>
      <trkpt lat="45.77259" lon="4.64578">
        <ele>528.04223632812</ele>
        <time>2017-09-01T19:00:56Z</time>
      </trkpt>
      <trkpt lat="45.77261" lon="4.64602">
        <ele>525.76013183594</ele>
        <time>2017-09-01T19:01:03Z</time>
      </trkpt>
      <trkpt lat="45.77252" lon="4.64676">
        <ele>521.46795654297</ele>
        <time>2017-09-01T19:01:08Z</time>
      </trkpt>
      <trkpt lat="45.77234" lon="4.64724">
        <ele>515.85266113281</ele>
        <time>2017-09-01T19:01:22Z</time>
      </trkpt>
      <trkpt lat="45.77217" lon="4.64746">
        <ele>517.57678222656</ele>
        <time>2017-09-01T19:01:32Z</time>
      </trkpt>
      <trkpt lat="45.772" lon="4.64758">
        <ele>514.08441162109</ele>
        <time>2017-09-01T19:01:38Z</time>
      </trkpt>
      <trkpt lat="45.77181" lon="4.64761">
        <ele>513.19415283203</ele>
        <time>2017-09-01T19:01:43Z</time>
      </trkpt>
      <trkpt lat="45.7717" lon="4.64759">
        <ele>513.13671875</ele>
        <time>2017-09-01T19:01:48Z</time>
      </trkpt>
      <trkpt lat="45.77148" lon="4.64747">
        <ele>511.29583740234</ele>
        <time>2017-09-01T19:01:51Z</time>
      </trkpt>
      <trkpt lat="45.77137" lon="4.64739">
        <ele>507.13290405273</ele>
        <time>2017-09-01T19:01:57Z</time>
      </trkpt>
      <trkpt lat="45.77115" lon="4.64732">
        <ele>508.6891784668</ele>
        <time>2017-09-01T19:02:00Z</time>
      </trkpt>
      <trkpt lat="45.77103" lon="4.64742">
        <ele>517.12506103516</ele>
        <time>2017-09-01T19:02:06Z</time>
      </trkpt>
      <trkpt lat="45.77089" lon="4.64765">
        <ele>521.00512695312</ele>
        <time>2017-09-01T19:02:10Z</time>
      </trkpt>
      <trkpt lat="45.77079" lon="4.64793">
        <ele>521.29083251953</ele>
        <time>2017-09-01T19:02:16Z</time>
      </trkpt>
      <trkpt lat="45.77073" lon="4.64823">
        <ele>519.37457275391</ele>
        <time>2017-09-01T19:02:22Z</time>
      </trkpt>
      <trkpt lat="45.77059" lon="4.64914">
        <ele>514.20227050781</ele>
        <time>2017-09-01T19:02:28Z</time>
      </trkpt>
      <trkpt lat="45.77053" lon="4.64933">
        <ele>509.02166748047</ele>
        <time>2017-09-01T19:02:45Z</time>
      </trkpt>
      <trkpt lat="45.77045" lon="4.64951">
        <ele>508.71667480469</ele>
        <time>2017-09-01T19:02:49Z</time>
      </trkpt>
      <trkpt lat="45.77029" lon="4.64976">
        <ele>507.08099365234</ele>
        <time>2017-09-01T19:02:53Z</time>
      </trkpt>
      <trkpt lat="45.77017" lon="4.64993">
        <ele>505.40093994141</ele>
        <time>2017-09-01T19:02:59Z</time>
      </trkpt>
      <trkpt lat="45.77017" lon="4.64993">
        <ele>505.40093994141</ele>
        <time>2017-09-01T19:03:04Z</time>
      </trkpt>
      <trkpt lat="45.77009" lon="4.64991">
        <ele>505.43380737305</ele>
        <time>2017-09-01T19:03:04Z</time>
      </trkpt>
      <trkpt lat="45.77" lon="4.64978">
        <ele>506.54446411133</ele>
        <time>2017-09-01T19:03:06Z</time>
      </trkpt>
      <trkpt lat="45.76988" lon="4.64947">
        <ele>509.5026550293</ele>
        <time>2017-09-01T19:03:09Z</time>
      </trkpt>
      <trkpt lat="45.76982" lon="4.64924">
        <ele>511.99942016602</ele>
        <time>2017-09-01T19:03:16Z</time>
      </trkpt>
      <trkpt lat="45.76976" lon="4.64897">
        <ele>515.16424560547</ele>
        <time>2017-09-01T19:03:21Z</time>
      </trkpt>
      <trkpt lat="45.76976" lon="4.64897">
        <ele>515.16424560547</ele>
        <time>2017-09-01T19:03:26Z</time>
      </trkpt>
      <trkpt lat="45.76961" lon="4.64825">
        <ele>532.06481933594</ele>
        <time>2017-09-01T19:03:26Z</time>
      </trkpt>
      <trkpt lat="45.76946" lon="4.64792">
        <ele>537.80096435547</ele>
        <time>2017-09-01T19:03:40Z</time>
      </trkpt>
      <trkpt lat="45.7694" lon="4.64769">
        <ele>539.34936523438</ele>
        <time>2017-09-01T19:03:47Z</time>
      </trkpt>
      <trkpt lat="45.76939" lon="4.64759">
        <ele>540.20581054688</ele>
        <time>2017-09-01T19:03:52Z</time>
      </trkpt>
      <trkpt lat="45.76939" lon="4.64759">
        <ele>540.20581054688</ele>
        <time>2017-09-01T19:03:54Z</time>
      </trkpt>
      <trkpt lat="45.76958" lon="4.64724">
        <ele>542.40557861328</ele>
        <time>2017-09-01T19:03:54Z</time>
      </trkpt>
      <trkpt lat="45.7697" lon="4.64694">
        <ele>548.77178955078</ele>
        <time>2017-09-01T19:04:02Z</time>
      </trkpt>
      <trkpt lat="45.76991" lon="4.64647">
        <ele>553.78820800781</ele>
        <time>2017-09-01T19:04:08Z</time>
      </trkpt>
      <trkpt lat="45.77034" lon="4.64573">
        <ele>567.96508789062</ele>
        <time>2017-09-01T19:04:18Z</time>
      </trkpt>
      <trkpt lat="45.77055" lon="4.64534">
        <ele>577.02807617188</ele>
        <time>2017-09-01T19:04:36Z</time>
      </trkpt>
      <trkpt lat="45.77068" lon="4.64516">
        <ele>582.21917724609</ele>
        <time>2017-09-01T19:04:45Z</time>
      </trkpt>
      <trkpt lat="45.77081" lon="4.645">
        <ele>582.30883789062</ele>
        <time>2017-09-01T19:04:50Z</time>
      </trkpt>
      <trkpt lat="45.77092" lon="4.64472">
        <ele>583.23693847656</ele>
        <time>2017-09-01T19:04:55Z</time>
      </trkpt>
      <trkpt lat="45.77095" lon="4.64463">
        <ele>585.25</ele>
        <time>2017-09-01T19:05:01Z</time>
      </trkpt>
      <trkpt lat="45.77095" lon="4.64463">
        <ele>585.25</ele>
        <time>2017-09-01T19:05:03Z</time>
      </trkpt>
      <trkpt lat="45.77092" lon="4.64472">
        <ele>583.23693847656</ele>
        <time>2017-09-01T19:05:03Z</time>
      </trkpt>
      <trkpt lat="45.77085" lon="4.64454">
        <ele>591.09814453125</ele>
        <time>2017-09-01T19:05:05Z</time>
      </trkpt>
      <trkpt lat="45.77057" lon="4.64404">
        <ele>604.74194335938</ele>
        <time>2017-09-01T19:05:09Z</time>
      </trkpt>
      <trkpt lat="45.77047" lon="4.64381">
        <ele>608.03540039062</ele>
        <time>2017-09-01T19:05:21Z</time>
      </trkpt>
      <trkpt lat="45.77039" lon="4.6436">
        <ele>610.11389160156</ele>
        <time>2017-09-01T19:05:26Z</time>
      </trkpt>
      <trkpt lat="45.77039" lon="4.6436">
        <ele>610.11389160156</ele>
        <time>2017-09-01T19:05:30Z</time>
      </trkpt>
      <trkpt lat="45.77025" lon="4.64354">
        <ele>611.72839355469</ele>
        <time>2017-09-01T19:05:30Z</time>
      </trkpt>
      <trkpt lat="45.77009" lon="4.64342">
        <ele>613.10321044922</ele>
        <time>2017-09-01T19:05:34Z</time>
      </trkpt>
      <trkpt lat="45.76984" lon="4.64313">
        <ele>618.40020751953</ele>
        <time>2017-09-01T19:05:39Z</time>
      </trkpt>
      <trkpt lat="45.76958" lon="4.64268">
        <ele>621.90051269531</ele>
        <time>2017-09-01T19:05:48Z</time>
      </trkpt>
      <trkpt lat="45.76934" lon="4.64237">
        <ele>625.91802978516</ele>
        <time>2017-09-01T19:05:59Z</time>
      </trkpt>
      <trkpt lat="45.76934" lon="4.64237">
        <ele>625.91802978516</ele>
        <time>2017-09-01T19:06:08Z</time>
      </trkpt>
      <trkpt lat="45.76901" lon="4.64208">
        <ele>627.82269287109</ele>
        <time>2017-09-01T19:06:08Z</time>
      </trkpt>
      <trkpt lat="45.76869" lon="4.64188">
        <ele>631.5791015625</ele>
        <time>2017-09-01T19:06:18Z</time>
      </trkpt>
      <trkpt lat="45.76864" lon="4.64184">
        <ele>631.76391601562</ele>
        <time>2017-09-01T19:06:27Z</time>
      </trkpt>
      <trkpt lat="45.76862" lon="4.6419">
        <ele>630.86419677734</ele>
        <time>2017-09-01T19:06:29Z</time>
      </trkpt>
      <trkpt lat="45.76862" lon="4.6419">
        <ele>630.86419677734</ele>
        <time>2017-09-01T19:06:30Z</time>
      </trkpt>
      <trkpt lat="45.76864" lon="4.64184">
        <ele>631.76391601562</ele>
        <time>2017-09-01T19:06:30Z</time>
      </trkpt>
      <trkpt lat="45.76865" lon="4.6416">
        <ele>635.48217773438</ele>
        <time>2017-09-01T19:06:31Z</time>
      </trkpt>
      <trkpt lat="45.76865" lon="4.64134">
        <ele>637.67980957031</ele>
        <time>2017-09-01T19:06:35Z</time>
      </trkpt>
      <trkpt lat="45.76865" lon="4.64134">
        <ele>637.67980957031</ele>
        <time>2017-09-01T19:06:40Z</time>
      </trkpt>
      <trkpt lat="45.7686" lon="4.64059">
        <ele>648.60943603516</ele>
        <time>2017-09-01T19:06:40Z</time>
      </trkpt>
      <trkpt lat="45.7686" lon="4.64007">
        <ele>658.16229248047</ele>
        <time>2017-09-01T19:06:54Z</time>
      </trkpt>
      <trkpt lat="45.76862" lon="4.63965">
        <ele>668.15887451172</ele>
        <time>2017-09-01T19:07:04Z</time>
      </trkpt>
      <trkpt lat="45.76867" lon="4.6393">
        <ele>677.38543701172</ele>
        <time>2017-09-01T19:07:12Z</time>
      </trkpt>
      <trkpt lat="45.76857" lon="4.63899">
        <ele>681.57891845703</ele>
        <time>2017-09-01T19:07:19Z</time>
      </trkpt>
      <trkpt lat="45.76842" lon="4.63818">
        <ele>690.68157958984</ele>
        <time>2017-09-01T19:07:25Z</time>
      </trkpt>
      <trkpt lat="45.76838" lon="4.63788">
        <ele>692.41052246094</ele>
        <time>2017-09-01T19:07:41Z</time>
      </trkpt>
      <trkpt lat="45.76835" lon="4.63777">
        <ele>692.28161621094</ele>
        <time>2017-09-01T19:07:47Z</time>
      </trkpt>
      <trkpt lat="45.76835" lon="4.63777">
        <ele>692.28161621094</ele>
        <time>2017-09-01T19:07:49Z</time>
      </trkpt>
      <trkpt lat="45.76835" lon="4.63764">
        <ele>695.09301757812</ele>
        <time>2017-09-01T19:07:49Z</time>
      </trkpt>
      <trkpt lat="45.76861" lon="4.63706">
        <ele>709.33190917969</ele>
        <time>2017-09-01T19:07:51Z</time>
      </trkpt>
      <trkpt lat="45.76872" lon="4.63668">
        <ele>715.16400146484</ele>
        <time>2017-09-01T19:08:04Z</time>
      </trkpt>
      <trkpt lat="45.7688" lon="4.63632">
        <ele>717.34539794922</ele>
        <time>2017-09-01T19:08:12Z</time>
      </trkpt>
      <trkpt lat="45.76882" lon="4.63626">
        <ele>717.33233642578</ele>
        <time>2017-09-01T19:08:19Z</time>
      </trkpt>
      <trkpt lat="45.769" lon="4.63606">
        <ele>721.65899658203</ele>
        <time>2017-09-01T19:08:20Z</time>
      </trkpt>
      <trkpt lat="45.76907" lon="4.63588">
        <ele>724.21917724609</ele>
        <time>2017-09-01T19:08:26Z</time>
      </trkpt>
      <trkpt lat="45.7691" lon="4.63575">
        <ele>726.39953613281</ele>
        <time>2017-09-01T19:08:30Z</time>
      </trkpt>
      <trkpt lat="45.7691" lon="4.63575">
        <ele>726.39953613281</ele>
        <time>2017-09-01T19:08:33Z</time>
      </trkpt>
      <trkpt lat="45.76902" lon="4.63561">
        <ele>727.10968017578</ele>
        <time>2017-09-01T19:08:33Z</time>
      </trkpt>
      <trkpt lat="45.76866" lon="4.63464">
        <ele>731.13745117188</ele>
        <time>2017-09-01T19:08:36Z</time>
      </trkpt>
      <trkpt lat="45.76843" lon="4.63381">
        <ele>731.50866699219</ele>
        <time>2017-09-01T19:08:56Z</time>
      </trkpt>
      <trkpt lat="45.76829" lon="4.63346">
        <ele>730.56530761719</ele>
        <time>2017-09-01T19:09:13Z</time>
      </trkpt>
      <trkpt lat="45.76822" lon="4.63328">
        <ele>731.94409179688</ele>
        <time>2017-09-01T19:09:21Z</time>
      </trkpt>
      <trkpt lat="45.76789" lon="4.63281">
        <ele>735.58990478516</ele>
        <time>2017-09-01T19:09:25Z</time>
      </trkpt>
      <trkpt lat="45.76768" lon="4.63246">
        <ele>738.74761962891</ele>
        <time>2017-09-01T19:09:37Z</time>
      </trkpt>
      <trkpt lat="45.76746" lon="4.63207">
        <ele>738.91973876953</ele>
        <time>2017-09-01T19:09:46Z</time>
      </trkpt>
      <trkpt lat="45.76727" lon="4.63174">
        <ele>738.61187744141</ele>
        <time>2017-09-01T19:09:55Z</time>
      </trkpt>
      <trkpt lat="45.76701" lon="4.63133">
        <ele>737.96923828125</ele>
        <time>2017-09-01T19:10:03Z</time>
      </trkpt>
      <trkpt lat="45.76679" lon="4.63109">
        <ele>737.87054443359</ele>
        <time>2017-09-01T19:10:13Z</time>
      </trkpt>
      <trkpt lat="45.76641" lon="4.63082">
        <ele>735.26898193359</ele>
        <time>2017-09-01T19:10:20Z</time>
      </trkpt>
      <trkpt lat="45.76622" lon="4.63071">
        <ele>736.22991943359</ele>
        <time>2017-09-01T19:10:31Z</time>
      </trkpt>
      <trkpt lat="45.76602" lon="4.63064">
        <ele>737.86059570312</ele>
        <time>2017-09-01T19:10:36Z</time>
      </trkpt>
      <trkpt lat="45.76602" lon="4.63064">
        <ele>737.86059570312</ele>
        <time>2017-09-01T19:10:42Z</time>
      </trkpt>
      <trkpt lat="45.76583" lon="4.63059">
        <ele>735.45184326172</ele>
        <time>2017-09-01T19:10:42Z</time>
      </trkpt>
      <trkpt lat="45.76543" lon="4.63068">
        <ele>739.85485839844</ele>
        <time>2017-09-01T19:10:47Z</time>
      </trkpt>
      <trkpt lat="45.76508" lon="4.63069">
        <ele>740.49420166016</ele>
        <time>2017-09-01T19:10:58Z</time>
      </trkpt>
      <trkpt lat="45.76477" lon="4.63068">
        <ele>741.05834960938</ele>
        <time>2017-09-01T19:11:07Z</time>
      </trkpt>
      <trkpt lat="45.76457" lon="4.63066">
        <ele>740.64788818359</ele>
        <time>2017-09-01T19:11:15Z</time>
      </trkpt>
      <trkpt lat="45.76439" lon="4.6306">
        <ele>740.31848144531</ele>
        <time>2017-09-01T19:11:20Z</time>
      </trkpt>
      <trkpt lat="45.76413" lon="4.63034">
        <ele>736.42425537109</ele>
        <time>2017-09-01T19:11:25Z</time>
      </trkpt>
      <trkpt lat="45.76376" lon="4.62997">
        <ele>736.55670166016</ele>
        <time>2017-09-01T19:11:33Z</time>
      </trkpt>
      <trkpt lat="45.76332" lon="4.62962">
        <ele>738.06378173828</ele>
        <time>2017-09-01T19:11:45Z</time>
      </trkpt>
      <trkpt lat="45.76293" lon="4.62922">
        <ele>725.3671875</ele>
        <time>2017-09-01T19:11:58Z</time>
      </trkpt>
      <trkpt lat="45.76292" lon="4.62919">
        <ele>724.673828125</ele>
        <time>2017-09-01T19:12:11Z</time>
      </trkpt>
      <trkpt lat="45.76287" lon="4.62898">
        <ele>720.72277832031</ele>
        <time>2017-09-01T19:12:12Z</time>
      </trkpt>
      <trkpt lat="45.76282" lon="4.62894">
        <ele>719.04705810547</ele>
        <time>2017-09-01T19:12:16Z</time>
      </trkpt>
      <trkpt lat="45.76286" lon="4.62878">
        <ele>718.17803955078</ele>
        <time>2017-09-01T19:12:18Z</time>
      </trkpt>
      <trkpt lat="45.76278" lon="4.62876">
        <ele>719.57952880859</ele>
        <time>2017-09-01T19:12:21Z</time>
      </trkpt>
      <trkpt lat="45.76273" lon="4.62872">
        <ele>720.48175048828</ele>
        <time>2017-09-01T19:12:23Z</time>
      </trkpt>
      <trkpt lat="45.76272" lon="4.62853">
        <ele>722.80413818359</ele>
        <time>2017-09-01T19:12:25Z</time>
      </trkpt>
      <trkpt lat="45.76264" lon="4.62815">
        <ele>727.76928710938</ele>
        <time>2017-09-01T19:12:29Z</time>
      </trkpt>
      <trkpt lat="45.76247" lon="4.62771">
        <ele>734.70544433594</ele>
        <time>2017-09-01T19:12:36Z</time>
      </trkpt>
      <trkpt lat="45.76227" lon="4.62739">
        <ele>740.97540283203</ele>
        <time>2017-09-01T19:12:45Z</time>
      </trkpt>
      <trkpt lat="45.76203" lon="4.62712">
        <ele>747.18634033203</ele>
        <time>2017-09-01T19:12:53Z</time>
      </trkpt>
      <trkpt lat="45.76179" lon="4.62684">
        <ele>750.32409667969</ele>
        <time>2017-09-01T19:13:01Z</time>
      </trkpt>
      <trkpt lat="45.76146" lon="4.62655">
        <ele>755.70983886719</ele>
        <time>2017-09-01T19:13:09Z</time>
      </trkpt>
      <trkpt lat="45.76146" lon="4.62655">
        <ele>755.70983886719</ele>
        <time>2017-09-01T19:13:19Z</time>
      </trkpt>
      <trkpt lat="45.76129" lon="4.62642">
        <ele>761.02911376953</ele>
        <time>2017-09-01T19:13:19Z</time>
      </trkpt>
      <trkpt lat="45.76096" lon="4.62621">
        <ele>766.66467285156</ele>
        <time>2017-09-01T19:13:24Z</time>
      </trkpt>
      <trkpt lat="45.76076" lon="4.62612">
        <ele>768.96984863281</ele>
        <time>2017-09-01T19:13:34Z</time>
      </trkpt>
      <trkpt lat="45.76034" lon="4.62589">
        <ele>768.59069824219</ele>
        <time>2017-09-01T19:13:40Z</time>
      </trkpt>
      <trkpt lat="45.76012" lon="4.62584">
        <ele>761.61657714844</ele>
        <time>2017-09-01T19:13:52Z</time>
      </trkpt>
      <trkpt lat="45.76006" lon="4.62644">
        <ele>764.61083984375</ele>
        <time>2017-09-01T19:13:58Z</time>
      </trkpt>
      <trkpt lat="45.76001" lon="4.62674">
        <ele>763.77368164062</ele>
        <time>2017-09-01T19:14:09Z</time>
      </trkpt>
      <trkpt lat="45.7599" lon="4.62715">
        <ele>759.68432617188</ele>
        <time>2017-09-01T19:14:15Z</time>
      </trkpt>
      <trkpt lat="45.75982" lon="4.62744">
        <ele>757.78656005859</ele>
        <time>2017-09-01T19:14:23Z</time>
      </trkpt>
      <trkpt lat="45.75986" lon="4.62751">
        <ele>756.06921386719</ele>
        <time>2017-09-01T19:14:29Z</time>
      </trkpt>
      <trkpt lat="45.75988" lon="4.62761">
        <ele>754.67443847656</ele>
        <time>2017-09-01T19:14:31Z</time>
      </trkpt>
      <trkpt lat="45.75987" lon="4.62768">
        <ele>753.77062988281</ele>
        <time>2017-09-01T19:14:33Z</time>
      </trkpt>
      <trkpt lat="45.75991" lon="4.62775">
        <ele>751.68688964844</ele>
        <time>2017-09-01T19:14:34Z</time>
      </trkpt>
      <trkpt lat="45.75996" lon="4.62772">
        <ele>751.01989746094</ele>
        <time>2017-09-01T19:14:36Z</time>
      </trkpt>
      <trkpt lat="45.75996" lon="4.62772">
        <ele>751.01989746094</ele>
        <time>2017-09-01T19:14:37Z</time>
      </trkpt>
      <trkpt lat="45.75991" lon="4.62775">
        <ele>751.68688964844</ele>
        <time>2017-09-01T19:14:37Z</time>
      </trkpt>
      <trkpt lat="45.75987" lon="4.62768">
        <ele>753.77062988281</ele>
        <time>2017-09-01T19:14:38Z</time>
      </trkpt>
      <trkpt lat="45.75979" lon="4.62783">
        <ele>756.31170654297</ele>
        <time>2017-09-01T19:14:40Z</time>
      </trkpt>
      <trkpt lat="45.75966" lon="4.62799">
        <ele>754.93103027344</ele>
        <time>2017-09-01T19:14:44Z</time>
      </trkpt>
      <trkpt lat="45.7595" lon="4.6281">
        <ele>755.60375976562</ele>
        <time>2017-09-01T19:14:49Z</time>
      </trkpt>
      <trkpt lat="45.75933" lon="4.62818">
        <ele>757.64276123047</ele>
        <time>2017-09-01T19:14:54Z</time>
      </trkpt>
      <trkpt lat="45.75898" lon="4.62822">
        <ele>758.84283447266</ele>
        <time>2017-09-01T19:14:59Z</time>
      </trkpt>
      <trkpt lat="45.75846" lon="4.62816">
        <ele>755.60260009766</ele>
        <time>2017-09-01T19:15:08Z</time>
      </trkpt>
      <trkpt lat="45.75806" lon="4.62807">
        <ele>756.40704345703</ele>
        <time>2017-09-01T19:15:22Z</time>
      </trkpt>
      <trkpt lat="45.75774" lon="4.62789">
        <ele>756.20526123047</ele>
        <time>2017-09-01T19:15:33Z</time>
      </trkpt>
      <trkpt lat="45.75759" lon="4.62778">
        <ele>756.35577392578</ele>
        <time>2017-09-01T19:15:42Z</time>
      </trkpt>
      <trkpt lat="45.75749" lon="4.62768">
        <ele>755.73626708984</ele>
        <time>2017-09-01T19:15:47Z</time>
      </trkpt>
      <trkpt lat="45.75749" lon="4.62768">
        <ele>755.73626708984</ele>
        <time>2017-09-01T19:15:50Z</time>
      </trkpt>
      <trkpt lat="45.75743" lon="4.6276">
        <ele>756.17175292969</ele>
        <time>2017-09-01T19:15:50Z</time>
      </trkpt>
      <trkpt lat="45.75732" lon="4.62734">
        <ele>757.59295654297</ele>
        <time>2017-09-01T19:15:52Z</time>
      </trkpt>
      <trkpt lat="45.75717" lon="4.62656">
        <ele>760.06378173828</ele>
        <time>2017-09-01T19:15:58Z</time>
      </trkpt>
      <trkpt lat="45.75709" lon="4.6257">
        <ele>761.87023925781</ele>
        <time>2017-09-01T19:16:13Z</time>
      </trkpt>
      <trkpt lat="45.75696" lon="4.62372">
        <ele>766.68011474609</ele>
        <time>2017-09-01T19:16:29Z</time>
      </trkpt>
      <trkpt lat="45.75681" lon="4.62203">
        <ele>776.5048828125</ele>
        <time>2017-09-01T19:17:06Z</time>
      </trkpt>
      <trkpt lat="45.75681" lon="4.62176">
        <ele>772.16448974609</ele>
        <time>2017-09-01T19:17:38Z</time>
      </trkpt>
      <trkpt lat="45.75683" lon="4.62159">
        <ele>769.88006591797</ele>
        <time>2017-09-01T19:17:43Z</time>
      </trkpt>
      <trkpt lat="45.75684" lon="4.62142">
        <ele>768.40777587891</ele>
        <time>2017-09-01T19:17:46Z</time>
      </trkpt>
      <trkpt lat="45.7567" lon="4.62005">
        <ele>761.3291015625</ele>
        <time>2017-09-01T19:17:49Z</time>
      </trkpt>
      <trkpt lat="45.75668" lon="4.61951">
        <ele>758.61663818359</ele>
        <time>2017-09-01T19:18:15Z</time>
      </trkpt>
      <trkpt lat="45.75665" lon="4.61931">
        <ele>757.72369384766</ele>
        <time>2017-09-01T19:18:25Z</time>
      </trkpt>
      <trkpt lat="45.75637" lon="4.61853">
        <ele>756.67889404297</ele>
        <time>2017-09-01T19:18:29Z</time>
      </trkpt>
      <trkpt lat="45.75634" lon="4.61844">
        <ele>756.69097900391</ele>
        <time>2017-09-01T19:18:45Z</time>
      </trkpt>
      <trkpt lat="45.75626" lon="4.6181">
        <ele>756.75054931641</ele>
        <time>2017-09-01T19:18:47Z</time>
      </trkpt>
      <trkpt lat="45.75626" lon="4.61789">
        <ele>756.80462646484</ele>
        <time>2017-09-01T19:18:54Z</time>
      </trkpt>
      <trkpt lat="45.75629" lon="4.61774">
        <ele>756.45623779297</ele>
        <time>2017-09-01T19:18:58Z</time>
      </trkpt>
      <trkpt lat="45.75626" lon="4.61761">
        <ele>756.60186767578</ele>
        <time>2017-09-01T19:19:01Z</time>
      </trkpt>
      <trkpt lat="45.75626" lon="4.61761">
        <ele>756.60186767578</ele>
        <time>2017-09-01T19:19:04Z</time>
      </trkpt>
      <trkpt lat="45.75622" lon="4.61723">
        <ele>756.47924804688</ele>
        <time>2017-09-01T19:19:04Z</time>
      </trkpt>
      <trkpt lat="45.75622" lon="4.61687">
        <ele>757.00909423828</ele>
        <time>2017-09-01T19:19:11Z</time>
      </trkpt>
      <trkpt lat="45.75634" lon="4.61676">
        <ele>755.02514648438</ele>
        <time>2017-09-01T19:19:18Z</time>
      </trkpt>
      <trkpt lat="45.75645" lon="4.61623">
        <ele>752.11791992188</ele>
        <time>2017-09-01T19:19:22Z</time>
      </trkpt>
      <trkpt lat="45.75649" lon="4.61598">
        <ele>750.21942138672</ele>
        <time>2017-09-01T19:19:32Z</time>
      </trkpt>
      <trkpt lat="45.75651" lon="4.61596">
        <ele>749.48431396484</ele>
        <time>2017-09-01T19:19:37Z</time>
      </trkpt>
      <trkpt lat="45.75651" lon="4.61596">
        <ele>749.48431396484</ele>
        <time>2017-09-01T19:19:38Z</time>
      </trkpt>
      <trkpt lat="45.75654" lon="4.61594">
        <ele>749.01623535156</ele>
        <time>2017-09-01T19:19:38Z</time>
      </trkpt>
      <trkpt lat="45.75663" lon="4.61604">
        <ele>747.79742431641</ele>
        <time>2017-09-01T19:19:39Z</time>
      </trkpt>
      <trkpt lat="45.75685" lon="4.61656">
        <ele>743.5693359375</ele>
        <time>2017-09-01T19:19:42Z</time>
      </trkpt>
      <trkpt lat="45.75692" lon="4.61668">
        <ele>742.18121337891</ele>
        <time>2017-09-01T19:19:53Z</time>
      </trkpt>
      <trkpt lat="45.75699" lon="4.61668">
        <ele>740.36340332031</ele>
        <time>2017-09-01T19:19:56Z</time>
      </trkpt>
      <trkpt lat="45.75704" lon="4.61662">
        <ele>738.86956787109</ele>
        <time>2017-09-01T19:19:58Z</time>
      </trkpt>
      <trkpt lat="45.75707" lon="4.61647">
        <ele>737.8232421875</ele>
        <time>2017-09-01T19:20:00Z</time>
      </trkpt>
      <trkpt lat="45.75714" lon="4.61591">
        <ele>734.08972167969</ele>
        <time>2017-09-01T19:20:03Z</time>
      </trkpt>
      <trkpt lat="45.75716" lon="4.61527">
        <ele>728.67901611328</ele>
        <time>2017-09-01T19:20:14Z</time>
      </trkpt>
      <trkpt lat="45.75724" lon="4.61453">
        <ele>722.42633056641</ele>
        <time>2017-09-01T19:20:26Z</time>
      </trkpt>
      <trkpt lat="45.75735" lon="4.61424">
        <ele>719.96472167969</ele>
        <time>2017-09-01T19:20:40Z</time>
      </trkpt>
      <trkpt lat="45.75735" lon="4.61424">
        <ele>719.96472167969</ele>
        <time>2017-09-01T19:20:46Z</time>
      </trkpt>
      <trkpt lat="45.75724" lon="4.61453">
        <ele>722.42633056641</ele>
        <time>2017-09-01T19:20:46Z</time>
      </trkpt>
      <trkpt lat="45.75732" lon="4.61404">
        <ele>722.91735839844</ele>
        <time>2017-09-01T19:20:52Z</time>
      </trkpt>
      <trkpt lat="45.7573" lon="4.6138">
        <ele>723.95941162109</ele>
        <time>2017-09-01T19:21:01Z</time>
      </trkpt>
      <trkpt lat="45.75724" lon="4.61358">
        <ele>721.3544921875</ele>
        <time>2017-09-01T19:21:06Z</time>
      </trkpt>
      <trkpt lat="45.75724" lon="4.61358">
        <ele>721.3544921875</ele>
        <time>2017-09-01T19:21:10Z</time>
      </trkpt>
      <trkpt lat="45.75737" lon="4.61315">
        <ele>715.65563964844</ele>
        <time>2017-09-01T19:21:10Z</time>
      </trkpt>
      <trkpt lat="45.75747" lon="4.61299">
        <ele>711.11138916016</ele>
        <time>2017-09-01T19:21:19Z</time>
      </trkpt>
      <trkpt lat="45.75752" lon="4.61275">
        <ele>709.16967773438</ele>
        <time>2017-09-01T19:21:23Z</time>
      </trkpt>
      <trkpt lat="45.75758" lon="4.61265">
        <ele>710.42663574219</ele>
        <time>2017-09-01T19:21:28Z</time>
      </trkpt>
      <trkpt lat="45.75768" lon="4.61251">
        <ele>710.63928222656</ele>
        <time>2017-09-01T19:21:30Z</time>
      </trkpt>
      <trkpt lat="45.75777" lon="4.61241">
        <ele>707.00592041016</ele>
        <time>2017-09-01T19:21:34Z</time>
      </trkpt>
      <trkpt lat="45.7578" lon="4.61229">
        <ele>707.62622070312</ele>
        <time>2017-09-01T19:21:37Z</time>
      </trkpt>
      <trkpt lat="45.75784" lon="4.61192">
        <ele>711.90740966797</ele>
        <time>2017-09-01T19:21:39Z</time>
      </trkpt>
      <trkpt lat="45.75787" lon="4.6117">
        <ele>710.71673583984</ele>
        <time>2017-09-01T19:21:46Z</time>
      </trkpt>
      <trkpt lat="45.75794" lon="4.61152">
        <ele>712.72998046875</ele>
        <time>2017-09-01T19:21:50Z</time>
      </trkpt>
      <trkpt lat="45.75806" lon="4.61135">
        <ele>710.76519775391</ele>
        <time>2017-09-01T19:21:54Z</time>
      </trkpt>
      <trkpt lat="45.75821" lon="4.61121">
        <ele>714.41247558594</ele>
        <time>2017-09-01T19:21:59Z</time>
      </trkpt>
      <trkpt lat="45.75831" lon="4.61114">
        <ele>714.33776855469</ele>
        <time>2017-09-01T19:22:04Z</time>
      </trkpt>
      <trkpt lat="45.75837" lon="4.61102">
        <ele>714.37939453125</ele>
        <time>2017-09-01T19:22:07Z</time>
      </trkpt>
      <trkpt lat="45.75868" lon="4.61024">
        <ele>710.97357177734</ele>
        <time>2017-09-01T19:22:10Z</time>
      </trkpt>
      <trkpt lat="45.75888" lon="4.60977">
        <ele>708.82824707031</ele>
        <time>2017-09-01T19:22:27Z</time>
      </trkpt>
      <trkpt lat="45.75891" lon="4.60971">
        <ele>708.67626953125</ele>
        <time>2017-09-01T19:22:37Z</time>
      </trkpt>
      <trkpt lat="45.7592" lon="4.60944">
        <ele>707.71350097656</ele>
        <time>2017-09-01T19:22:38Z</time>
      </trkpt>
      <trkpt lat="45.75958" lon="4.60912">
        <ele>704.25384521484</ele>
        <time>2017-09-01T19:22:47Z</time>
      </trkpt>
      <trkpt lat="45.7597" lon="4.60902">
        <ele>706.02667236328</ele>
        <time>2017-09-01T19:22:59Z</time>
      </trkpt>
      <trkpt lat="45.75974" lon="4.60904">
        <ele>706.62628173828</ele>
        <time>2017-09-01T19:23:03Z</time>
      </trkpt>
      <trkpt lat="45.7598" lon="4.60914">
        <ele>707.40295410156</ele>
        <time>2017-09-01T19:23:04Z</time>
      </trkpt>
      <trkpt lat="45.75989" lon="4.60919">
        <ele>707.77941894531</ele>
        <time>2017-09-01T19:23:06Z</time>
      </trkpt>
      <trkpt lat="45.76014" lon="4.60887">
        <ele>708.47082519531</ele>
        <time>2017-09-01T19:23:09Z</time>
      </trkpt>
      <trkpt lat="45.76041" lon="4.60853">
        <ele>704.22741699219</ele>
        <time>2017-09-01T19:23:18Z</time>
      </trkpt>
      <trkpt lat="45.76047" lon="4.60826">
        <ele>698.10961914062</ele>
        <time>2017-09-01T19:23:28Z</time>
      </trkpt>
      <trkpt lat="45.76044" lon="4.60819">
        <ele>696.8291015625</ele>
        <time>2017-09-01T19:23:33Z</time>
      </trkpt>
      <trkpt lat="45.76035" lon="4.60792">
        <ele>690.35461425781</ele>
        <time>2017-09-01T19:23:35Z</time>
      </trkpt>
      <trkpt lat="45.76035" lon="4.60768">
        <ele>685.95135498047</ele>
        <time>2017-09-01T19:23:41Z</time>
      </trkpt>
      <trkpt lat="45.76074" lon="4.6064">
        <ele>684.78521728516</ele>
        <time>2017-09-01T19:23:45Z</time>
      </trkpt>
      <trkpt lat="45.76082" lon="4.60628">
        <ele>685.34393310547</ele>
        <time>2017-09-01T19:24:11Z</time>
      </trkpt>
      <trkpt lat="45.76089" lon="4.60614">
        <ele>685.91400146484</ele>
        <time>2017-09-01T19:24:14Z</time>
      </trkpt>
      <trkpt lat="45.76086" lon="4.60552">
        <ele>697.78308105469</ele>
        <time>2017-09-01T19:24:17Z</time>
      </trkpt>
      <trkpt lat="45.76076" lon="4.60493">
        <ele>697.01501464844</ele>
        <time>2017-09-01T19:24:29Z</time>
      </trkpt>
      <trkpt lat="45.76073" lon="4.60471">
        <ele>696.01922607422</ele>
        <time>2017-09-01T19:24:40Z</time>
      </trkpt>
      <trkpt lat="45.76075" lon="4.6043">
        <ele>696.59191894531</ele>
        <time>2017-09-01T19:24:44Z</time>
      </trkpt>
      <trkpt lat="45.76085" lon="4.60393">
        <ele>698.94769287109</ele>
        <time>2017-09-01T19:24:52Z</time>
      </trkpt>
      <trkpt lat="45.76086" lon="4.60377">
        <ele>699.80218505859</ele>
        <time>2017-09-01T19:24:59Z</time>
      </trkpt>
      <trkpt lat="45.76082" lon="4.60363">
        <ele>698.55023193359</ele>
        <time>2017-09-01T19:25:02Z</time>
      </trkpt>
      <trkpt lat="45.76078" lon="4.60355">
        <ele>697.07855224609</ele>
        <time>2017-09-01T19:25:05Z</time>
      </trkpt>
      <trkpt lat="45.76062" lon="4.60339">
        <ele>694.94378662109</ele>
        <time>2017-09-01T19:25:07Z</time>
      </trkpt>
      <trkpt lat="45.76029" lon="4.60304">
        <ele>692.12414550781</ele>
        <time>2017-09-01T19:25:12Z</time>
      </trkpt>
      <trkpt lat="45.76011" lon="4.6029">
        <ele>689.32928466797</ele>
        <time>2017-09-01T19:25:23Z</time>
      </trkpt>
      <trkpt lat="45.75987" lon="4.60274">
        <ele>688.14080810547</ele>
        <time>2017-09-01T19:25:28Z</time>
      </trkpt>
      <trkpt lat="45.75979" lon="4.60256">
        <ele>686.89434814453</ele>
        <time>2017-09-01T19:25:35Z</time>
      </trkpt>
      <trkpt lat="45.75978" lon="4.60245">
        <ele>687.12292480469</ele>
        <time>2017-09-01T19:25:39Z</time>
      </trkpt>
      <trkpt lat="45.75982" lon="4.6019">
        <ele>687.82421875</ele>
        <time>2017-09-01T19:25:41Z</time>
      </trkpt>
      <trkpt lat="45.75981" lon="4.60181">
        <ele>686.83868408203</ele>
        <time>2017-09-01T19:25:51Z</time>
      </trkpt>
      <trkpt lat="45.75981" lon="4.60181">
        <ele>686.83868408203</ele>
        <time>2017-09-01T19:25:53Z</time>
      </trkpt>
      <trkpt lat="45.76015" lon="4.60171">
        <ele>682.70159912109</ele>
        <time>2017-09-01T19:25:53Z</time>
      </trkpt>
      <trkpt lat="45.76031" lon="4.60169">
        <ele>679.7705078125</ele>
        <time>2017-09-01T19:26:02Z</time>
      </trkpt>
      <trkpt lat="45.76174" lon="4.6021">
        <ele>650.57464599609</ele>
        <time>2017-09-01T19:26:06Z</time>
      </trkpt>
      <trkpt lat="45.76239" lon="4.60194">
        <ele>624.61315917969</ele>
        <time>2017-09-01T19:26:45Z</time>
      </trkpt>
      <trkpt lat="45.76277" lon="4.60183">
        <ele>608.05194091797</ele>
        <time>2017-09-01T19:27:03Z</time>
      </trkpt>
      <trkpt lat="45.7629" lon="4.60182">
        <ele>603.48260498047</ele>
        <time>2017-09-01T19:27:13Z</time>
      </trkpt>
      <trkpt lat="45.76301" lon="4.60184">
        <ele>601.95324707031</ele>
        <time>2017-09-01T19:27:16Z</time>
      </trkpt>
      <trkpt lat="45.76324" lon="4.60184">
        <ele>597.93469238281</ele>
        <time>2017-09-01T19:27:19Z</time>
      </trkpt>
      <trkpt lat="45.76324" lon="4.60184">
        <ele>597.93469238281</ele>
        <time>2017-09-01T19:27:25Z</time>
      </trkpt>
      <trkpt lat="45.76347" lon="4.60184">
        <ele>595.73266601562</ele>
        <time>2017-09-01T19:27:25Z</time>
      </trkpt>
      <trkpt lat="45.76368" lon="4.60187">
        <ele>593.39300537109</ele>
        <time>2017-09-01T19:27:31Z</time>
      </trkpt>
      <trkpt lat="45.7641" lon="4.60203">
        <ele>587.41949462891</ele>
        <time>2017-09-01T19:27:37Z</time>
      </trkpt>
      <trkpt lat="45.76429" lon="4.602">
        <ele>584.80456542969</ele>
        <time>2017-09-01T19:27:49Z</time>
      </trkpt>
      <trkpt lat="45.76439" lon="4.60198">
        <ele>583.61267089844</ele>
        <time>2017-09-01T19:27:54Z</time>
      </trkpt>
      <trkpt lat="45.76448" lon="4.60205">
        <ele>580.43725585938</ele>
        <time>2017-09-01T19:27:57Z</time>
      </trkpt>
      <trkpt lat="45.76446" lon="4.60208">
        <ele>580.17846679688</ele>
        <time>2017-09-01T19:28:00Z</time>
      </trkpt>
      <trkpt lat="45.76446" lon="4.60208">
        <ele>580.17846679688</ele>
        <time>2017-09-01T19:28:01Z</time>
      </trkpt>
      <trkpt lat="45.76436" lon="4.60228">
        <ele>578.54107666016</ele>
        <time>2017-09-01T19:28:01Z</time>
      </trkpt>
      <trkpt lat="45.7643" lon="4.6025">
        <ele>575.73461914062</ele>
        <time>2017-09-01T19:28:06Z</time>
      </trkpt>
      <trkpt lat="45.76429" lon="4.60273">
        <ele>574.16125488281</ele>
        <time>2017-09-01T19:28:10Z</time>
      </trkpt>
      <trkpt lat="45.76432" lon="4.603">
        <ele>575.16351318359</ele>
        <time>2017-09-01T19:28:14Z</time>
      </trkpt>
      <trkpt lat="45.76444" lon="4.6035">
        <ele>572.23382568359</ele>
        <time>2017-09-01T19:28:19Z</time>
      </trkpt>
      <trkpt lat="45.76457" lon="4.60391">
        <ele>566.65502929688</ele>
        <time>2017-09-01T19:28:29Z</time>
      </trkpt>
      <trkpt lat="45.76461" lon="4.60396">
        <ele>563.419921875</ele>
        <time>2017-09-01T19:28:37Z</time>
      </trkpt>
      <trkpt lat="45.7646" lon="4.60399">
        <ele>564.38330078125</ele>
        <time>2017-09-01T19:28:38Z</time>
      </trkpt>
      <trkpt lat="45.7646" lon="4.60399">
        <ele>564.38330078125</ele>
        <time>2017-09-01T19:28:39Z</time>
      </trkpt>
      <trkpt lat="45.76461" lon="4.60396">
        <ele>563.419921875</ele>
        <time>2017-09-01T19:28:39Z</time>
      </trkpt>
      <trkpt lat="45.76463" lon="4.60398">
        <ele>561.96917724609</ele>
        <time>2017-09-01T19:28:40Z</time>
      </trkpt>
      <trkpt lat="45.76465" lon="4.60406">
        <ele>561.37060546875</ele>
        <time>2017-09-01T19:28:41Z</time>
      </trkpt>
      <trkpt lat="45.76466" lon="4.60424">
        <ele>564.52038574219</ele>
        <time>2017-09-01T19:28:43Z</time>
      </trkpt>
      <trkpt lat="45.76477" lon="4.60454">
        <ele>566.29382324219</ele>
        <time>2017-09-01T19:28:46Z</time>
      </trkpt>
      <trkpt lat="45.76479" lon="4.60477">
        <ele>564.98315429688</ele>
        <time>2017-09-01T19:28:52Z</time>
      </trkpt>
      <trkpt lat="45.76475" lon="4.60502">
        <ele>561.62341308594</ele>
        <time>2017-09-01T19:28:56Z</time>
      </trkpt>
      <trkpt lat="45.76474" lon="4.60527">
        <ele>559.1142578125</ele>
        <time>2017-09-01T19:29:01Z</time>
      </trkpt>
      <trkpt lat="45.7648" lon="4.60563">
        <ele>553.88067626953</ele>
        <time>2017-09-01T19:29:06Z</time>
      </trkpt>
      <trkpt lat="45.7648" lon="4.60594">
        <ele>557.6923828125</ele>
        <time>2017-09-01T19:29:13Z</time>
      </trkpt>
      <trkpt lat="45.76485" lon="4.60611">
        <ele>553.81463623047</ele>
        <time>2017-09-01T19:29:19Z</time>
      </trkpt>
      <trkpt lat="45.76503" lon="4.60643">
        <ele>551.412109375</ele>
        <time>2017-09-01T19:29:22Z</time>
      </trkpt>
      <trkpt lat="45.76514" lon="4.60654">
        <ele>550.66723632812</ele>
        <time>2017-09-01T19:29:30Z</time>
      </trkpt>
      <trkpt lat="45.76527" lon="4.60659">
        <ele>548.51348876953</ele>
        <time>2017-09-01T19:29:34Z</time>
      </trkpt>
      <trkpt lat="45.76555" lon="4.60658">
        <ele>540.28747558594</ele>
        <time>2017-09-01T19:29:38Z</time>
      </trkpt>
      <trkpt lat="45.76585" lon="4.60654">
        <ele>533.43664550781</ele>
        <time>2017-09-01T19:29:45Z</time>
      </trkpt>
      <trkpt lat="45.76624" lon="4.6064">
        <ele>530.45599365234</ele>
        <time>2017-09-01T19:29:53Z</time>
      </trkpt>
      <trkpt lat="45.7664" lon="4.60638">
        <ele>529.89904785156</ele>
        <time>2017-09-01T19:30:04Z</time>
      </trkpt>
      <trkpt lat="45.7666" lon="4.60641">
        <ele>528.88079833984</ele>
        <time>2017-09-01T19:30:08Z</time>
      </trkpt>
      <trkpt lat="45.76676" lon="4.60651">
        <ele>527.62396240234</ele>
        <time>2017-09-01T19:30:13Z</time>
      </trkpt>
      <trkpt lat="45.76692" lon="4.60675">
        <ele>524.05780029297</ele>
        <time>2017-09-01T19:30:18Z</time>
      </trkpt>
      <trkpt lat="45.76698" lon="4.60677">
        <ele>522.35174560547</ele>
        <time>2017-09-01T19:30:24Z</time>
      </trkpt>
      <trkpt lat="45.76723" lon="4.60673">
        <ele>517.73254394531</ele>
        <time>2017-09-01T19:30:26Z</time>
      </trkpt>
      <trkpt lat="45.76746" lon="4.60687">
        <ele>512.89349365234</ele>
        <time>2017-09-01T19:30:33Z</time>
      </trkpt>
      <trkpt lat="45.76761" lon="4.6069">
        <ele>510.70999145508</ele>
        <time>2017-09-01T19:30:40Z</time>
      </trkpt>
      <trkpt lat="45.76761" lon="4.6069">
        <ele>510.70999145508</ele>
        <time>2017-09-01T19:30:44Z</time>
      </trkpt>
      <trkpt lat="45.76774" lon="4.60687">
        <ele>509.51678466797</ele>
        <time>2017-09-01T19:30:44Z</time>
      </trkpt>
      <trkpt lat="45.76788" lon="4.60681">
        <ele>507.6692199707</ele>
        <time>2017-09-01T19:30:48Z</time>
      </trkpt>
      <trkpt lat="45.76802" lon="4.60679">
        <ele>505.65939331055</ele>
        <time>2017-09-01T19:30:52Z</time>
      </trkpt>
      <trkpt lat="45.76844" lon="4.60697">
        <ele>501.93688964844</ele>
        <time>2017-09-01T19:30:56Z</time>
      </trkpt>
      <trkpt lat="45.76865" lon="4.60699">
        <ele>500.99261474609</ele>
        <time>2017-09-01T19:31:08Z</time>
      </trkpt>
      <trkpt lat="45.76892" lon="4.60692">
        <ele>499.21591186523</ele>
        <time>2017-09-01T19:31:14Z</time>
      </trkpt>
      <trkpt lat="45.76904" lon="4.60697">
        <ele>498.04025268555</ele>
        <time>2017-09-01T19:31:21Z</time>
      </trkpt>
      <trkpt lat="45.76918" lon="4.60708">
        <ele>495.05987548828</ele>
        <time>2017-09-01T19:31:24Z</time>
      </trkpt>
      <trkpt lat="45.76932" lon="4.60732">
        <ele>491.21343994141</ele>
        <time>2017-09-01T19:31:28Z</time>
      </trkpt>
      <trkpt lat="45.76938" lon="4.60739">
        <ele>489.07458496094</ele>
        <time>2017-09-01T19:31:34Z</time>
      </trkpt>
      <trkpt lat="45.76948" lon="4.60742">
        <ele>486.88882446289</ele>
        <time>2017-09-01T19:31:36Z</time>
      </trkpt>
      <trkpt lat="45.76988" lon="4.60745">
        <ele>479.90155029297</ele>
        <time>2017-09-01T19:31:39Z</time>
      </trkpt>
      <trkpt lat="45.76993" lon="4.60746">
        <ele>479.25402832031</ele>
        <time>2017-09-01T19:31:50Z</time>
      </trkpt>
      <trkpt lat="45.76993" lon="4.60746">
        <ele>479.25402832031</ele>
        <time>2017-09-01T19:31:51Z</time>
      </trkpt>
      <trkpt lat="45.77004" lon="4.60749">
        <ele>477.32400512695</ele>
        <time>2017-09-01T19:31:51Z</time>
      </trkpt>
      <trkpt lat="45.76999" lon="4.60773">
        <ele>477.37020874023</ele>
        <time>2017-09-01T19:31:54Z</time>
      </trkpt>
      <trkpt lat="45.76991" lon="4.60796">
        <ele>476.60525512695</ele>
        <time>2017-09-01T19:31:59Z</time>
      </trkpt>
      <trkpt lat="45.76941" lon="4.60883">
        <ele>473.78897094727</ele>
        <time>2017-09-01T19:32:04Z</time>
      </trkpt>
      <trkpt lat="45.76938" lon="4.60891">
        <ele>473.63092041016</ele>
        <time>2017-09-01T19:32:25Z</time>
      </trkpt>
      <trkpt lat="45.76939" lon="4.60895">
        <ele>473.275390625</ele>
        <time>2017-09-01T19:32:27Z</time>
      </trkpt>
      <trkpt lat="45.76963" lon="4.60893">
        <ele>470.70516967773</ele>
        <time>2017-09-01T19:32:28Z</time>
      </trkpt>
      <trkpt lat="45.76948" lon="4.60906">
        <ele>471.90701293945</ele>
        <time>2017-09-01T19:32:34Z</time>
      </trkpt>
      <trkpt lat="45.76902" lon="4.60918">
        <ele>467.04840087891</ele>
        <time>2017-09-01T19:32:39Z</time>
      </trkpt>
      <trkpt lat="45.76882" lon="4.60928">
        <ele>464.54815673828</ele>
        <time>2017-09-01T19:32:51Z</time>
      </trkpt>
      <trkpt lat="45.76877" lon="4.60933">
        <ele>464.13204956055</ele>
        <time>2017-09-01T19:32:57Z</time>
      </trkpt>
      <trkpt lat="45.76861" lon="4.60954">
        <ele>463.86477661133</ele>
        <time>2017-09-01T19:32:59Z</time>
      </trkpt>
      <trkpt lat="45.7685" lon="4.60976">
        <ele>464.40957641602</ele>
        <time>2017-09-01T19:33:05Z</time>
      </trkpt>
      <trkpt lat="45.76847" lon="4.61001">
        <ele>467.35726928711</ele>
        <time>2017-09-01T19:33:10Z</time>
      </trkpt>
      <trkpt lat="45.7685" lon="4.61041">
        <ele>464.8388671875</ele>
        <time>2017-09-01T19:33:15Z</time>
      </trkpt>
      <trkpt lat="45.76837" lon="4.61101">
        <ele>463.16271972656</ele>
        <time>2017-09-01T19:33:22Z</time>
      </trkpt>
      <trkpt lat="45.76835" lon="4.61124">
        <ele>462.92242431641</ele>
        <time>2017-09-01T19:33:34Z</time>
      </trkpt>
      <trkpt lat="45.7684" lon="4.61136">
        <ele>462.36975097656</ele>
        <time>2017-09-01T19:33:38Z</time>
      </trkpt>
      <trkpt lat="45.76844" lon="4.61141">
        <ele>462.34710693359</ele>
        <time>2017-09-01T19:33:41Z</time>
      </trkpt>
      <trkpt lat="45.76844" lon="4.61141">
        <ele>462.34710693359</ele>
        <time>2017-09-01T19:33:42Z</time>
      </trkpt>
      <trkpt lat="45.76851" lon="4.61145">
        <ele>461.57699584961</ele>
        <time>2017-09-01T19:33:42Z</time>
      </trkpt>
      <trkpt lat="45.7686" lon="4.61146">
        <ele>461.72833251953</ele>
        <time>2017-09-01T19:33:44Z</time>
      </trkpt>
      <trkpt lat="45.76867" lon="4.61144">
        <ele>461.94223022461</ele>
        <time>2017-09-01T19:33:46Z</time>
      </trkpt>
      <trkpt lat="45.76892" lon="4.61126">
        <ele>463.24069213867</ele>
        <time>2017-09-01T19:33:48Z</time>
      </trkpt>
      <trkpt lat="45.76926" lon="4.61106">
        <ele>463.01739501953</ele>
        <time>2017-09-01T19:33:55Z</time>
      </trkpt>
      <trkpt lat="45.7695" lon="4.611">
        <ele>463.01724243164</ele>
        <time>2017-09-01T19:34:05Z</time>
      </trkpt>
      <trkpt lat="45.76962" lon="4.611">
        <ele>463.14041137695</ele>
        <time>2017-09-01T19:34:12Z</time>
      </trkpt>
      <trkpt lat="45.76974" lon="4.61103">
        <ele>463.61520385742</ele>
        <time>2017-09-01T19:34:15Z</time>
      </trkpt>
      <trkpt lat="45.77002" lon="4.61119">
        <ele>463.06002807617</ele>
        <time>2017-09-01T19:34:18Z</time>
      </trkpt>
      <trkpt lat="45.77062" lon="4.61155">
        <ele>463.84405517578</ele>
        <time>2017-09-01T19:34:26Z</time>
      </trkpt>
      <trkpt lat="45.77084" lon="4.61161">
        <ele>463.58154296875</ele>
        <time>2017-09-01T19:34:43Z</time>
      </trkpt>
      <trkpt lat="45.77134" lon="4.6117">
        <ele>463.46170043945</ele>
        <time>2017-09-01T19:34:49Z</time>
      </trkpt>
      <trkpt lat="45.77195" lon="4.61173">
        <ele>463.67126464844</ele>
        <time>2017-09-01T19:35:02Z</time>
      </trkpt>
      <trkpt lat="45.77233" lon="4.61176">
        <ele>463.25842285156</ele>
        <time>2017-09-01T19:35:18Z</time>
      </trkpt>
      <trkpt lat="45.77262" lon="4.61182">
        <ele>463.68811035156</ele>
        <time>2017-09-01T19:35:28Z</time>
      </trkpt>
      <trkpt lat="45.77318" lon="4.61199">
        <ele>464.01211547852</ele>
        <time>2017-09-01T19:35:36Z</time>
      </trkpt>
      <trkpt lat="45.77338" lon="4.61209">
        <ele>464.05905151367</ele>
        <time>2017-09-01T19:35:51Z</time>
      </trkpt>
      <trkpt lat="45.77356" lon="4.61222">
        <ele>463.3850402832</ele>
        <time>2017-09-01T19:35:57Z</time>
      </trkpt>
      <trkpt lat="45.77414" lon="4.61273">
        <ele>459.65353393555</ele>
        <time>2017-09-01T19:36:02Z</time>
      </trkpt>
      <trkpt lat="45.77423" lon="4.61276">
        <ele>458.55386352539</ele>
        <time>2017-09-01T19:36:20Z</time>
      </trkpt>
      <trkpt lat="45.77433" lon="4.61289">
        <ele>458.10293579102</ele>
        <time>2017-09-01T19:36:22Z</time>
      </trkpt>
      <trkpt lat="45.77443" lon="4.61305">
        <ele>456.95355224609</ele>
        <time>2017-09-01T19:36:26Z</time>
      </trkpt>
      <trkpt lat="45.77443" lon="4.61306">
        <ele>456.91952514648</ele>
        <time>2017-09-01T19:36:30Z</time>
      </trkpt>
      <trkpt lat="45.77443" lon="4.61306">
        <ele>456.91952514648</ele>
        <time>2017-09-01T19:36:30Z</time>
      </trkpt>
      <trkpt lat="45.77447" lon="4.61315">
        <ele>456.21533203125</ele>
        <time>2017-09-01T19:36:30Z</time>
      </trkpt>
      <trkpt lat="45.77442" lon="4.61332">
        <ele>455.79852294922</ele>
        <time>2017-09-01T19:36:32Z</time>
      </trkpt>
      <trkpt lat="45.77435" lon="4.61342">
        <ele>454.70697021484</ele>
        <time>2017-09-01T19:36:35Z</time>
      </trkpt>
      <trkpt lat="45.77427" lon="4.61349">
        <ele>453.84704589844</ele>
        <time>2017-09-01T19:36:38Z</time>
      </trkpt>
      <trkpt lat="45.77422" lon="4.61355">
        <ele>453.50039672852</ele>
        <time>2017-09-01T19:36:41Z</time>
      </trkpt>
      <trkpt lat="45.77402" lon="4.61371">
        <ele>452.17706298828</ele>
        <time>2017-09-01T19:36:43Z</time>
      </trkpt>
      <trkpt lat="45.77366" lon="4.61392">
        <ele>449.17291259766</ele>
        <time>2017-09-01T19:36:49Z</time>
      </trkpt>
      <trkpt lat="45.77357" lon="4.61401">
        <ele>448.58731079102</ele>
        <time>2017-09-01T19:36:59Z</time>
      </trkpt>
      <trkpt lat="45.77351" lon="4.61414">
        <ele>448.33312988281</ele>
        <time>2017-09-01T19:37:02Z</time>
      </trkpt>
      <trkpt lat="45.77348" lon="4.61431">
        <ele>448.72045898438</ele>
        <time>2017-09-01T19:37:05Z</time>
      </trkpt>
      <trkpt lat="45.77349" lon="4.61443">
        <ele>448.40701293945</ele>
        <time>2017-09-01T19:37:08Z</time>
      </trkpt>
      <trkpt lat="45.77356" lon="4.61459">
        <ele>448.12756347656</ele>
        <time>2017-09-01T19:37:10Z</time>
      </trkpt>
      <trkpt lat="45.77364" lon="4.61472">
        <ele>447.59112548828</ele>
        <time>2017-09-01T19:37:14Z</time>
      </trkpt>
      <trkpt lat="45.77363" lon="4.61475">
        <ele>448.25170898438</ele>
        <time>2017-09-01T19:37:17Z</time>
      </trkpt>
      <trkpt lat="45.77367" lon="4.61488">
        <ele>448.79870605469</ele>
        <time>2017-09-01T19:37:18Z</time>
      </trkpt>
      <trkpt lat="45.77367" lon="4.61488">
        <ele>448.79870605469</ele>
        <time>2017-09-01T19:37:21Z</time>
      </trkpt>
      <trkpt lat="45.77389" lon="4.6154">
        <ele>454.17657470703</ele>
        <time>2017-09-01T19:37:21Z</time>
      </trkpt>
      <trkpt lat="45.77434" lon="4.61657">
        <ele>464.62753295898</ele>
        <time>2017-09-01T19:37:32Z</time>
      </trkpt>
      <trkpt lat="45.77457" lon="4.6173">
        <ele>481.00033569336</ele>
        <time>2017-09-01T19:37:57Z</time>
      </trkpt>
      <trkpt lat="45.77468" lon="4.61773">
        <ele>483.83065795898</ele>
        <time>2017-09-01T19:38:12Z</time>
      </trkpt>
      <trkpt lat="45.77482" lon="4.61841">
        <ele>492.25631713867</ele>
        <time>2017-09-01T19:38:21Z</time>
      </trkpt>
      <trkpt lat="45.77495" lon="4.61887">
        <ele>494.02136230469</ele>
        <time>2017-09-01T19:38:34Z</time>
      </trkpt>
      <trkpt lat="45.77515" lon="4.61932">
        <ele>494.22619628906</ele>
        <time>2017-09-01T19:38:43Z</time>
      </trkpt>
      <trkpt lat="45.7753" lon="4.61959">
        <ele>496.57168579102</ele>
        <time>2017-09-01T19:38:53Z</time>
      </trkpt>
      <trkpt lat="45.7755" lon="4.61988">
        <ele>504.90667724609</ele>
        <time>2017-09-01T19:38:59Z</time>
      </trkpt>
      <trkpt lat="45.7755" lon="4.61988">
        <ele>504.90667724609</ele>
        <time>2017-09-01T19:39:07Z</time>
      </trkpt>
      <trkpt lat="45.77568" lon="4.62013">
        <ele>507.4140625</ele>
        <time>2017-09-01T19:39:07Z</time>
      </trkpt>
      <trkpt lat="45.77578" lon="4.62037">
        <ele>508.69506835938</ele>
        <time>2017-09-01T19:39:14Z</time>
      </trkpt>
      <trkpt lat="45.77579" lon="4.62047">
        <ele>509.99499511719</ele>
        <time>2017-09-01T19:39:19Z</time>
      </trkpt>
      <trkpt lat="45.77577" lon="4.62058">
        <ele>511.94430541992</ele>
        <time>2017-09-01T19:39:21Z</time>
      </trkpt>
      <trkpt lat="45.77574" lon="4.62075">
        <ele>514.95086669922</ele>
        <time>2017-09-01T19:39:23Z</time>
      </trkpt>
      <trkpt lat="45.77561" lon="4.62095">
        <ele>521.42224121094</ele>
        <time>2017-09-01T19:39:26Z</time>
      </trkpt>
      <trkpt lat="45.77527" lon="4.62136">
        <ele>527.30731201172</ele>
        <time>2017-09-01T19:39:31Z</time>
      </trkpt>
      <trkpt lat="45.77512" lon="4.62171">
        <ele>533.11694335938</ele>
        <time>2017-09-01T19:39:43Z</time>
      </trkpt>
      <trkpt lat="45.77496" lon="4.62254">
        <ele>533.36291503906</ele>
        <time>2017-09-01T19:39:51Z</time>
      </trkpt>
      <trkpt lat="45.77485" lon="4.62297">
        <ele>543.92126464844</ele>
        <time>2017-09-01T19:40:07Z</time>
      </trkpt>
      <trkpt lat="45.77484" lon="4.62325">
        <ele>544.34674072266</ele>
        <time>2017-09-01T19:40:16Z</time>
      </trkpt>
      <trkpt lat="45.77487" lon="4.62369">
        <ele>546.01849365234</ele>
        <time>2017-09-01T19:40:21Z</time>
      </trkpt>
      <trkpt lat="45.77492" lon="4.62385">
        <ele>543.46441650391</ele>
        <time>2017-09-01T19:40:29Z</time>
      </trkpt>
      <trkpt lat="45.77498" lon="4.62394">
        <ele>542.49072265625</ele>
        <time>2017-09-01T19:40:32Z</time>
      </trkpt>
      <trkpt lat="45.77503" lon="4.62396">
        <ele>542.853515625</ele>
        <time>2017-09-01T19:40:34Z</time>
      </trkpt>
      <trkpt lat="45.77532" lon="4.624">
        <ele>541.18139648438</ele>
        <time>2017-09-01T19:40:35Z</time>
      </trkpt>
      <trkpt lat="45.77547" lon="4.62407">
        <ele>540.18505859375</ele>
        <time>2017-09-01T19:40:43Z</time>
      </trkpt>
      <trkpt lat="45.77574" lon="4.62425">
        <ele>540.41046142578</ele>
        <time>2017-09-01T19:40:47Z</time>
      </trkpt>
      <trkpt lat="45.77601" lon="4.62445">
        <ele>536.18621826172</ele>
        <time>2017-09-01T19:40:55Z</time>
      </trkpt>
      <trkpt lat="45.77635" lon="4.62479">
        <ele>544.60290527344</ele>
        <time>2017-09-01T19:41:03Z</time>
      </trkpt>
      <trkpt lat="45.77714" lon="4.62579">
        <ele>543.86071777344</ele>
        <time>2017-09-01T19:41:14Z</time>
      </trkpt>
      <trkpt lat="45.77735" lon="4.62608">
        <ele>536.69714355469</ele>
        <time>2017-09-01T19:41:42Z</time>
      </trkpt>
      <trkpt lat="45.77751" lon="4.62636">
        <ele>532.05102539062</ele>
        <time>2017-09-01T19:41:50Z</time>
      </trkpt>
      <trkpt lat="45.77761" lon="4.62668">
        <ele>534.46911621094</ele>
        <time>2017-09-01T19:41:57Z</time>
      </trkpt>
      <trkpt lat="45.77763" lon="4.62677">
        <ele>536.95074462891</ele>
        <time>2017-09-01T19:42:04Z</time>
      </trkpt>
      <trkpt lat="45.77763" lon="4.62677">
        <ele>536.95074462891</ele>
        <time>2017-09-01T19:42:06Z</time>
      </trkpt>
      <trkpt lat="45.77765" lon="4.62688">
        <ele>539.31402587891</ele>
        <time>2017-09-01T19:42:06Z</time>
      </trkpt>
      <trkpt lat="45.77759" lon="4.62691">
        <ele>539.86828613281</ele>
        <time>2017-09-01T19:42:08Z</time>
      </trkpt>
      <trkpt lat="45.77742" lon="4.627">
        <ele>539.66052246094</ele>
        <time>2017-09-01T19:42:10Z</time>
      </trkpt>
      <trkpt lat="45.777" lon="4.62743">
        <ele>543.2548828125</ele>
        <time>2017-09-01T19:42:15Z</time>
      </trkpt>
      <trkpt lat="45.7768" lon="4.62762">
        <ele>549.49475097656</ele>
        <time>2017-09-01T19:42:29Z</time>
      </trkpt>
      <trkpt lat="45.77663" lon="4.62787">
        <ele>552.44805908203</ele>
        <time>2017-09-01T19:42:35Z</time>
      </trkpt>
      <trkpt lat="45.77647" lon="4.62826">
        <ele>553.26391601562</ele>
        <time>2017-09-01T19:42:42Z</time>
      </trkpt>
      <trkpt lat="45.77645" lon="4.62838">
        <ele>555.12957763672</ele>
        <time>2017-09-01T19:42:50Z</time>
      </trkpt>
      <trkpt lat="45.77645" lon="4.62838">
        <ele>555.12957763672</ele>
        <time>2017-09-01T19:42:52Z</time>
      </trkpt>
      <trkpt lat="45.77642" lon="4.62866">
        <ele>558.16845703125</ele>
        <time>2017-09-01T19:42:52Z</time>
      </trkpt>
      <trkpt lat="45.77644" lon="4.62889">
        <ele>561.27197265625</ele>
        <time>2017-09-01T19:42:57Z</time>
      </trkpt>
      <trkpt lat="45.77656" lon="4.62929">
        <ele>563.59771728516</ele>
        <time>2017-09-01T19:43:01Z</time>
      </trkpt>
      <trkpt lat="45.77671" lon="4.62971">
        <ele>567.08764648438</ele>
        <time>2017-09-01T19:43:09Z</time>
      </trkpt>
      <trkpt lat="45.77703" lon="4.6304">
        <ele>572.64764404297</ele>
        <time>2017-09-01T19:43:18Z</time>
      </trkpt>
      <trkpt lat="45.77706" lon="4.63058">
        <ele>572.36163330078</ele>
        <time>2017-09-01T19:43:33Z</time>
      </trkpt>
      <trkpt lat="45.77712" lon="4.63135">
        <ele>579.78619384766</ele>
        <time>2017-09-01T19:43:36Z</time>
      </trkpt>
      <trkpt lat="45.77716" lon="4.63193">
        <ele>583.96228027344</ele>
        <time>2017-09-01T19:43:50Z</time>
      </trkpt>
      <trkpt lat="45.77714" lon="4.6322">
        <ele>583.86682128906</ele>
        <time>2017-09-01T19:44:01Z</time>
      </trkpt>
      <trkpt lat="45.77707" lon="4.63245">
        <ele>584.43725585938</ele>
        <time>2017-09-01T19:44:06Z</time>
      </trkpt>
      <trkpt lat="45.77689" lon="4.63279">
        <ele>587.26721191406</ele>
        <time>2017-09-01T19:44:11Z</time>
      </trkpt>
      <trkpt lat="45.77658" lon="4.63313">
        <ele>590.07293701172</ele>
        <time>2017-09-01T19:44:19Z</time>
      </trkpt>
      <trkpt lat="45.77606" lon="4.63351">
        <ele>591.91571044922</ele>
        <time>2017-09-01T19:44:29Z</time>
      </trkpt>
      <trkpt lat="45.77585" lon="4.63358">
        <ele>592.92095947266</ele>
        <time>2017-09-01T19:44:45Z</time>
      </trkpt>
      <trkpt lat="45.77566" lon="4.63366">
        <ele>597.20556640625</ele>
        <time>2017-09-01T19:44:51Z</time>
      </trkpt>
      <trkpt lat="45.77545" lon="4.63379">
        <ele>601.05841064453</ele>
        <time>2017-09-01T19:44:56Z</time>
      </trkpt>
      <trkpt lat="45.77522" lon="4.634">
        <ele>602.85406494141</ele>
        <time>2017-09-01T19:45:02Z</time>
      </trkpt>
      <trkpt lat="45.77508" lon="4.63417">
        <ele>600.62939453125</ele>
        <time>2017-09-01T19:45:09Z</time>
      </trkpt>
      <trkpt lat="45.77502" lon="4.63436">
        <ele>594.41265869141</ele>
        <time>2017-09-01T19:45:14Z</time>
      </trkpt>
      <trkpt lat="45.77502" lon="4.63464">
        <ele>603.99700927734</ele>
        <time>2017-09-01T19:45:18Z</time>
      </trkpt>
      <trkpt lat="45.77525" lon="4.63562">
        <ele>604.67034912109</ele>
        <time>2017-09-01T19:45:23Z</time>
      </trkpt>
      <trkpt lat="45.7756" lon="4.63698">
        <ele>613.89166259766</ele>
        <time>2017-09-01T19:45:42Z</time>
      </trkpt>
      <trkpt lat="45.77564" lon="4.63732">
        <ele>615.28894042969</ele>
        <time>2017-09-01T19:46:09Z</time>
      </trkpt>
      <trkpt lat="45.77576" lon="4.63789">
        <ele>614.66760253906</ele>
        <time>2017-09-01T19:46:15Z</time>
      </trkpt>
      <trkpt lat="45.77585" lon="4.63846">
        <ele>611.79089355469</ele>
        <time>2017-09-01T19:46:26Z</time>
      </trkpt>
      <trkpt lat="45.77585" lon="4.63846">
        <ele>611.79089355469</ele>
        <time>2017-09-01T19:46:37Z</time>
      </trkpt>
      <trkpt lat="45.77586" lon="4.63853">
        <ele>609.96203613281</ele>
        <time>2017-09-01T19:46:37Z</time>
      </trkpt>
      <trkpt lat="45.77634" lon="4.63883">
        <ele>609.01379394531</ele>
        <time>2017-09-01T19:46:38Z</time>
      </trkpt>
      <trkpt lat="45.77672" lon="4.63905">
        <ele>608.13934326172</ele>
        <time>2017-09-01T19:46:52Z</time>
      </trkpt>
      <trkpt lat="45.77692" lon="4.63922">
        <ele>607.16467285156</ele>
        <time>2017-09-01T19:47:03Z</time>
      </trkpt>
      <trkpt lat="45.77708" lon="4.6393">
        <ele>606.8935546875</ele>
        <time>2017-09-01T19:47:09Z</time>
      </trkpt>
      <trkpt lat="45.77723" lon="4.63929">
        <ele>606.72900390625</ele>
        <time>2017-09-01T19:47:14Z</time>
      </trkpt>
      <trkpt lat="45.77734" lon="4.63931">
        <ele>606.34991455078</ele>
        <time>2017-09-01T19:47:18Z</time>
      </trkpt>
      <trkpt lat="45.77764" lon="4.63955">
        <ele>604.92193603516</ele>
        <time>2017-09-01T19:47:21Z</time>
      </trkpt>
      <trkpt lat="45.77781" lon="4.63972">
        <ele>604.72668457031</ele>
        <time>2017-09-01T19:47:30Z</time>
      </trkpt>
      <trkpt lat="45.7779" lon="4.63984">
        <ele>604.36676025391</ele>
        <time>2017-09-01T19:47:36Z</time>
      </trkpt>
      <trkpt lat="45.7779" lon="4.63984">
        <ele>604.36676025391</ele>
        <time>2017-09-01T19:47:39Z</time>
      </trkpt>
      <trkpt lat="45.77794" lon="4.6399">
        <ele>603.98394775391</ele>
        <time>2017-09-01T19:47:39Z</time>
      </trkpt>
      <trkpt lat="45.77797" lon="4.63984">
        <ele>604.3525390625</ele>
        <time>2017-09-01T19:47:41Z</time>
      </trkpt>
      <trkpt lat="45.778" lon="4.63972">
        <ele>604.14471435547</ele>
        <time>2017-09-01T19:47:42Z</time>
      </trkpt>
      <trkpt lat="45.77813" lon="4.63972">
        <ele>605.52764892578</ele>
        <time>2017-09-01T19:47:44Z</time>
      </trkpt>
      <trkpt lat="45.77821" lon="4.6397">
        <ele>605.69152832031</ele>
        <time>2017-09-01T19:47:47Z</time>
      </trkpt>
      <trkpt lat="45.77828" lon="4.63958">
        <ele>605.04888916016</ele>
        <time>2017-09-01T19:47:49Z</time>
      </trkpt>
      <trkpt lat="45.77838" lon="4.63961">
        <ele>605.86120605469</ele>
        <time>2017-09-01T19:47:52Z</time>
      </trkpt>
      <trkpt lat="45.77852" lon="4.63962">
        <ele>607.25720214844</ele>
        <time>2017-09-01T19:47:55Z</time>
      </trkpt>
      <trkpt lat="45.77866" lon="4.63964">
        <ele>609.15667724609</ele>
        <time>2017-09-01T19:47:59Z</time>
      </trkpt>
      <trkpt lat="45.77882" lon="4.63973">
        <ele>612.19805908203</ele>
        <time>2017-09-01T19:48:03Z</time>
      </trkpt>
      <trkpt lat="45.77902" lon="4.63985">
        <ele>615.34240722656</ele>
        <time>2017-09-01T19:48:08Z</time>
      </trkpt>
      <trkpt lat="45.77916" lon="4.63983">
        <ele>621.26684570312</ele>
        <time>2017-09-01T19:48:14Z</time>
      </trkpt>
      <trkpt lat="45.77935" lon="4.63982">
        <ele>627.892578125</ele>
        <time>2017-09-01T19:48:18Z</time>
      </trkpt>
      <trkpt lat="45.77953" lon="4.63971">
        <ele>629.61950683594</ele>
        <time>2017-09-01T19:48:23Z</time>
      </trkpt>
      <trkpt lat="45.77967" lon="4.6397">
        <ele>629.67620849609</ele>
        <time>2017-09-01T19:48:28Z</time>
      </trkpt>
      <trkpt lat="45.7802" lon="4.6398">
        <ele>632.19897460938</ele>
        <time>2017-09-01T19:48:32Z</time>
      </trkpt>
      <trkpt lat="45.78086" lon="4.63996">
        <ele>632.42321777344</ele>
        <time>2017-09-01T19:48:46Z</time>
      </trkpt>
      <trkpt lat="45.78123" lon="4.64001">
        <ele>633.42272949219</ele>
        <time>2017-09-01T19:49:04Z</time>
      </trkpt>
      <trkpt lat="45.78144" lon="4.64008">
        <ele>634.45532226562</ele>
        <time>2017-09-01T19:49:14Z</time>
      </trkpt>
      <trkpt lat="45.78164" lon="4.64027">
        <ele>635.90057373047</ele>
        <time>2017-09-01T19:49:20Z</time>
      </trkpt>
      <trkpt lat="45.78177" lon="4.64035">
        <ele>636.53228759766</ele>
        <time>2017-09-01T19:49:26Z</time>
      </trkpt>
      <trkpt lat="45.78209" lon="4.64045">
        <ele>636.22863769531</ele>
        <time>2017-09-01T19:49:30Z</time>
      </trkpt>
      <trkpt lat="45.78225" lon="4.6405">
        <ele>635.50451660156</ele>
        <time>2017-09-01T19:49:39Z</time>
      </trkpt>
      <trkpt lat="45.78225" lon="4.6405">
        <ele>635.50451660156</ele>
        <time>2017-09-01T19:49:43Z</time>
      </trkpt>
      <trkpt lat="45.78209" lon="4.64045">
        <ele>636.22863769531</ele>
        <time>2017-09-01T19:49:43Z</time>
      </trkpt>
      <trkpt lat="45.78235" lon="4.64043">
        <ele>634.10894775391</ele>
        <time>2017-09-01T19:49:47Z</time>
      </trkpt>
      <trkpt lat="45.78255" lon="4.64035">
        <ele>627.78784179688</ele>
        <time>2017-09-01T19:49:54Z</time>
      </trkpt>
      <trkpt lat="45.78264" lon="4.64023">
        <ele>624.03857421875</ele>
        <time>2017-09-01T19:50:00Z</time>
      </trkpt>
      <trkpt lat="45.78268" lon="4.64008">
        <ele>621.794921875</ele>
        <time>2017-09-01T19:50:03Z</time>
      </trkpt>
      <trkpt lat="45.7827" lon="4.63985">
        <ele>619.96044921875</ele>
        <time>2017-09-01T19:50:06Z</time>
      </trkpt>
      <trkpt lat="45.78268" lon="4.63962">
        <ele>619.03881835938</ele>
        <time>2017-09-01T19:50:10Z</time>
      </trkpt>
      <trkpt lat="45.78265" lon="4.63944">
        <ele>622.1513671875</ele>
        <time>2017-09-01T19:50:14Z</time>
      </trkpt>
      <trkpt lat="45.78265" lon="4.63892">
        <ele>620.6982421875</ele>
        <time>2017-09-01T19:50:17Z</time>
      </trkpt>
      <trkpt lat="45.78268" lon="4.63863">
        <ele>617.39794921875</ele>
        <time>2017-09-01T19:50:27Z</time>
      </trkpt>
      <trkpt lat="45.78264" lon="4.6382">
        <ele>618.34979248047</ele>
        <time>2017-09-01T19:50:32Z</time>
      </trkpt>
      <trkpt lat="45.78263" lon="4.6379">
        <ele>616.30053710938</ele>
        <time>2017-09-01T19:50:40Z</time>
      </trkpt>
      <trkpt lat="45.78253" lon="4.63766">
        <ele>612.00128173828</ele>
        <time>2017-09-01T19:50:46Z</time>
      </trkpt>
      <trkpt lat="45.78248" lon="4.63723">
        <ele>610.14794921875</ele>
        <time>2017-09-01T19:50:51Z</time>
      </trkpt>
      <trkpt lat="45.78224" lon="4.63616">
        <ele>595.84899902344</ele>
        <time>2017-09-01T19:50:59Z</time>
      </trkpt>
      <trkpt lat="45.78208" lon="4.63534">
        <ele>585.03692626953</ele>
        <time>2017-09-01T19:51:20Z</time>
      </trkpt>
      <trkpt lat="45.78192" lon="4.63476">
        <ele>575.16809082031</ele>
        <time>2017-09-01T19:51:36Z</time>
      </trkpt>
      <trkpt lat="45.7818" lon="4.63442">
        <ele>569.19342041016</ele>
        <time>2017-09-01T19:51:48Z</time>
      </trkpt>
      <trkpt lat="45.78159" lon="4.63408">
        <ele>553.44244384766</ele>
        <time>2017-09-01T19:51:55Z</time>
      </trkpt>
      <trkpt lat="45.78147" lon="4.63348">
        <ele>547.06146240234</ele>
        <time>2017-09-01T19:52:03Z</time>
      </trkpt>
      <trkpt lat="45.78142" lon="4.63337">
        <ele>547.17932128906</ele>
        <time>2017-09-01T19:52:15Z</time>
      </trkpt>
      <trkpt lat="45.78137" lon="4.63312">
        <ele>545.52209472656</ele>
        <time>2017-09-01T19:52:17Z</time>
      </trkpt>
      <trkpt lat="45.78132" lon="4.63285">
        <ele>541.93139648438</ele>
        <time>2017-09-01T19:52:22Z</time>
      </trkpt>
      <trkpt lat="45.78135" lon="4.63259">
        <ele>536.77087402344</ele>
        <time>2017-09-01T19:52:27Z</time>
      </trkpt>
      <trkpt lat="45.78133" lon="4.63231">
        <ele>532.25219726562</ele>
        <time>2017-09-01T19:52:32Z</time>
      </trkpt>
      <trkpt lat="45.78126" lon="4.63197">
        <ele>524.55963134766</ele>
        <time>2017-09-01T19:52:37Z</time>
      </trkpt>
      <trkpt lat="45.78126" lon="4.63171">
        <ele>520.22735595703</ele>
        <time>2017-09-01T19:52:44Z</time>
      </trkpt>
      <trkpt lat="45.78131" lon="4.63141">
        <ele>517.56335449219</ele>
        <time>2017-09-01T19:52:49Z</time>
      </trkpt>
      <trkpt lat="45.78143" lon="4.63114">
        <ele>517.37573242188</ele>
        <time>2017-09-01T19:52:55Z</time>
      </trkpt>
      <trkpt lat="45.78163" lon="4.63083">
        <ele>512.05096435547</ele>
        <time>2017-09-01T19:53:01Z</time>
      </trkpt>
      <trkpt lat="45.78201" lon="4.63014">
        <ele>501.41604614258</ele>
        <time>2017-09-01T19:53:09Z</time>
      </trkpt>
      <trkpt lat="45.78215" lon="4.62995">
        <ele>498.12759399414</ele>
        <time>2017-09-01T19:53:25Z</time>
      </trkpt>
      <trkpt lat="45.78238" lon="4.62953">
        <ele>492.68560791016</ele>
        <time>2017-09-01T19:53:30Z</time>
      </trkpt>
      <trkpt lat="45.7825" lon="4.62939">
        <ele>489.99465942383</ele>
        <time>2017-09-01T19:53:40Z</time>
      </trkpt>
      <trkpt lat="45.78258" lon="4.62934">
        <ele>488.51754760742</ele>
        <time>2017-09-01T19:53:44Z</time>
      </trkpt>
      <trkpt lat="45.7827" lon="4.62915">
        <ele>485.67437744141</ele>
        <time>2017-09-01T19:53:46Z</time>
      </trkpt>
      <trkpt lat="45.78274" lon="4.62897">
        <ele>483.12692260742</ele>
        <time>2017-09-01T19:53:51Z</time>
      </trkpt>
      <trkpt lat="45.78273" lon="4.62872">
        <ele>479.8430480957</ele>
        <time>2017-09-01T19:53:55Z</time>
      </trkpt>
      <trkpt lat="45.78264" lon="4.62846">
        <ele>477.16888427734</ele>
        <time>2017-09-01T19:54:00Z</time>
      </trkpt>
      <trkpt lat="45.78254" lon="4.62829">
        <ele>475.98956298828</ele>
        <time>2017-09-01T19:54:05Z</time>
      </trkpt>
      <trkpt lat="45.78275" lon="4.62826">
        <ele>470.51629638672</ele>
        <time>2017-09-01T19:54:09Z</time>
      </trkpt>
      <trkpt lat="45.78298" lon="4.62827">
        <ele>465.49697875977</ele>
        <time>2017-09-01T19:54:15Z</time>
      </trkpt>
      <trkpt lat="45.78308" lon="4.6283">
        <ele>462.84194946289</ele>
        <time>2017-09-01T19:54:21Z</time>
      </trkpt>
      <trkpt lat="45.78318" lon="4.62836">
        <ele>460.16390991211</ele>
        <time>2017-09-01T19:54:24Z</time>
      </trkpt>
      <trkpt lat="45.78332" lon="4.62855">
        <ele>458.83013916016</ele>
        <time>2017-09-01T19:54:27Z</time>
      </trkpt>
      <trkpt lat="45.78355" lon="4.6291">
        <ele>447.75665283203</ele>
        <time>2017-09-01T19:54:32Z</time>
      </trkpt>
      <trkpt lat="45.78369" lon="4.62935">
        <ele>441.59896850586</ele>
        <time>2017-09-01T19:54:44Z</time>
      </trkpt>
      <trkpt lat="45.78373" lon="4.62937">
        <ele>439.51773071289</ele>
        <time>2017-09-01T19:54:50Z</time>
      </trkpt>
      <trkpt lat="45.7838" lon="4.62935">
        <ele>435.55285644531</ele>
        <time>2017-09-01T19:54:51Z</time>
      </trkpt>
      <trkpt lat="45.78395" lon="4.62909">
        <ele>426.70083618164</ele>
        <time>2017-09-01T19:54:53Z</time>
      </trkpt>
      <trkpt lat="45.7841" lon="4.62871">
        <ele>419.43173217773</ele>
        <time>2017-09-01T19:54:59Z</time>
      </trkpt>
      <trkpt lat="45.78467" lon="4.62827">
        <ele>414.43026733398</ele>
        <time>2017-09-01T19:55:07Z</time>
      </trkpt>
      <trkpt lat="45.78491" lon="4.62813">
        <ele>411.80154418945</ele>
        <time>2017-09-01T19:55:24Z</time>
      </trkpt>
      <trkpt lat="45.78498" lon="4.62802">
        <ele>410.74938964844</ele>
        <time>2017-09-01T19:55:31Z</time>
      </trkpt>
      <trkpt lat="45.78514" lon="4.62804">
        <ele>409.50491333008</ele>
        <time>2017-09-01T19:55:34Z</time>
      </trkpt>
      <trkpt lat="45.7852" lon="4.62801">
        <ele>409.73672485352</ele>
        <time>2017-09-01T19:55:38Z</time>
      </trkpt>
      <trkpt lat="45.78524" lon="4.62776">
        <ele>409.60089111328</ele>
        <time>2017-09-01T19:55:40Z</time>
      </trkpt>
      <trkpt lat="45.78523" lon="4.62744">
        <ele>405.8779296875</ele>
        <time>2017-09-01T19:55:45Z</time>
      </trkpt>
      <trkpt lat="45.78526" lon="4.62713">
        <ele>401.4697265625</ele>
        <time>2017-09-01T19:55:51Z</time>
      </trkpt>
      <trkpt lat="45.78528" lon="4.62702">
        <ele>399.05029296875</ele>
        <time>2017-09-01T19:55:57Z</time>
      </trkpt>
      <trkpt lat="45.78526" lon="4.62699">
        <ele>399.1083984375</ele>
        <time>2017-09-01T19:55:59Z</time>
      </trkpt>
      <trkpt lat="45.7852" lon="4.62687">
        <ele>401.44311523438</ele>
        <time>2017-09-01T19:56:00Z</time>
      </trkpt>
      <trkpt lat="45.78518" lon="4.62666">
        <ele>400.94491577148</ele>
        <time>2017-09-01T19:56:03Z</time>
      </trkpt>
      <trkpt lat="45.78522" lon="4.62658">
        <ele>402.21273803711</ele>
        <time>2017-09-01T19:56:07Z</time>
      </trkpt>
      <trkpt lat="45.78547" lon="4.62636">
        <ele>399.13238525391</ele>
        <time>2017-09-01T19:56:09Z</time>
      </trkpt>
      <trkpt lat="45.78623" lon="4.62577">
        <ele>395.01940917969</ele>
        <time>2017-09-01T19:56:17Z</time>
      </trkpt>
      <trkpt lat="45.78651" lon="4.62551">
        <ele>395.59045410156</ele>
        <time>2017-09-01T19:56:40Z</time>
      </trkpt>
      <trkpt lat="45.78677" lon="4.62532">
        <ele>395.71771240234</ele>
        <time>2017-09-01T19:56:49Z</time>
      </trkpt>
      <trkpt lat="45.78694" lon="4.62522">
        <ele>396.13275146484</ele>
        <time>2017-09-01T19:56:57Z</time>
      </trkpt>
      <trkpt lat="45.78751" lon="4.62505">
        <ele>397.98004150391</ele>
        <time>2017-09-01T19:57:02Z</time>
      </trkpt>
      <trkpt lat="45.78814" lon="4.62484">
        <ele>392.63339233398</ele>
        <time>2017-09-01T19:57:18Z</time>
      </trkpt>
      <trkpt lat="45.78843" lon="4.6246">
        <ele>394.73648071289</ele>
        <time>2017-09-01T19:57:35Z</time>
      </trkpt>
      <trkpt lat="45.78908" lon="4.62422">
        <ele>388.52420043945</ele>
        <time>2017-09-01T19:57:44Z</time>
      </trkpt>
      <trkpt lat="45.78947" lon="4.62401">
        <ele>388.32388305664</ele>
        <time>2017-09-01T19:58:03Z</time>
      </trkpt>
      <trkpt lat="45.78997" lon="4.62369">
        <ele>385.87124633789</ele>
        <time>2017-09-01T19:58:14Z</time>
      </trkpt>
      <trkpt lat="45.79028" lon="4.6235">
        <ele>381.16772460938</ele>
        <time>2017-09-01T19:58:29Z</time>
      </trkpt>
      <trkpt lat="45.79044" lon="4.62344">
        <ele>378.05685424805</ele>
        <time>2017-09-01T19:58:38Z</time>
      </trkpt>
      <trkpt lat="45.79077" lon="4.62338">
        <ele>375.8332824707</ele>
        <time>2017-09-01T19:58:42Z</time>
      </trkpt>
      <trkpt lat="45.79087" lon="4.62333">
        <ele>375.26382446289</ele>
        <time>2017-09-01T19:58:51Z</time>
      </trkpt>
      <trkpt lat="45.79099" lon="4.62322">
        <ele>373.97561645508</ele>
        <time>2017-09-01T19:58:54Z</time>
      </trkpt>
      <trkpt lat="45.791" lon="4.62319">
        <ele>373.78387451172</ele>
        <time>2017-09-01T19:58:58Z</time>
      </trkpt>
      <trkpt lat="45.79106" lon="4.62321">
        <ele>373.07614135742</ele>
        <time>2017-09-01T19:58:59Z</time>
      </trkpt>
      <trkpt lat="45.79106" lon="4.62321">
        <ele>373.07614135742</ele>
        <time>2017-09-01T19:59:01Z</time>
      </trkpt>
      <trkpt lat="45.79123" lon="4.62322">
        <ele>371.47793579102</ele>
        <time>2017-09-01T19:59:01Z</time>
      </trkpt>
      <trkpt lat="45.79135" lon="4.6233">
        <ele>369.51519775391</ele>
        <time>2017-09-01T19:59:06Z</time>
      </trkpt>
      <trkpt lat="45.79139" lon="4.62374">
        <ele>365.94073486328</ele>
        <time>2017-09-01T19:59:10Z</time>
      </trkpt>
      <trkpt lat="45.79143" lon="4.62406">
        <ele>359.05276489258</ele>
        <time>2017-09-01T19:59:18Z</time>
      </trkpt>
      <trkpt lat="45.79151" lon="4.6244">
        <ele>355.72332763672</ele>
        <time>2017-09-01T19:59:24Z</time>
      </trkpt>
      <trkpt lat="45.79155" lon="4.62465">
        <ele>354.74130249023</ele>
        <time>2017-09-01T19:59:31Z</time>
      </trkpt>
      <trkpt lat="45.79157" lon="4.6251">
        <ele>357.03359985352</ele>
        <time>2017-09-01T19:59:36Z</time>
      </trkpt>
      <trkpt lat="45.79163" lon="4.62513">
        <ele>356.89407348633</ele>
        <time>2017-09-01T19:59:44Z</time>
      </trkpt>
      <trkpt lat="45.79164" lon="4.62514">
        <ele>356.96002197266</ele>
        <time>2017-09-01T19:59:46Z</time>
      </trkpt>
      <trkpt lat="45.79164" lon="4.62514">
        <ele>356.96002197266</ele>
        <time>2017-09-01T19:59:46Z</time>
      </trkpt>
      <trkpt lat="45.79182" lon="4.62515">
        <ele>356.99057006836</ele>
        <time>2017-09-01T19:59:46Z</time>
      </trkpt>
      <trkpt lat="45.79226" lon="4.62521">
        <ele>355.24383544922</ele>
        <time>2017-09-01T19:59:51Z</time>
      </trkpt>
      <trkpt lat="45.79245" lon="4.62526">
        <ele>355.49011230469</ele>
        <time>2017-09-01T20:00:03Z</time>
      </trkpt>
      <trkpt lat="45.79259" lon="4.62533">
        <ele>355.60220336914</ele>
        <time>2017-09-01T20:00:08Z</time>
      </trkpt>
      <trkpt lat="45.79302" lon="4.62563">
        <ele>356.78948974609</ele>
        <time>2017-09-01T20:00:12Z</time>
      </trkpt>
      <trkpt lat="45.79348" lon="4.62598">
        <ele>361.69076538086</ele>
        <time>2017-09-01T20:00:25Z</time>
      </trkpt>
      <trkpt lat="45.79348" lon="4.62601">
        <ele>361.98907470703</ele>
        <time>2017-09-01T20:00:39Z</time>
      </trkpt>
      <trkpt lat="45.79351" lon="4.62623">
        <ele>364.55282592773</ele>
        <time>2017-09-01T20:00:40Z</time>
      </trkpt>
      <trkpt lat="45.7936" lon="4.62618">
        <ele>364.07736206055</ele>
        <time>2017-09-01T20:00:44Z</time>
      </trkpt>
      <trkpt lat="45.79398" lon="4.62607">
        <ele>363.58242797852</ele>
        <time>2017-09-01T20:00:47Z</time>
      </trkpt>
      <trkpt lat="45.79478" lon="4.62575">
        <ele>362.51638793945</ele>
        <time>2017-09-01T20:00:57Z</time>
      </trkpt>
      <trkpt lat="45.79495" lon="4.6257">
        <ele>362.38433837891</ele>
        <time>2017-09-01T20:01:19Z</time>
      </trkpt>
      <trkpt lat="45.79522" lon="4.62567">
        <ele>362.15481567383</ele>
        <time>2017-09-01T20:01:24Z</time>
      </trkpt>
      <trkpt lat="45.79541" lon="4.62563">
        <ele>361.44869995117</ele>
        <time>2017-09-01T20:01:31Z</time>
      </trkpt>
      <trkpt lat="45.79578" lon="4.62564">
        <ele>358.30590820312</ele>
        <time>2017-09-01T20:01:36Z</time>
      </trkpt>
      <trkpt lat="45.79616" lon="4.62568">
        <ele>353.61145019531</ele>
        <time>2017-09-01T20:01:46Z</time>
      </trkpt>
      <trkpt lat="45.79646" lon="4.62564">
        <ele>347.59613037109</ele>
        <time>2017-09-01T20:01:56Z</time>
      </trkpt>
      <trkpt lat="45.7968" lon="4.62556">
        <ele>341.88568115234</ele>
        <time>2017-09-01T20:02:04Z</time>
      </trkpt>
      <trkpt lat="45.7971" lon="4.62544">
        <ele>338.24377441406</ele>
        <time>2017-09-01T20:02:13Z</time>
      </trkpt>
      <trkpt lat="45.79717" lon="4.62549">
        <ele>336.52401733398</ele>
        <time>2017-09-01T20:02:21Z</time>
      </trkpt>
      <trkpt lat="45.79722" lon="4.62562">
        <ele>335.18203735352</ele>
        <time>2017-09-01T20:02:23Z</time>
      </trkpt>
      <trkpt lat="45.79724" lon="4.62573">
        <ele>334.53857421875</ele>
        <time>2017-09-01T20:02:26Z</time>
      </trkpt>
      <trkpt lat="45.79731" lon="4.62574">
        <ele>332.56298828125</ele>
        <time>2017-09-01T20:02:28Z</time>
      </trkpt>
      <trkpt lat="45.79747" lon="4.62561">
        <ele>327.49633789062</ele>
        <time>2017-09-01T20:02:30Z</time>
      </trkpt>
      <trkpt lat="45.79752" lon="4.62551">
        <ele>326.21957397461</ele>
        <time>2017-09-01T20:02:35Z</time>
      </trkpt>
      <trkpt lat="45.79759" lon="4.6253">
        <ele>324.70849609375</ele>
        <time>2017-09-01T20:02:37Z</time>
      </trkpt>
      <trkpt lat="45.79771" lon="4.62522">
        <ele>324.11627197266</ele>
        <time>2017-09-01T20:02:41Z</time>
      </trkpt>
      <trkpt lat="45.79767" lon="4.62515">
        <ele>323.90286254883</ele>
        <time>2017-09-01T20:02:45Z</time>
      </trkpt>
      <trkpt lat="45.79767" lon="4.62515">
        <ele>323.90286254883</ele>
        <time>2017-09-01T20:02:47Z</time>
      </trkpt>
      <trkpt lat="45.79804" lon="4.6259">
        <ele>326.37438964844</ele>
        <time>2017-09-01T20:02:47Z</time>
      </trkpt>
      <trkpt lat="45.79819" lon="4.62616">
        <ele>327.85437011719</ele>
        <time>2017-09-01T20:03:04Z</time>
      </trkpt>
      <trkpt lat="45.79859" lon="4.62668">
        <ele>332.65277099609</ele>
        <time>2017-09-01T20:03:10Z</time>
      </trkpt>
      <trkpt lat="45.79872" lon="4.62679">
        <ele>333.55212402344</ele>
        <time>2017-09-01T20:03:24Z</time>
      </trkpt>
      <trkpt lat="45.79872" lon="4.62679">
        <ele>333.55212402344</ele>
        <time>2017-09-01T20:03:28Z</time>
      </trkpt>
      <trkpt lat="45.79876" lon="4.62678">
        <ele>333.82702636719</ele>
        <time>2017-09-01T20:03:28Z</time>
      </trkpt>
      <trkpt lat="45.79875" lon="4.62657">
        <ele>333.82806396484</ele>
        <time>2017-09-01T20:03:29Z</time>
      </trkpt>
      <trkpt lat="45.79868" lon="4.62596">
        <ele>333.34619140625</ele>
        <time>2017-09-01T20:03:33Z</time>
      </trkpt>
      <trkpt lat="45.79868" lon="4.6258">
        <ele>332.9919128418</ele>
        <time>2017-09-01T20:03:45Z</time>
      </trkpt>
      <trkpt lat="45.79872" lon="4.6253">
        <ele>332.02557373047</ele>
        <time>2017-09-01T20:03:48Z</time>
      </trkpt>
      <trkpt lat="45.79874" lon="4.62517">
        <ele>330.98858642578</ele>
        <time>2017-09-01T20:03:57Z</time>
      </trkpt>
      <trkpt lat="45.79877" lon="4.62516">
        <ele>331.68032836914</ele>
        <time>2017-09-01T20:03:59Z</time>
      </trkpt>
      <trkpt lat="45.79889" lon="4.62503">
        <ele>332.58114624023</ele>
        <time>2017-09-01T20:04:00Z</time>
      </trkpt>
      <trkpt lat="45.79895" lon="4.62491">
        <ele>333.16903686523</ele>
        <time>2017-09-01T20:04:04Z</time>
      </trkpt>
      <trkpt lat="45.79893" lon="4.62426">
        <ele>332.7174987793</ele>
        <time>2017-09-01T20:04:07Z</time>
      </trkpt>
      <trkpt lat="45.79896" lon="4.62381">
        <ele>332.95669555664</ele>
        <time>2017-09-01T20:04:19Z</time>
      </trkpt>
      <trkpt lat="45.79904" lon="4.62349">
        <ele>334.00009155273</ele>
        <time>2017-09-01T20:04:27Z</time>
      </trkpt>
      <trkpt lat="45.79918" lon="4.62313">
        <ele>334.07647705078</ele>
        <time>2017-09-01T20:04:33Z</time>
      </trkpt>
      <trkpt lat="45.79938" lon="4.62276">
        <ele>335.67178344727</ele>
        <time>2017-09-01T20:04:41Z</time>
      </trkpt>
      <trkpt lat="45.7994" lon="4.62262">
        <ele>334.27572631836</ele>
        <time>2017-09-01T20:04:50Z</time>
      </trkpt>
      <trkpt lat="45.79936" lon="4.62236">
        <ele>332.75106811523</ele>
        <time>2017-09-01T20:04:53Z</time>
      </trkpt>
      <trkpt lat="45.79929" lon="4.62221">
        <ele>331.57531738281</ele>
        <time>2017-09-01T20:04:58Z</time>
      </trkpt>
      <trkpt lat="45.7992" lon="4.62184">
        <ele>328.64318847656</ele>
        <time>2017-09-01T20:05:01Z</time>
      </trkpt>
      <trkpt lat="45.79917" lon="4.62176">
        <ele>327.73638916016</ele>
        <time>2017-09-01T20:05:08Z</time>
      </trkpt>
      <trkpt lat="45.79918" lon="4.62172">
        <ele>328.05862426758</ele>
        <time>2017-09-01T20:05:10Z</time>
      </trkpt>
      <trkpt lat="45.79918" lon="4.62162">
        <ele>328.12857055664</ele>
        <time>2017-09-01T20:05:11Z</time>
      </trkpt>
      <trkpt lat="45.79916" lon="4.62134">
        <ele>327.81713867188</ele>
        <time>2017-09-01T20:05:13Z</time>
      </trkpt>
      <trkpt lat="45.7992" lon="4.62111">
        <ele>328.18017578125</ele>
        <time>2017-09-01T20:05:18Z</time>
      </trkpt>
      <trkpt lat="45.79926" lon="4.62097">
        <ele>328.56814575195</ele>
        <time>2017-09-01T20:05:22Z</time>
      </trkpt>
      <trkpt lat="45.79948" lon="4.62077">
        <ele>330.00283813477</ele>
        <time>2017-09-01T20:05:25Z</time>
      </trkpt>
      <trkpt lat="45.79948" lon="4.62077">
        <ele>330.00283813477</ele>
        <time>2017-09-01T20:05:32Z</time>
      </trkpt>
      <trkpt lat="45.79991" lon="4.62043">
        <ele>332.36831665039</ele>
        <time>2017-09-01T20:05:32Z</time>
      </trkpt>
      <trkpt lat="45.79996" lon="4.62031">
        <ele>334.05233764648</ele>
        <time>2017-09-01T20:05:45Z</time>
      </trkpt>
      <trkpt lat="45.7999" lon="4.61957">
        <ele>335.55270385742</ele>
        <time>2017-09-01T20:05:48Z</time>
      </trkpt>
      <trkpt lat="45.79995" lon="4.61932">
        <ele>335.09463500977</ele>
        <time>2017-09-01T20:06:02Z</time>
      </trkpt>
      <trkpt lat="45.80004" lon="4.61908">
        <ele>334.13653564453</ele>
        <time>2017-09-01T20:06:07Z</time>
      </trkpt>
      <trkpt lat="45.80023" lon="4.61875">
        <ele>332.96197509766</ele>
        <time>2017-09-01T20:06:12Z</time>
      </trkpt>
      <trkpt lat="45.80044" lon="4.61851">
        <ele>332.5260925293</ele>
        <time>2017-09-01T20:06:20Z</time>
      </trkpt>
      <trkpt lat="45.8011" lon="4.61802">
        <ele>329.00799560547</ele>
        <time>2017-09-01T20:06:27Z</time>
      </trkpt>
      <trkpt lat="45.80137" lon="4.6176">
        <ele>327.71319580078</ele>
        <time>2017-09-01T20:06:47Z</time>
      </trkpt>
      <trkpt lat="45.80164" lon="4.61724">
        <ele>329.69476318359</ele>
        <time>2017-09-01T20:06:58Z</time>
      </trkpt>
      <trkpt lat="45.80164" lon="4.61724">
        <ele>329.69476318359</ele>
        <time>2017-09-01T20:07:08Z</time>
      </trkpt>
      <trkpt lat="45.80172" lon="4.61711">
        <ele>329.7594909668</ele>
        <time>2017-09-01T20:07:08Z</time>
      </trkpt>
      <trkpt lat="45.8018" lon="4.61708">
        <ele>329.71240234375</ele>
        <time>2017-09-01T20:07:11Z</time>
      </trkpt>
      <trkpt lat="45.80211" lon="4.61701">
        <ele>328.68139648438</ele>
        <time>2017-09-01T20:07:13Z</time>
      </trkpt>
      <trkpt lat="45.80227" lon="4.61699">
        <ele>327.58236694336</ele>
        <time>2017-09-01T20:07:21Z</time>
      </trkpt>
      <trkpt lat="45.80259" lon="4.61694">
        <ele>327.16165161133</ele>
        <time>2017-09-01T20:07:25Z</time>
      </trkpt>
      <trkpt lat="45.80291" lon="4.61692">
        <ele>327.0530090332</ele>
        <time>2017-09-01T20:07:34Z</time>
      </trkpt>
      <trkpt lat="45.80298" lon="4.61691">
        <ele>326.89981079102</ele>
        <time>2017-09-01T20:07:43Z</time>
      </trkpt>
      <trkpt lat="45.80311" lon="4.61697">
        <ele>327.11276245117</ele>
        <time>2017-09-01T20:07:45Z</time>
      </trkpt>
      <trkpt lat="45.8033" lon="4.61706">
        <ele>328.07601928711</ele>
        <time>2017-09-01T20:07:49Z</time>
      </trkpt>
      <trkpt lat="45.80369" lon="4.61748">
        <ele>330.84143066406</ele>
        <time>2017-09-01T20:07:54Z</time>
      </trkpt>
      <trkpt lat="45.80385" lon="4.61756">
        <ele>332.03265380859</ele>
        <time>2017-09-01T20:08:07Z</time>
      </trkpt>
      <trkpt lat="45.80394" lon="4.61756">
        <ele>332.53848266602</ele>
        <time>2017-09-01T20:08:12Z</time>
      </trkpt>
      <trkpt lat="45.80404" lon="4.61752">
        <ele>332.97369384766</ele>
        <time>2017-09-01T20:08:14Z</time>
      </trkpt>
      <trkpt lat="45.80419" lon="4.61739">
        <ele>334.54440307617</ele>
        <time>2017-09-01T20:08:17Z</time>
      </trkpt>
      <trkpt lat="45.80432" lon="4.61728">
        <ele>336.19189453125</ele>
        <time>2017-09-01T20:08:22Z</time>
      </trkpt>
      <trkpt lat="45.80441" lon="4.61726">
        <ele>337.51788330078</ele>
        <time>2017-09-01T20:08:26Z</time>
      </trkpt>
      <trkpt lat="45.80458" lon="4.61732">
        <ele>341.03616333008</ele>
        <time>2017-09-01T20:08:28Z</time>
      </trkpt>
      <trkpt lat="45.80474" lon="4.61738">
        <ele>343.10604858398</ele>
        <time>2017-09-01T20:08:33Z</time>
      </trkpt>
      <trkpt lat="45.80482" lon="4.61738">
        <ele>344.52575683594</ele>
        <time>2017-09-01T20:08:37Z</time>
      </trkpt>
      <trkpt lat="45.80495" lon="4.61744">
        <ele>346.1340637207</ele>
        <time>2017-09-01T20:08:39Z</time>
      </trkpt>
      <trkpt lat="45.80508" lon="4.61757">
        <ele>347.38153076172</ele>
        <time>2017-09-01T20:08:43Z</time>
      </trkpt>
      <trkpt lat="45.80512" lon="4.61758">
        <ele>347.55258178711</ele>
        <time>2017-09-01T20:08:47Z</time>
      </trkpt>
      <trkpt lat="45.80519" lon="4.61756">
        <ele>348.01284790039</ele>
        <time>2017-09-01T20:08:48Z</time>
      </trkpt>
      <trkpt lat="45.80522" lon="4.61753">
        <ele>348.53433227539</ele>
        <time>2017-09-01T20:08:50Z</time>
      </trkpt>
      <trkpt lat="45.80531" lon="4.61725">
        <ele>350.83044433594</ele>
        <time>2017-09-01T20:08:51Z</time>
      </trkpt>
      <trkpt lat="45.80536" lon="4.61725">
        <ele>351.47109985352</ele>
        <time>2017-09-01T20:08:57Z</time>
      </trkpt>
      <trkpt lat="45.80572" lon="4.61723">
        <ele>355.44482421875</ele>
        <time>2017-09-01T20:08:58Z</time>
      </trkpt>
      <trkpt lat="45.80605" lon="4.6171">
        <ele>358.4870300293</ele>
        <time>2017-09-01T20:09:08Z</time>
      </trkpt>
      <trkpt lat="45.80636" lon="4.61696">
        <ele>360.44863891602</ele>
        <time>2017-09-01T20:09:17Z</time>
      </trkpt>
      <trkpt lat="45.80668" lon="4.61677">
        <ele>362.69635009766</ele>
        <time>2017-09-01T20:09:26Z</time>
      </trkpt>
      <trkpt lat="45.80684" lon="4.61676">
        <ele>363.16546630859</ele>
        <time>2017-09-01T20:09:35Z</time>
      </trkpt>
      <trkpt lat="45.80693" lon="4.61678">
        <ele>363.12710571289</ele>
        <time>2017-09-01T20:09:39Z</time>
      </trkpt>
      <trkpt lat="45.80703" lon="4.61684">
        <ele>362.92205810547</ele>
        <time>2017-09-01T20:09:41Z</time>
      </trkpt>
      <trkpt lat="45.80726" lon="4.61706">
        <ele>362.5446472168</ele>
        <time>2017-09-01T20:09:44Z</time>
      </trkpt>
      <trkpt lat="45.80734" lon="4.61708">
        <ele>362.5524597168</ele>
        <time>2017-09-01T20:09:51Z</time>
      </trkpt>
      <trkpt lat="45.80776" lon="4.61712">
        <ele>361.90579223633</ele>
        <time>2017-09-01T20:09:53Z</time>
      </trkpt>
      <trkpt lat="45.80787" lon="4.61717">
        <ele>361.69979858398</ele>
        <time>2017-09-01T20:10:04Z</time>
      </trkpt>
      <trkpt lat="45.80795" lon="4.61712">
        <ele>361.34579467773</ele>
        <time>2017-09-01T20:10:07Z</time>
      </trkpt>
      <trkpt lat="45.80815" lon="4.61635">
        <ele>355.21154785156</ele>
        <time>2017-09-01T20:10:09Z</time>
      </trkpt>
      <trkpt lat="45.80826" lon="4.61634">
        <ele>353.21008300781</ele>
        <time>2017-09-01T20:10:24Z</time>
      </trkpt>
      <trkpt lat="45.80887" lon="4.61591">
        <ele>344.76849365234</ele>
        <time>2017-09-01T20:10:27Z</time>
      </trkpt>
      <trkpt lat="45.80909" lon="4.61577">
        <ele>340.78070068359</ele>
        <time>2017-09-01T20:10:45Z</time>
      </trkpt>
      <trkpt lat="45.80916" lon="4.61576">
        <ele>339.7614440918</ele>
        <time>2017-09-01T20:10:51Z</time>
      </trkpt>
      <trkpt lat="45.80932" lon="4.61576">
        <ele>337.70498657227</ele>
        <time>2017-09-01T20:10:53Z</time>
      </trkpt>
      <trkpt lat="45.8096" lon="4.61562">
        <ele>333.45129394531</ele>
        <time>2017-09-01T20:10:57Z</time>
      </trkpt>
      <trkpt lat="45.80989" lon="4.61526">
        <ele>329.19296264648</ele>
        <time>2017-09-01T20:11:05Z</time>
      </trkpt>
      <trkpt lat="45.80994" lon="4.61518">
        <ele>329.85134887695</ele>
        <time>2017-09-01T20:11:15Z</time>
      </trkpt>
      <trkpt lat="45.81003" lon="4.6151">
        <ele>331.38864135742</ele>
        <time>2017-09-01T20:11:17Z</time>
      </trkpt>
      <trkpt lat="45.81012" lon="4.61498">
        <ele>333.42749023438</ele>
        <time>2017-09-01T20:11:20Z</time>
      </trkpt>
      <trkpt lat="45.81013" lon="4.61489">
        <ele>334.55328369141</ele>
        <time>2017-09-01T20:11:23Z</time>
      </trkpt>
      <trkpt lat="45.8101" lon="4.61434">
        <ele>337.29299926758</ele>
        <time>2017-09-01T20:11:25Z</time>
      </trkpt>
      <trkpt lat="45.81013" lon="4.61425">
        <ele>338.1162109375</ele>
        <time>2017-09-01T20:11:35Z</time>
      </trkpt>
      <trkpt lat="45.81017" lon="4.61423">
        <ele>338.75399780273</ele>
        <time>2017-09-01T20:11:37Z</time>
      </trkpt>
      <trkpt lat="45.8103" lon="4.61437">
        <ele>341.11294555664</ele>
        <time>2017-09-01T20:11:38Z</time>
      </trkpt>
      <trkpt lat="45.8104" lon="4.61446">
        <ele>343.45980834961</ele>
        <time>2017-09-01T20:11:42Z</time>
      </trkpt>
      <trkpt lat="45.81054" lon="4.61452">
        <ele>346.1194152832</ele>
        <time>2017-09-01T20:11:45Z</time>
      </trkpt>
      <trkpt lat="45.81072" lon="4.61456">
        <ele>348.57455444336</ele>
        <time>2017-09-01T20:11:49Z</time>
      </trkpt>
      <trkpt lat="45.81089" lon="4.61456">
        <ele>350.54824829102</ele>
        <time>2017-09-01T20:11:54Z</time>
      </trkpt>
      <trkpt lat="45.81094" lon="4.61452">
        <ele>351.01666259766</ele>
        <time>2017-09-01T20:11:59Z</time>
      </trkpt>
      <trkpt lat="45.81102" lon="4.61443">
        <ele>351.55133056641</ele>
        <time>2017-09-01T20:12:01Z</time>
      </trkpt>
      <trkpt lat="45.81127" lon="4.61405">
        <ele>351.986328125</ele>
        <time>2017-09-01T20:12:04Z</time>
      </trkpt>
      <trkpt lat="45.81134" lon="4.61399">
        <ele>352.57971191406</ele>
        <time>2017-09-01T20:12:14Z</time>
      </trkpt>
      <trkpt lat="45.81151" lon="4.61392">
        <ele>353.18569946289</ele>
        <time>2017-09-01T20:12:16Z</time>
      </trkpt>
      <trkpt lat="45.81168" lon="4.61389">
        <ele>353.45327758789</ele>
        <time>2017-09-01T20:12:21Z</time>
      </trkpt>
      <trkpt lat="45.81173" lon="4.61393">
        <ele>353.61895751953</ele>
        <time>2017-09-01T20:12:26Z</time>
      </trkpt>
      <trkpt lat="45.81195" lon="4.61435">
        <ele>357.04632568359</ele>
        <time>2017-09-01T20:12:28Z</time>
      </trkpt>
      <trkpt lat="45.81203" lon="4.61461">
        <ele>358.9147644043</ele>
        <time>2017-09-01T20:12:38Z</time>
      </trkpt>
      <trkpt lat="45.81211" lon="4.61502">
        <ele>360.36245727539</ele>
        <time>2017-09-01T20:12:43Z</time>
      </trkpt>
      <trkpt lat="45.81216" lon="4.61517">
        <ele>360.81033325195</ele>
        <time>2017-09-01T20:12:51Z</time>
      </trkpt>
      <trkpt lat="45.81243" lon="4.61572">
        <ele>362.5071105957</ele>
        <time>2017-09-01T20:12:54Z</time>
      </trkpt>
      <trkpt lat="45.81256" lon="4.61606">
        <ele>362.67541503906</ele>
        <time>2017-09-01T20:13:07Z</time>
      </trkpt>
      <trkpt lat="45.81263" lon="4.61629">
        <ele>363.91806030273</ele>
        <time>2017-09-01T20:13:14Z</time>
      </trkpt>
      <trkpt lat="45.81265" lon="4.61653">
        <ele>364.37692260742</ele>
        <time>2017-09-01T20:13:19Z</time>
      </trkpt>
      <trkpt lat="45.81266" lon="4.61673">
        <ele>365.02368164062</ele>
        <time>2017-09-01T20:13:24Z</time>
      </trkpt>
      <trkpt lat="45.81266" lon="4.61673">
        <ele>365.02368164062</ele>
        <time>2017-09-01T20:13:28Z</time>
      </trkpt>
      <trkpt lat="45.81266" lon="4.6168">
        <ele>365.46337890625</ele>
        <time>2017-09-01T20:13:28Z</time>
      </trkpt>
      <trkpt lat="45.81291" lon="4.61675">
        <ele>364.005859375</ele>
        <time>2017-09-01T20:13:29Z</time>
      </trkpt>
      <trkpt lat="45.81321" lon="4.61671">
        <ele>362.97671508789</ele>
        <time>2017-09-01T20:13:36Z</time>
      </trkpt>
      <trkpt lat="45.8136" lon="4.61669">
        <ele>360.69427490234</ele>
        <time>2017-09-01T20:13:44Z</time>
      </trkpt>
      <trkpt lat="45.81418" lon="4.6166">
        <ele>356.27294921875</ele>
        <time>2017-09-01T20:13:54Z</time>
      </trkpt>
      <trkpt lat="45.81436" lon="4.61659">
        <ele>355.26345825195</ele>
        <time>2017-09-01T20:14:10Z</time>
      </trkpt>
      <trkpt lat="45.81442" lon="4.61657">
        <ele>354.01776123047</ele>
        <time>2017-09-01T20:14:15Z</time>
      </trkpt>
      <trkpt lat="45.81476" lon="4.61606">
        <ele>347.65075683594</ele>
        <time>2017-09-01T20:14:17Z</time>
      </trkpt>
      <trkpt lat="45.81515" lon="4.61532">
        <ele>338.06127929688</ele>
        <time>2017-09-01T20:14:30Z</time>
      </trkpt>
      <trkpt lat="45.81527" lon="4.61516">
        <ele>335.14727783203</ele>
        <time>2017-09-01T20:14:47Z</time>
      </trkpt>
      <trkpt lat="45.81538" lon="4.61504">
        <ele>334.15048217773</ele>
        <time>2017-09-01T20:14:51Z</time>
      </trkpt>
      <trkpt lat="45.81545" lon="4.615">
        <ele>333.43258666992</ele>
        <time>2017-09-01T20:14:55Z</time>
      </trkpt>
      <trkpt lat="45.81551" lon="4.61498">
        <ele>332.8095703125</ele>
        <time>2017-09-01T20:14:57Z</time>
      </trkpt>
      <trkpt lat="45.81557" lon="4.61499">
        <ele>332.3893737793</ele>
        <time>2017-09-01T20:14:59Z</time>
      </trkpt>
      <trkpt lat="45.81592" lon="4.61535">
        <ele>332.44418334961</ele>
        <time>2017-09-01T20:15:01Z</time>
      </trkpt>
      <trkpt lat="45.81597" lon="4.61539">
        <ele>332.50155639648</ele>
        <time>2017-09-01T20:15:13Z</time>
      </trkpt>
      <trkpt lat="45.81602" lon="4.6154">
        <ele>332.31848144531</ele>
        <time>2017-09-01T20:15:15Z</time>
      </trkpt>
      <trkpt lat="45.81602" lon="4.6154">
        <ele>332.31848144531</ele>
        <time>2017-09-01T20:15:16Z</time>
      </trkpt>
      <trkpt lat="45.81624" lon="4.61528">
        <ele>331.26745605469</ele>
        <time>2017-09-01T20:15:16Z</time>
      </trkpt>
      <trkpt lat="45.81639" lon="4.61516">
        <ele>333.13879394531</ele>
        <time>2017-09-01T20:15:22Z</time>
      </trkpt>
      <trkpt lat="45.81639" lon="4.61516">
        <ele>333.13879394531</ele>
        <time>2017-09-01T20:15:27Z</time>
      </trkpt>
      <trkpt lat="45.81676" lon="4.61466">
        <ele>333.39352416992</ele>
        <time>2017-09-01T20:15:27Z</time>
      </trkpt>
      <trkpt lat="45.81676" lon="4.61466">
        <ele>333.39352416992</ele>
        <time>2017-09-01T20:15:41Z</time>
      </trkpt>
      <trkpt lat="45.81729" lon="4.61394">
        <ele>333.77157592773</ele>
        <time>2017-09-01T20:15:41Z</time>
      </trkpt>
      <trkpt lat="45.81729" lon="4.61394">
        <ele>333.77157592773</ele>
        <time>2017-09-01T20:16:00Z</time>
      </trkpt>
      <trkpt lat="45.81773" lon="4.6134">
        <ele>331.68710327148</ele>
        <time>2017-09-01T20:16:00Z</time>
      </trkpt>
      <trkpt lat="45.81773" lon="4.6134">
        <ele>331.68710327148</ele>
        <time>2017-09-01T20:16:15Z</time>
      </trkpt>
      <trkpt lat="45.81792" lon="4.61324">
        <ele>328.10809326172</ele>
        <time>2017-09-01T20:16:15Z</time>
      </trkpt>
      <trkpt lat="45.81817" lon="4.61328">
        <ele>333.38870239258</ele>
        <time>2017-09-01T20:16:21Z</time>
      </trkpt>
      <trkpt lat="45.81825" lon="4.6129">
        <ele>321.54483032227</ele>
        <time>2017-09-01T20:16:28Z</time>
      </trkpt>
      <trkpt lat="45.81836" lon="4.61298">
        <ele>323.47290039062</ele>
        <time>2017-09-01T20:16:35Z</time>
      </trkpt>
      <trkpt lat="45.81841" lon="4.61298">
        <ele>324.0778503418</ele>
        <time>2017-09-01T20:16:38Z</time>
      </trkpt>
      <trkpt lat="45.81841" lon="4.61298">
        <ele>324.0778503418</ele>
        <time>2017-09-01T20:16:39Z</time>
      </trkpt>
      <trkpt lat="45.81878" lon="4.61294">
        <ele>325.14657592773</ele>
        <time>2017-09-01T20:16:39Z</time>
      </trkpt>
      <trkpt lat="45.81878" lon="4.61294">
        <ele>325.14657592773</ele>
        <time>2017-09-01T20:16:49Z</time>
      </trkpt>
      <trkpt lat="45.81953" lon="4.61286">
        <ele>318.37496948242</ele>
        <time>2017-09-01T20:16:49Z</time>
      </trkpt>
      <trkpt lat="45.81953" lon="4.61286">
        <ele>318.37496948242</ele>
        <time>2017-09-01T20:17:09Z</time>
      </trkpt>
      <trkpt lat="45.81971" lon="4.61285">
        <ele>316.63919067383</ele>
        <time>2017-09-01T20:17:09Z</time>
      </trkpt>
      <trkpt lat="45.82097" lon="4.61306">
        <ele>299.48056030273</ele>
        <time>2017-09-01T20:17:14Z</time>
      </trkpt>
      <trkpt lat="45.82241" lon="4.61327">
        <ele>284.17416381836</ele>
        <time>2017-09-01T20:17:48Z</time>
      </trkpt>
      <trkpt lat="45.82235" lon="4.61321">
        <ele>283.94354248047</ele>
        <time>2017-09-01T20:18:27Z</time>
      </trkpt>
      <trkpt lat="45.82235" lon="4.61321">
        <ele>283.94354248047</ele>
        <time>2017-09-01T20:18:29Z</time>
      </trkpt>
      <trkpt lat="45.82289" lon="4.61359">
        <ele>281.69696044922</ele>
        <time>2017-09-01T20:18:29Z</time>
      </trkpt>
      <trkpt lat="45.82298" lon="4.61366">
        <ele>281.12551879883</ele>
        <time>2017-09-01T20:18:45Z</time>
      </trkpt>
      <trkpt lat="45.82311" lon="4.61381">
        <ele>281.04806518555</ele>
        <time>2017-09-01T20:18:48Z</time>
      </trkpt>
      <trkpt lat="45.82328" lon="4.61406">
        <ele>279.90991210938</ele>
        <time>2017-09-01T20:18:52Z</time>
      </trkpt>
      <trkpt lat="45.82341" lon="4.61436">
        <ele>279.05545043945</ele>
        <time>2017-09-01T20:18:59Z</time>
      </trkpt>
      <trkpt lat="45.82345" lon="4.61448">
        <ele>278.84689331055</ele>
        <time>2017-09-01T20:19:06Z</time>
      </trkpt>
      <trkpt lat="45.82345" lon="4.61448">
        <ele>278.84689331055</ele>
        <time>2017-09-01T20:19:08Z</time>
      </trkpt>
      <trkpt lat="45.82346" lon="4.61454">
        <ele>278.82699584961</ele>
        <time>2017-09-01T20:19:08Z</time>
      </trkpt>
      <trkpt lat="45.82307" lon="4.6147">
        <ele>283.20095825195</ele>
        <time>2017-09-01T20:19:09Z</time>
      </trkpt>
      <trkpt lat="45.8228" lon="4.61489">
        <ele>287.61306762695</ele>
        <time>2017-09-01T20:19:20Z</time>
      </trkpt>
      <trkpt lat="45.82246" lon="4.61525">
        <ele>291.7568359375</ele>
        <time>2017-09-01T20:19:28Z</time>
      </trkpt>
      <trkpt lat="45.82231" lon="4.61544">
        <ele>294.26007080078</ele>
        <time>2017-09-01T20:19:39Z</time>
      </trkpt>
      <trkpt lat="45.82207" lon="4.6158">
        <ele>307.60073852539</ele>
        <time>2017-09-01T20:19:44Z</time>
      </trkpt>
      <trkpt lat="45.82155" lon="4.61699">
        <ele>323.52517700195</ele>
        <time>2017-09-01T20:19:53Z</time>
      </trkpt>
      <trkpt lat="45.82149" lon="4.61699">
        <ele>327.56079101562</ele>
        <time>2017-09-01T20:20:19Z</time>
      </trkpt>
      <trkpt lat="45.8215" lon="4.61709">
        <ele>324.55163574219</ele>
        <time>2017-09-01T20:20:21Z</time>
      </trkpt>
      <trkpt lat="45.82027" lon="4.62">
        <ele>350.35668945312</ele>
        <time>2017-09-01T20:20:23Z</time>
      </trkpt>
      <trkpt lat="45.82008" lon="4.62044">
        <ele>355.30926513672</ele>
        <time>2017-09-01T20:21:26Z</time>
      </trkpt>
      <trkpt lat="45.82007" lon="4.62045">
        <ele>355.72384643555</ele>
        <time>2017-09-01T20:21:36Z</time>
      </trkpt>
      <trkpt lat="45.82005" lon="4.62045">
        <ele>356.68991088867</ele>
        <time>2017-09-01T20:21:36Z</time>
      </trkpt>
      <trkpt lat="45.8199" lon="4.62082">
        <ele>355.76693725586</ele>
        <time>2017-09-01T20:21:37Z</time>
      </trkpt>
      <trkpt lat="45.8199" lon="4.62084">
        <ele>355.36987304688</ele>
        <time>2017-09-01T20:21:45Z</time>
      </trkpt>
      <trkpt lat="45.8199" lon="4.62084">
        <ele>355.36987304688</ele>
        <time>2017-09-01T20:21:45Z</time>
      </trkpt>
      <trkpt lat="45.81989" lon="4.62096">
        <ele>353.19061279297</ele>
        <time>2017-09-01T20:21:45Z</time>
      </trkpt>
      <trkpt lat="45.82001" lon="4.62107">
        <ele>347.51376342773</ele>
        <time>2017-09-01T20:21:47Z</time>
      </trkpt>
      <trkpt lat="45.82021" lon="4.62114">
        <ele>345.19515991211</ele>
        <time>2017-09-01T20:21:51Z</time>
      </trkpt>
      <trkpt lat="45.82044" lon="4.62114">
        <ele>344.90161132812</ele>
        <time>2017-09-01T20:21:56Z</time>
      </trkpt>
      <trkpt lat="45.82114" lon="4.62108">
        <ele>350.16302490234</ele>
        <time>2017-09-01T20:22:02Z</time>
      </trkpt>
      <trkpt lat="45.82118" lon="4.62109">
        <ele>350.34872436523</ele>
        <time>2017-09-01T20:22:21Z</time>
      </trkpt>
      <trkpt lat="45.8216" lon="4.62135">
        <ele>353.92544555664</ele>
        <time>2017-09-01T20:22:22Z</time>
      </trkpt>
      <trkpt lat="45.82166" lon="4.62139">
        <ele>354.45452880859</ele>
        <time>2017-09-01T20:22:34Z</time>
      </trkpt>
      <trkpt lat="45.82179" lon="4.62162">
        <ele>355.9391784668</ele>
        <time>2017-09-01T20:22:36Z</time>
      </trkpt>
      <trkpt lat="45.82235" lon="4.62272">
        <ele>356.86636352539</ele>
        <time>2017-09-01T20:22:42Z</time>
      </trkpt>
      <trkpt lat="45.82254" lon="4.62297">
        <ele>355.55694580078</ele>
        <time>2017-09-01T20:23:07Z</time>
      </trkpt>
      <trkpt lat="45.82258" lon="4.6231">
        <ele>354.69049072266</ele>
        <time>2017-09-01T20:23:14Z</time>
      </trkpt>
      <trkpt lat="45.8226" lon="4.62322">
        <ele>354.23059082031</ele>
        <time>2017-09-01T20:23:17Z</time>
      </trkpt>
      <trkpt lat="45.82256" lon="4.62345">
        <ele>353.97091674805</ele>
        <time>2017-09-01T20:23:19Z</time>
      </trkpt>
      <trkpt lat="45.8225" lon="4.62358">
        <ele>354.05004882812</ele>
        <time>2017-09-01T20:23:23Z</time>
      </trkpt>
      <trkpt lat="45.82238" lon="4.62375">
        <ele>354.89398193359</ele>
        <time>2017-09-01T20:23:26Z</time>
      </trkpt>
      <trkpt lat="45.82218" lon="4.62394">
        <ele>357.70852661133</ele>
        <time>2017-09-01T20:23:31Z</time>
      </trkpt>
      <trkpt lat="45.82185" lon="4.62398">
        <ele>362.25540161133</ele>
        <time>2017-09-01T20:23:37Z</time>
      </trkpt>
      <trkpt lat="45.82196" lon="4.62417">
        <ele>361.84487915039</ele>
        <time>2017-09-01T20:23:46Z</time>
      </trkpt>
      <trkpt lat="45.82196" lon="4.62417">
        <ele>361.84487915039</ele>
        <time>2017-09-01T20:23:51Z</time>
      </trkpt>
      <trkpt lat="45.82206" lon="4.62435">
        <ele>361.48068237305</ele>
        <time>2017-09-01T20:23:51Z</time>
      </trkpt>
      <trkpt lat="45.8221" lon="4.62451">
        <ele>362.05917358398</ele>
        <time>2017-09-01T20:23:55Z</time>
      </trkpt>
      <trkpt lat="45.82214" lon="4.62486">
        <ele>363.23565673828</ele>
        <time>2017-09-01T20:23:58Z</time>
      </trkpt>
      <trkpt lat="45.82214" lon="4.62516">
        <ele>364.10977172852</ele>
        <time>2017-09-01T20:24:05Z</time>
      </trkpt>
      <trkpt lat="45.82206" lon="4.62549">
        <ele>367.76708984375</ele>
        <time>2017-09-01T20:24:11Z</time>
      </trkpt>
      <trkpt lat="45.82207" lon="4.62565">
        <ele>369.37313842773</ele>
        <time>2017-09-01T20:24:18Z</time>
      </trkpt>
      <trkpt lat="45.82211" lon="4.62572">
        <ele>369.89736938477</ele>
        <time>2017-09-01T20:24:21Z</time>
      </trkpt>
      <trkpt lat="45.82217" lon="4.62578">
        <ele>370.44436645508</ele>
        <time>2017-09-01T20:24:23Z</time>
      </trkpt>
      <trkpt lat="45.82238" lon="4.6259">
        <ele>371.38967895508</ele>
        <time>2017-09-01T20:24:25Z</time>
      </trkpt>
      <trkpt lat="45.82248" lon="4.626">
        <ele>372.43133544922</ele>
        <time>2017-09-01T20:24:31Z</time>
      </trkpt>
      <trkpt lat="45.82255" lon="4.62611">
        <ele>373.30459594727</ele>
        <time>2017-09-01T20:24:34Z</time>
      </trkpt>
      <trkpt lat="45.82262" lon="4.62635">
        <ele>373.87756347656</ele>
        <time>2017-09-01T20:24:37Z</time>
      </trkpt>
      <trkpt lat="45.82265" lon="4.62655">
        <ele>373.7666015625</ele>
        <time>2017-09-01T20:24:42Z</time>
      </trkpt>
      <trkpt lat="45.82265" lon="4.62689">
        <ele>374.68621826172</ele>
        <time>2017-09-01T20:24:46Z</time>
      </trkpt>
      <trkpt lat="45.82256" lon="4.6278">
        <ele>378.59918212891</ele>
        <time>2017-09-01T20:24:52Z</time>
      </trkpt>
      <trkpt lat="45.82243" lon="4.62862">
        <ele>383.22457885742</ele>
        <time>2017-09-01T20:25:09Z</time>
      </trkpt>
      <trkpt lat="45.82239" lon="4.62869">
        <ele>383.61764526367</ele>
        <time>2017-09-01T20:25:25Z</time>
      </trkpt>
      <trkpt lat="45.82239" lon="4.62874">
        <ele>383.69482421875</ele>
        <time>2017-09-01T20:25:27Z</time>
      </trkpt>
      <trkpt lat="45.8224" lon="4.62883">
        <ele>383.65014648438</ele>
        <time>2017-09-01T20:25:28Z</time>
      </trkpt>
      <trkpt lat="45.8223" lon="4.62951">
        <ele>383.93417358398</ele>
        <time>2017-09-01T20:25:30Z</time>
      </trkpt>
      <trkpt lat="45.82214" lon="4.63032">
        <ele>381.33032226562</ele>
        <time>2017-09-01T20:25:43Z</time>
      </trkpt>
      <trkpt lat="45.82212" lon="4.63052">
        <ele>380.46957397461</ele>
        <time>2017-09-01T20:25:59Z</time>
      </trkpt>
      <trkpt lat="45.82213" lon="4.63064">
        <ele>379.79516601562</ele>
        <time>2017-09-01T20:26:03Z</time>
      </trkpt>
      <trkpt lat="45.82213" lon="4.63064">
        <ele>379.79516601562</ele>
        <time>2017-09-01T20:26:05Z</time>
      </trkpt>
      <trkpt lat="45.82214" lon="4.63078">
        <ele>378.99951171875</ele>
        <time>2017-09-01T20:26:05Z</time>
      </trkpt>
      <trkpt lat="45.82209" lon="4.63093">
        <ele>379.1435546875</ele>
        <time>2017-09-01T20:26:08Z</time>
      </trkpt>
      <trkpt lat="45.82209" lon="4.63108">
        <ele>378.38836669922</ele>
        <time>2017-09-01T20:26:11Z</time>
      </trkpt>
      <trkpt lat="45.82206" lon="4.63129">
        <ele>377.69732666016</ele>
        <time>2017-09-01T20:26:14Z</time>
      </trkpt>
      <trkpt lat="45.82201" lon="4.63155">
        <ele>376.96353149414</ele>
        <time>2017-09-01T20:26:18Z</time>
      </trkpt>
      <trkpt lat="45.82195" lon="4.63191">
        <ele>376.14474487305</ele>
        <time>2017-09-01T20:26:23Z</time>
      </trkpt>
      <trkpt lat="45.82189" lon="4.63206">
        <ele>376.32330322266</ele>
        <time>2017-09-01T20:26:30Z</time>
      </trkpt>
      <trkpt lat="45.82177" lon="4.63232">
        <ele>376.42846679688</ele>
        <time>2017-09-01T20:26:33Z</time>
      </trkpt>
      <trkpt lat="45.82194" lon="4.63249">
        <ele>375.19747924805</ele>
        <time>2017-09-01T20:26:39Z</time>
      </trkpt>
      <trkpt lat="45.82302" lon="4.63335">
        <ele>375.09747314453</ele>
        <time>2017-09-01T20:26:45Z</time>
      </trkpt>
      <trkpt lat="45.82325" lon="4.63351">
        <ele>376.21185302734</ele>
        <time>2017-09-01T20:27:18Z</time>
      </trkpt>
      <trkpt lat="45.82387" lon="4.63376">
        <ele>374.65701293945</ele>
        <time>2017-09-01T20:27:25Z</time>
      </trkpt>
      <trkpt lat="45.82432" lon="4.63397">
        <ele>371.57757568359</ele>
        <time>2017-09-01T20:27:42Z</time>
      </trkpt>
      <trkpt lat="45.82444" lon="4.63402">
        <ele>370.92147827148</ele>
        <time>2017-09-01T20:27:55Z</time>
      </trkpt>
      <trkpt lat="45.82468" lon="4.63417">
        <ele>369.99868774414</ele>
        <time>2017-09-01T20:27:58Z</time>
      </trkpt>
      <trkpt lat="45.82475" lon="4.63428">
        <ele>369.88973999023</ele>
        <time>2017-09-01T20:28:05Z</time>
      </trkpt>
      <trkpt lat="45.82478" lon="4.63434">
        <ele>369.84530639648</ele>
        <time>2017-09-01T20:28:08Z</time>
      </trkpt>
      <trkpt lat="45.82482" lon="4.63432">
        <ele>369.65673828125</ele>
        <time>2017-09-01T20:28:09Z</time>
      </trkpt>
      <trkpt lat="45.82485" lon="4.63427">
        <ele>369.40533447266</ele>
        <time>2017-09-01T20:28:10Z</time>
      </trkpt>
      <trkpt lat="45.82492" lon="4.63433">
        <ele>369.59875488281</ele>
        <time>2017-09-01T20:28:11Z</time>
      </trkpt>
      <trkpt lat="45.82492" lon="4.63434">
        <ele>369.67700195312</ele>
        <time>2017-09-01T20:28:13Z</time>
      </trkpt>
      <trkpt lat="45.82492" lon="4.63434">
        <ele>369.67700195312</ele>
        <time>2017-09-01T20:28:13Z</time>
      </trkpt>
      <trkpt lat="45.82562" lon="4.63482">
        <ele>371.86608886719</ele>
        <time>2017-09-01T20:28:13Z</time>
      </trkpt>
      <trkpt lat="45.82634" lon="4.63533">
        <ele>376.20092773438</ele>
        <time>2017-09-01T20:28:34Z</time>
      </trkpt>
      <trkpt lat="45.82673" lon="4.63558">
        <ele>377.83221435547</ele>
        <time>2017-09-01T20:28:55Z</time>
      </trkpt>
      <trkpt lat="45.82692" lon="4.63562">
        <ele>378.58270263672</ele>
        <time>2017-09-01T20:29:06Z</time>
      </trkpt>
      <trkpt lat="45.82818" lon="4.63595">
        <ele>384.91705322266</ele>
        <time>2017-09-01T20:29:11Z</time>
      </trkpt>
      <trkpt lat="45.82895" lon="4.63616">
        <ele>385.83059692383</ele>
        <time>2017-09-01T20:29:45Z</time>
      </trkpt>
      <trkpt lat="45.82914" lon="4.63624">
        <ele>386.11340332031</ele>
        <time>2017-09-01T20:30:06Z</time>
      </trkpt>
      <trkpt lat="45.82933" lon="4.63635">
        <ele>386.34344482422</ele>
        <time>2017-09-01T20:30:11Z</time>
      </trkpt>
      <trkpt lat="45.82958" lon="4.63656">
        <ele>385.76373291016</ele>
        <time>2017-09-01T20:30:16Z</time>
      </trkpt>
      <trkpt lat="45.83045" lon="4.63721">
        <ele>382.93005371094</ele>
        <time>2017-09-01T20:30:24Z</time>
      </trkpt>
      <trkpt lat="45.83135" lon="4.63784">
        <ele>377.81301879883</ele>
        <time>2017-09-01T20:30:50Z</time>
      </trkpt>
      <trkpt lat="45.83251" lon="4.63864">
        <ele>371.90353393555</ele>
        <time>2017-09-01T20:31:17Z</time>
      </trkpt>
      <trkpt lat="45.83253" lon="4.6386">
        <ele>371.86679077148</ele>
        <time>2017-09-01T20:31:51Z</time>
      </trkpt>
      <trkpt lat="45.83253" lon="4.6386">
        <ele>371.86679077148</ele>
        <time>2017-09-01T20:31:52Z</time>
      </trkpt>
      <trkpt lat="45.83194" lon="4.64014">
        <ele>365.93927001953</ele>
        <time>2017-09-01T20:31:52Z</time>
      </trkpt>
      <trkpt lat="45.8319" lon="4.64015">
        <ele>365.78793334961</ele>
        <time>2017-09-01T20:32:25Z</time>
      </trkpt>
      <trkpt lat="45.83171" lon="4.64026">
        <ele>365.17785644531</ele>
        <time>2017-09-01T20:32:26Z</time>
      </trkpt>
      <trkpt lat="45.83093" lon="4.64079">
        <ele>362.19091796875</ele>
        <time>2017-09-01T20:32:31Z</time>
      </trkpt>
      <trkpt lat="45.83072" lon="4.64096">
        <ele>360.22567749023</ele>
        <time>2017-09-01T20:32:54Z</time>
      </trkpt>
      <trkpt lat="45.8303" lon="4.64122">
        <ele>358.28332519531</ele>
        <time>2017-09-01T20:33:00Z</time>
      </trkpt>
      <trkpt lat="45.82982" lon="4.64145">
        <ele>354.95748901367</ele>
        <time>2017-09-01T20:33:12Z</time>
      </trkpt>
      <trkpt lat="45.82942" lon="4.64172">
        <ele>350.30633544922</ele>
        <time>2017-09-01T20:33:26Z</time>
      </trkpt>
      <trkpt lat="45.82907" lon="4.64205">
        <ele>347.17822265625</ele>
        <time>2017-09-01T20:33:38Z</time>
      </trkpt>
      <trkpt lat="45.82883" lon="4.64234">
        <ele>343.57165527344</ele>
        <time>2017-09-01T20:33:49Z</time>
      </trkpt>
      <trkpt lat="45.82816" lon="4.64308">
        <ele>336.5827331543</ele>
        <time>2017-09-01T20:33:57Z</time>
      </trkpt>
      <trkpt lat="45.82811" lon="4.64312">
        <ele>336.08248901367</ele>
        <time>2017-09-01T20:34:20Z</time>
      </trkpt>
      <trkpt lat="45.8281" lon="4.64313">
        <ele>335.9912109375</ele>
        <time>2017-09-01T20:34:22Z</time>
      </trkpt>
      <trkpt lat="45.82814" lon="4.64334">
        <ele>335.96096801758</ele>
        <time>2017-09-01T20:34:22Z</time>
      </trkpt>
      <trkpt lat="45.82795" lon="4.64351">
        <ele>333.92175292969</ele>
        <time>2017-09-01T20:34:26Z</time>
      </trkpt>
      <trkpt lat="45.82714" lon="4.64443">
        <ele>326.10717773438</ele>
        <time>2017-09-01T20:34:32Z</time>
      </trkpt>
      <trkpt lat="45.82695" lon="4.64461">
        <ele>324.80801391602</ele>
        <time>2017-09-01T20:35:00Z</time>
      </trkpt>
      <trkpt lat="45.82681" lon="4.64478">
        <ele>324.31707763672</ele>
        <time>2017-09-01T20:35:06Z</time>
      </trkpt>
      <trkpt lat="45.82664" lon="4.64525">
        <ele>322.56954956055</ele>
        <time>2017-09-01T20:35:11Z</time>
      </trkpt>
      <trkpt lat="45.82621" lon="4.64587">
        <ele>321.82748413086</ele>
        <time>2017-09-01T20:35:21Z</time>
      </trkpt>
      <trkpt lat="45.82601" lon="4.64639">
        <ele>320.95663452148</ele>
        <time>2017-09-01T20:35:37Z</time>
      </trkpt>
      <trkpt lat="45.82579" lon="4.64698">
        <ele>315.99264526367</ele>
        <time>2017-09-01T20:35:48Z</time>
      </trkpt>
      <trkpt lat="45.82584" lon="4.64726">
        <ele>315.79470825195</ele>
        <time>2017-09-01T20:36:00Z</time>
      </trkpt>
      <trkpt lat="45.82579" lon="4.64732">
        <ele>316.00289916992</ele>
        <time>2017-09-01T20:36:05Z</time>
      </trkpt>
      <trkpt lat="45.82579" lon="4.64732">
        <ele>316.00289916992</ele>
        <time>2017-09-01T20:36:07Z</time>
      </trkpt>
      <trkpt lat="45.82565" lon="4.64752">
        <ele>318.89666748047</ele>
        <time>2017-09-01T20:36:07Z</time>
      </trkpt>
      <trkpt lat="45.82527" lon="4.64798">
        <ele>327.34405517578</ele>
        <time>2017-09-01T20:36:12Z</time>
      </trkpt>
      <trkpt lat="45.82484" lon="4.64851">
        <ele>329.26223754883</ele>
        <time>2017-09-01T20:36:25Z</time>
      </trkpt>
      <trkpt lat="45.82443" lon="4.6494">
        <ele>323.63946533203</ele>
        <time>2017-09-01T20:36:40Z</time>
      </trkpt>
      <trkpt lat="45.8241" lon="4.64999">
        <ele>322.67254638672</ele>
        <time>2017-09-01T20:37:00Z</time>
      </trkpt>
      <trkpt lat="45.82407" lon="4.64998">
        <ele>322.95254516602</ele>
        <time>2017-09-01T20:37:14Z</time>
      </trkpt>
      <trkpt lat="45.82408" lon="4.64995">
        <ele>323.02880859375</ele>
        <time>2017-09-01T20:37:15Z</time>
      </trkpt>
      <trkpt lat="45.82412" lon="4.64981">
        <ele>323.76596069336</ele>
        <time>2017-09-01T20:37:16Z</time>
      </trkpt>
      <trkpt lat="45.82409" lon="4.64966">
        <ele>325.16452026367</ele>
        <time>2017-09-01T20:37:19Z</time>
      </trkpt>
      <trkpt lat="45.82409" lon="4.64966">
        <ele>325.16452026367</ele>
        <time>2017-09-01T20:37:22Z</time>
      </trkpt>
      <trkpt lat="45.82401" lon="4.64959">
        <ele>326.69140625</ele>
        <time>2017-09-01T20:37:22Z</time>
      </trkpt>
      <trkpt lat="45.82386" lon="4.64952">
        <ele>329.38687133789</ele>
        <time>2017-09-01T20:37:25Z</time>
      </trkpt>
      <trkpt lat="45.82357" lon="4.6494">
        <ele>332.84204101562</ele>
        <time>2017-09-01T20:37:29Z</time>
      </trkpt>
      <trkpt lat="45.82309" lon="4.64912">
        <ele>339.13339233398</ele>
        <time>2017-09-01T20:37:37Z</time>
      </trkpt>
      <trkpt lat="45.82255" lon="4.64866">
        <ele>347.64501953125</ele>
        <time>2017-09-01T20:37:51Z</time>
      </trkpt>
      <trkpt lat="45.82185" lon="4.64806">
        <ele>358.81002807617</ele>
        <time>2017-09-01T20:38:08Z</time>
      </trkpt>
      <trkpt lat="45.82173" lon="4.64796">
        <ele>359.76351928711</ele>
        <time>2017-09-01T20:38:30Z</time>
      </trkpt>
      <trkpt lat="45.82167" lon="4.64787">
        <ele>360.27581787109</ele>
        <time>2017-09-01T20:38:34Z</time>
      </trkpt>
      <trkpt lat="45.82162" lon="4.64768">
        <ele>362.01889038086</ele>
        <time>2017-09-01T20:38:36Z</time>
      </trkpt>
      <trkpt lat="45.8216" lon="4.64747">
        <ele>363.98611450195</ele>
        <time>2017-09-01T20:38:40Z</time>
      </trkpt>
      <trkpt lat="45.82149" lon="4.64656">
        <ele>369.66693115234</ele>
        <time>2017-09-01T20:38:44Z</time>
      </trkpt>
      <trkpt lat="45.82143" lon="4.64634">
        <ele>370.75637817383</ele>
        <time>2017-09-01T20:39:01Z</time>
      </trkpt>
      <trkpt lat="45.82108" lon="4.64605">
        <ele>374.62731933594</ele>
        <time>2017-09-01T20:39:05Z</time>
      </trkpt>
      <trkpt lat="45.8208" lon="4.6458">
        <ele>374.84616088867</ele>
        <time>2017-09-01T20:39:16Z</time>
      </trkpt>
      <trkpt lat="45.81977" lon="4.64511">
        <ele>374.57022094727</ele>
        <time>2017-09-01T20:39:25Z</time>
      </trkpt>
      <trkpt lat="45.81929" lon="4.64477">
        <ele>374.16241455078</ele>
        <time>2017-09-01T20:39:55Z</time>
      </trkpt>
      <trkpt lat="45.8193" lon="4.64472">
        <ele>374.71704101562</ele>
        <time>2017-09-01T20:40:09Z</time>
      </trkpt>
      <trkpt lat="45.8193" lon="4.64472">
        <ele>374.71704101562</ele>
        <time>2017-09-01T20:40:10Z</time>
      </trkpt>
      <trkpt lat="45.81941" lon="4.64366">
        <ele>380.47509765625</ele>
        <time>2017-09-01T20:40:10Z</time>
      </trkpt>
      <trkpt lat="45.81947" lon="4.64344">
        <ele>380.92297363281</ele>
        <time>2017-09-01T20:40:30Z</time>
      </trkpt>
      <trkpt lat="45.81948" lon="4.64336">
        <ele>381.2607421875</ele>
        <time>2017-09-01T20:40:34Z</time>
      </trkpt>
      <trkpt lat="45.81935" lon="4.64179">
        <ele>399.76760864258</ele>
        <time>2017-09-01T20:40:36Z</time>
      </trkpt>
      <trkpt lat="45.81925" lon="4.64202">
        <ele>400.27001953125</ele>
        <time>2017-09-01T20:41:05Z</time>
      </trkpt>
      <trkpt lat="45.81925" lon="4.64202">
        <ele>400.27001953125</ele>
        <time>2017-09-01T20:41:10Z</time>
      </trkpt>
      <trkpt lat="45.81939" lon="4.64169">
        <ele>399.60452270508</ele>
        <time>2017-09-01T20:41:10Z</time>
      </trkpt>
      <trkpt lat="45.81939" lon="4.64162">
        <ele>400.90188598633</ele>
        <time>2017-09-01T20:41:17Z</time>
      </trkpt>
      <trkpt lat="45.81941" lon="4.64148">
        <ele>403.02410888672</ele>
        <time>2017-09-01T20:41:18Z</time>
      </trkpt>
      <trkpt lat="45.81952" lon="4.64124">
        <ele>404.54901123047</ele>
        <time>2017-09-01T20:41:21Z</time>
      </trkpt>
      <trkpt lat="45.81956" lon="4.64109">
        <ele>405.92178344727</ele>
        <time>2017-09-01T20:41:26Z</time>
      </trkpt>
      <trkpt lat="45.81956" lon="4.64109">
        <ele>405.92178344727</ele>
        <time>2017-09-01T20:41:29Z</time>
      </trkpt>
      <trkpt lat="45.81958" lon="4.64059">
        <ele>408.51342773438</ele>
        <time>2017-09-01T20:41:29Z</time>
      </trkpt>
      <trkpt lat="45.81957" lon="4.63988">
        <ele>413.27880859375</ele>
        <time>2017-09-01T20:41:38Z</time>
      </trkpt>
      <trkpt lat="45.81955" lon="4.6396">
        <ele>414.94284057617</ele>
        <time>2017-09-01T20:41:51Z</time>
      </trkpt>
      <trkpt lat="45.81942" lon="4.63901">
        <ele>416.60531616211</ele>
        <time>2017-09-01T20:41:56Z</time>
      </trkpt>
      <trkpt lat="45.81933" lon="4.63875">
        <ele>417.36059570312</ele>
        <time>2017-09-01T20:42:08Z</time>
      </trkpt>
      <trkpt lat="45.81918" lon="4.63846">
        <ele>418.45733642578</ele>
        <time>2017-09-01T20:42:13Z</time>
      </trkpt>
      <trkpt lat="45.81909" lon="4.63834">
        <ele>419.4992980957</ele>
        <time>2017-09-01T20:42:20Z</time>
      </trkpt>
      <trkpt lat="45.81879" lon="4.63781">
        <ele>421.53280639648</ele>
        <time>2017-09-01T20:42:23Z</time>
      </trkpt>
      <trkpt lat="45.81863" lon="4.63746">
        <ele>421.5380859375</ele>
        <time>2017-09-01T20:42:36Z</time>
      </trkpt>
      <trkpt lat="45.81819" lon="4.63638">
        <ele>419.82095336914</ele>
        <time>2017-09-01T20:42:44Z</time>
      </trkpt>
      <trkpt lat="45.818" lon="4.63588">
        <ele>419.62075805664</ele>
        <time>2017-09-01T20:43:07Z</time>
      </trkpt>
      <trkpt lat="45.81791" lon="4.63565">
        <ele>419.96493530273</ele>
        <time>2017-09-01T20:43:18Z</time>
      </trkpt>
      <trkpt lat="45.81791" lon="4.63565">
        <ele>419.96493530273</ele>
        <time>2017-09-01T20:43:23Z</time>
      </trkpt>
      <trkpt lat="45.81796" lon="4.63578">
        <ele>419.63427734375</ele>
        <time>2017-09-01T20:43:23Z</time>
      </trkpt>
      <trkpt lat="45.81788" lon="4.63581">
        <ele>421.35580444336</ele>
        <time>2017-09-01T20:43:26Z</time>
      </trkpt>
      <trkpt lat="45.81748" lon="4.63628">
        <ele>430.84780883789</ele>
        <time>2017-09-01T20:43:28Z</time>
      </trkpt>
      <trkpt lat="45.81693" lon="4.63699">
        <ele>438.30960083008</ele>
        <time>2017-09-01T20:43:42Z</time>
      </trkpt>
      <trkpt lat="45.81656" lon="4.63741">
        <ele>439.64794921875</ele>
        <time>2017-09-01T20:44:02Z</time>
      </trkpt>
      <trkpt lat="45.81648" lon="4.63749">
        <ele>439.26974487305</ele>
        <time>2017-09-01T20:44:15Z</time>
      </trkpt>
      <trkpt lat="45.81637" lon="4.63755">
        <ele>439.77157592773</ele>
        <time>2017-09-01T20:44:18Z</time>
      </trkpt>
      <trkpt lat="45.81618" lon="4.63762">
        <ele>437.45916748047</ele>
        <time>2017-09-01T20:44:21Z</time>
      </trkpt>
      <trkpt lat="45.81576" lon="4.63766">
        <ele>432.59313964844</ele>
        <time>2017-09-01T20:44:26Z</time>
      </trkpt>
      <trkpt lat="45.81512" lon="4.63777">
        <ele>425.21463012695</ele>
        <time>2017-09-01T20:44:37Z</time>
      </trkpt>
      <trkpt lat="45.8146" lon="4.6379">
        <ele>419.58267211914</ele>
        <time>2017-09-01T20:44:54Z</time>
      </trkpt>
      <trkpt lat="45.81446" lon="4.63797">
        <ele>418.11929321289</ele>
        <time>2017-09-01T20:45:08Z</time>
      </trkpt>
      <trkpt lat="45.81435" lon="4.63811">
        <ele>415.4997253418</ele>
        <time>2017-09-01T20:45:12Z</time>
      </trkpt>
      <trkpt lat="45.81421" lon="4.63806">
        <ele>415.87594604492</ele>
        <time>2017-09-01T20:45:16Z</time>
      </trkpt>
      <trkpt lat="45.81412" lon="4.63808">
        <ele>415.20553588867</ele>
        <time>2017-09-01T20:45:20Z</time>
      </trkpt>
      <trkpt lat="45.81386" lon="4.63832">
        <ele>412.15798950195</ele>
        <time>2017-09-01T20:45:22Z</time>
      </trkpt>
      <trkpt lat="45.81367" lon="4.63848">
        <ele>412.01733398438</ele>
        <time>2017-09-01T20:45:30Z</time>
      </trkpt>
      <trkpt lat="45.81365" lon="4.63852">
        <ele>411.3388671875</ele>
        <time>2017-09-01T20:45:36Z</time>
      </trkpt>
      <trkpt lat="45.81362" lon="4.63851">
        <ele>411.60842895508</ele>
        <time>2017-09-01T20:45:37Z</time>
      </trkpt>
      <trkpt lat="45.81362" lon="4.63851">
        <ele>411.60842895508</ele>
        <time>2017-09-01T20:45:38Z</time>
      </trkpt>
      <trkpt lat="45.81365" lon="4.63852">
        <ele>411.3388671875</ele>
        <time>2017-09-01T20:45:38Z</time>
      </trkpt>
      <trkpt lat="45.81366" lon="4.63858">
        <ele>410.181640625</ele>
        <time>2017-09-01T20:45:39Z</time>
      </trkpt>
      <trkpt lat="45.81369" lon="4.63862">
        <ele>409.42840576172</ele>
        <time>2017-09-01T20:45:40Z</time>
      </trkpt>
      <trkpt lat="45.81374" lon="4.63866">
        <ele>408.94549560547</ele>
        <time>2017-09-01T20:45:41Z</time>
      </trkpt>
      <trkpt lat="45.81383" lon="4.63867">
        <ele>408.31280517578</ele>
        <time>2017-09-01T20:45:43Z</time>
      </trkpt>
      <trkpt lat="45.81417" lon="4.63874">
        <ele>405.60504150391</ele>
        <time>2017-09-01T20:45:45Z</time>
      </trkpt>
      <trkpt lat="45.8142" lon="4.63878">
        <ele>405.43701171875</ele>
        <time>2017-09-01T20:45:54Z</time>
      </trkpt>
      <trkpt lat="45.81421" lon="4.63884">
        <ele>404.88549804688</ele>
        <time>2017-09-01T20:45:55Z</time>
      </trkpt>
      <trkpt lat="45.81419" lon="4.6391">
        <ele>400.68417358398</ele>
        <time>2017-09-01T20:45:56Z</time>
      </trkpt>
      <trkpt lat="45.81414" lon="4.63932">
        <ele>396.6911315918</ele>
        <time>2017-09-01T20:46:01Z</time>
      </trkpt>
      <trkpt lat="45.81402" lon="4.6396">
        <ele>394.93743896484</ele>
        <time>2017-09-01T20:46:05Z</time>
      </trkpt>
      <trkpt lat="45.81385" lon="4.63995">
        <ele>391.15158081055</ele>
        <time>2017-09-01T20:46:11Z</time>
      </trkpt>
      <trkpt lat="45.81401" lon="4.64012">
        <ele>388.59124755859</ele>
        <time>2017-09-01T20:46:19Z</time>
      </trkpt>
      <trkpt lat="45.81405" lon="4.64018">
        <ele>388.07638549805</ele>
        <time>2017-09-01T20:46:24Z</time>
      </trkpt>
      <trkpt lat="45.81388" lon="4.6401">
        <ele>389.34851074219</ele>
        <time>2017-09-01T20:46:26Z</time>
      </trkpt>
      <trkpt lat="45.81388" lon="4.6401">
        <ele>389.34851074219</ele>
        <time>2017-09-01T20:46:31Z</time>
      </trkpt>
      <trkpt lat="45.8143" lon="4.64028">
        <ele>386.60595703125</ele>
        <time>2017-09-01T20:46:31Z</time>
      </trkpt>
      <trkpt lat="45.81427" lon="4.64043">
        <ele>385.7265625</ele>
        <time>2017-09-01T20:46:43Z</time>
      </trkpt>
      <trkpt lat="45.81428" lon="4.64066">
        <ele>383.03436279297</ele>
        <time>2017-09-01T20:46:46Z</time>
      </trkpt>
      <trkpt lat="45.81428" lon="4.64066">
        <ele>383.03436279297</ele>
        <time>2017-09-01T20:46:50Z</time>
      </trkpt>
      <trkpt lat="45.81431" lon="4.6412">
        <ele>378.31549072266</ele>
        <time>2017-09-01T20:46:50Z</time>
      </trkpt>
      <trkpt lat="45.81431" lon="4.6412">
        <ele>378.31549072266</ele>
        <time>2017-09-01T20:47:00Z</time>
      </trkpt>
      <trkpt lat="45.8143" lon="4.64144">
        <ele>375.40362548828</ele>
        <time>2017-09-01T20:47:00Z</time>
      </trkpt>
      <trkpt lat="45.81426" lon="4.64179">
        <ele>372.51037597656</ele>
        <time>2017-09-01T20:47:04Z</time>
      </trkpt>
      <trkpt lat="45.81424" lon="4.64191">
        <ele>371.63626098633</ele>
        <time>2017-09-01T20:47:11Z</time>
      </trkpt>
      <trkpt lat="45.81424" lon="4.64191">
        <ele>371.63626098633</ele>
        <time>2017-09-01T20:47:13Z</time>
      </trkpt>
      <trkpt lat="45.81419" lon="4.64221">
        <ele>368.18798828125</ele>
        <time>2017-09-01T20:47:13Z</time>
      </trkpt>
      <trkpt lat="45.81419" lon="4.64221">
        <ele>368.18798828125</ele>
        <time>2017-09-01T20:47:19Z</time>
      </trkpt>
      <trkpt lat="45.81409" lon="4.64276">
        <ele>361.55700683594</ele>
        <time>2017-09-01T20:47:19Z</time>
      </trkpt>
      <trkpt lat="45.8141" lon="4.64294">
        <ele>359.51870727539</ele>
        <time>2017-09-01T20:47:30Z</time>
      </trkpt>
      <trkpt lat="45.8141" lon="4.64294">
        <ele>359.51870727539</ele>
        <time>2017-09-01T20:47:33Z</time>
      </trkpt>
      <trkpt lat="45.81416" lon="4.6431">
        <ele>358.35784912109</ele>
        <time>2017-09-01T20:47:33Z</time>
      </trkpt>
      <trkpt lat="45.8143" lon="4.64337">
        <ele>356.77362060547</ele>
        <time>2017-09-01T20:47:36Z</time>
      </trkpt>
      <trkpt lat="45.81436" lon="4.64347">
        <ele>356.44769287109</ele>
        <time>2017-09-01T20:47:42Z</time>
      </trkpt>
      <trkpt lat="45.81436" lon="4.64347">
        <ele>356.44769287109</ele>
        <time>2017-09-01T20:47:44Z</time>
      </trkpt>
      <trkpt lat="45.81441" lon="4.64361">
        <ele>355.89709472656</ele>
        <time>2017-09-01T20:47:44Z</time>
      </trkpt>
      <trkpt lat="45.81446" lon="4.64381">
        <ele>355.65841674805</ele>
        <time>2017-09-01T20:47:47Z</time>
      </trkpt>
      <trkpt lat="45.81445" lon="4.64403">
        <ele>356.02410888672</ele>
        <time>2017-09-01T20:47:51Z</time>
      </trkpt>
      <trkpt lat="45.81435" lon="4.64432">
        <ele>356.09317016602</ele>
        <time>2017-09-01T20:47:55Z</time>
      </trkpt>
      <trkpt lat="45.81435" lon="4.64432">
        <ele>356.09317016602</ele>
        <time>2017-09-01T20:48:01Z</time>
      </trkpt>
      <trkpt lat="45.81403" lon="4.64529">
        <ele>355.78927612305</ele>
        <time>2017-09-01T20:48:01Z</time>
      </trkpt>
      <trkpt lat="45.81401" lon="4.64545">
        <ele>355.39669799805</ele>
        <time>2017-09-01T20:48:21Z</time>
      </trkpt>
      <trkpt lat="45.81404" lon="4.64559">
        <ele>355.07580566406</ele>
        <time>2017-09-01T20:48:24Z</time>
      </trkpt>
      <trkpt lat="45.8142" lon="4.64589">
        <ele>352.85470581055</ele>
        <time>2017-09-01T20:48:27Z</time>
      </trkpt>
      <trkpt lat="45.81421" lon="4.64591">
        <ele>352.6950378418</ele>
        <time>2017-09-01T20:48:34Z</time>
      </trkpt>
      <trkpt lat="45.81421" lon="4.64591">
        <ele>352.6950378418</ele>
        <time>2017-09-01T20:48:34Z</time>
      </trkpt>
      <trkpt lat="45.81421" lon="4.64595">
        <ele>352.29080200195</ele>
        <time>2017-09-01T20:48:34Z</time>
      </trkpt>
      <trkpt lat="45.81417" lon="4.64599">
        <ele>351.80981445312</ele>
        <time>2017-09-01T20:48:35Z</time>
      </trkpt>
      <trkpt lat="45.81378" lon="4.64614">
        <ele>348.28845214844</ele>
        <time>2017-09-01T20:48:36Z</time>
      </trkpt>
      <trkpt lat="45.81365" lon="4.64626">
        <ele>346.24118041992</ele>
        <time>2017-09-01T20:48:47Z</time>
      </trkpt>
      <trkpt lat="45.81351" lon="4.64642">
        <ele>343.3317565918</ele>
        <time>2017-09-01T20:48:51Z</time>
      </trkpt>
      <trkpt lat="45.81343" lon="4.64661">
        <ele>341.08407592773</ele>
        <time>2017-09-01T20:48:56Z</time>
      </trkpt>
      <trkpt lat="45.8132" lon="4.64715">
        <ele>337.22811889648</ele>
        <time>2017-09-01T20:49:00Z</time>
      </trkpt>
      <trkpt lat="45.81285" lon="4.64794">
        <ele>334.80447387695</ele>
        <time>2017-09-01T20:49:12Z</time>
      </trkpt>
      <trkpt lat="45.81276" lon="4.64803">
        <ele>334.3830871582</ele>
        <time>2017-09-01T20:49:29Z</time>
      </trkpt>
      <trkpt lat="45.81269" lon="4.64804">
        <ele>333.96047973633</ele>
        <time>2017-09-01T20:49:32Z</time>
      </trkpt>
      <trkpt lat="45.81255" lon="4.648">
        <ele>332.98016357422</ele>
        <time>2017-09-01T20:49:34Z</time>
      </trkpt>
      <trkpt lat="45.81242" lon="4.64794">
        <ele>332.5744934082</ele>
        <time>2017-09-01T20:49:38Z</time>
      </trkpt>
      <trkpt lat="45.81242" lon="4.64794">
        <ele>332.5744934082</ele>
        <time>2017-09-01T20:49:42Z</time>
      </trkpt>
      <trkpt lat="45.81232" lon="4.64792">
        <ele>332.51647949219</ele>
        <time>2017-09-01T20:49:42Z</time>
      </trkpt>
      <trkpt lat="45.81218" lon="4.64798">
        <ele>332.32528686523</ele>
        <time>2017-09-01T20:49:45Z</time>
      </trkpt>
      <trkpt lat="45.81207" lon="4.64811">
        <ele>332.08532714844</ele>
        <time>2017-09-01T20:49:49Z</time>
      </trkpt>
      <trkpt lat="45.81196" lon="4.64826">
        <ele>331.48944091797</ele>
        <time>2017-09-01T20:49:53Z</time>
      </trkpt>
      <trkpt lat="45.81182" lon="4.64856">
        <ele>330.40740966797</ele>
        <time>2017-09-01T20:49:57Z</time>
      </trkpt>
      <trkpt lat="45.81164" lon="4.64929">
        <ele>326.42553710938</ele>
        <time>2017-09-01T20:50:04Z</time>
      </trkpt>
      <trkpt lat="45.81162" lon="4.64957">
        <ele>324.76171875</ele>
        <time>2017-09-01T20:50:18Z</time>
      </trkpt>
      <trkpt lat="45.81169" lon="4.65005">
        <ele>325.1985168457</ele>
        <time>2017-09-01T20:50:23Z</time>
      </trkpt>
      <trkpt lat="45.81171" lon="4.6502">
        <ele>325.34573364258</ele>
        <time>2017-09-01T20:50:32Z</time>
      </trkpt>
      <trkpt lat="45.8116" lon="4.64999">
        <ele>324.87420654297</ele>
        <time>2017-09-01T20:50:35Z</time>
      </trkpt>
      <trkpt lat="45.81158" lon="4.6499">
        <ele>324.6032409668</ele>
        <time>2017-09-01T20:50:40Z</time>
      </trkpt>
      <trkpt lat="45.81158" lon="4.6499">
        <ele>324.6032409668</ele>
        <time>2017-09-01T20:50:42Z</time>
      </trkpt>
      <trkpt lat="45.8116" lon="4.64999">
        <ele>324.87420654297</ele>
        <time>2017-09-01T20:50:42Z</time>
      </trkpt>
      <trkpt lat="45.81174" lon="4.65026">
        <ele>325.33361816406</ele>
        <time>2017-09-01T20:50:44Z</time>
      </trkpt>
      <trkpt lat="45.81181" lon="4.65043">
        <ele>325.11444091797</ele>
        <time>2017-09-01T20:50:50Z</time>
      </trkpt>
      <trkpt lat="45.81238" lon="4.65125">
        <ele>322.43627929688</ele>
        <time>2017-09-01T20:50:54Z</time>
      </trkpt>
      <trkpt lat="45.81278" lon="4.65187">
        <ele>321.75387573242</ele>
        <time>2017-09-01T20:51:16Z</time>
      </trkpt>
      <trkpt lat="45.81307" lon="4.65229">
        <ele>321.56918334961</ele>
        <time>2017-09-01T20:51:32Z</time>
      </trkpt>
      <trkpt lat="45.81317" lon="4.65247">
        <ele>321.72192382812</ele>
        <time>2017-09-01T20:51:43Z</time>
      </trkpt>
      <trkpt lat="45.81317" lon="4.65247">
        <ele>321.72192382812</ele>
        <time>2017-09-01T20:51:47Z</time>
      </trkpt>
      <trkpt lat="45.81322" lon="4.65254">
        <ele>321.7795715332</ele>
        <time>2017-09-01T20:51:47Z</time>
      </trkpt>
      <trkpt lat="45.81354" lon="4.65284">
        <ele>318.74499511719</ele>
        <time>2017-09-01T20:51:49Z</time>
      </trkpt>
      <trkpt lat="45.81364" lon="4.6529">
        <ele>317.9508972168</ele>
        <time>2017-09-01T20:51:59Z</time>
      </trkpt>
      <trkpt lat="45.81368" lon="4.65309">
        <ele>318.35501098633</ele>
        <time>2017-09-01T20:52:02Z</time>
      </trkpt>
      <trkpt lat="45.81384" lon="4.65385">
        <ele>317.67990112305</ele>
        <time>2017-09-01T20:52:06Z</time>
      </trkpt>
      <trkpt lat="45.81402" lon="4.65472">
        <ele>314.58142089844</ele>
        <time>2017-09-01T20:52:21Z</time>
      </trkpt>
      <trkpt lat="45.81401" lon="4.65496">
        <ele>313.87823486328</ele>
        <time>2017-09-01T20:52:38Z</time>
      </trkpt>
      <trkpt lat="45.81398" lon="4.6551">
        <ele>313.36245727539</ele>
        <time>2017-09-01T20:52:42Z</time>
      </trkpt>
      <trkpt lat="45.81381" lon="4.6555">
        <ele>313.12911987305</ele>
        <time>2017-09-01T20:52:45Z</time>
      </trkpt>
      <trkpt lat="45.81366" lon="4.65537">
        <ele>315.47882080078</ele>
        <time>2017-09-01T20:52:54Z</time>
      </trkpt>
      <trkpt lat="45.81288" lon="4.65486">
        <ele>325.13394165039</ele>
        <time>2017-09-01T20:52:59Z</time>
      </trkpt>
      <trkpt lat="45.81246" lon="4.6546">
        <ele>331.04818725586</ele>
        <time>2017-09-01T20:53:22Z</time>
      </trkpt>
      <trkpt lat="45.81221" lon="4.6544">
        <ele>334.27093505859</ele>
        <time>2017-09-01T20:53:34Z</time>
      </trkpt>
      <trkpt lat="45.81148" lon="4.65371">
        <ele>343.11111450195</ele>
        <time>2017-09-01T20:53:42Z</time>
      </trkpt>
      <trkpt lat="45.81113" lon="4.65336">
        <ele>348.28686523438</ele>
        <time>2017-09-01T20:54:05Z</time>
      </trkpt>
      <trkpt lat="45.81111" lon="4.65338">
        <ele>348.2799987793</ele>
        <time>2017-09-01T20:54:16Z</time>
      </trkpt>
      <trkpt lat="45.81111" lon="4.65338">
        <ele>348.2799987793</ele>
        <time>2017-09-01T20:54:17Z</time>
      </trkpt>
      <trkpt lat="45.81113" lon="4.65336">
        <ele>348.28686523438</ele>
        <time>2017-09-01T20:54:17Z</time>
      </trkpt>
      <trkpt lat="45.81087" lon="4.65308">
        <ele>351.52005004883</ele>
        <time>2017-09-01T20:54:18Z</time>
      </trkpt>
      <trkpt lat="45.8107" lon="4.65293">
        <ele>353.23062133789</ele>
        <time>2017-09-01T20:54:27Z</time>
      </trkpt>
      <trkpt lat="45.81056" lon="4.65285">
        <ele>353.65356445312</ele>
        <time>2017-09-01T20:54:32Z</time>
      </trkpt>
      <trkpt lat="45.80994" lon="4.65267">
        <ele>355.58676147461</ele>
        <time>2017-09-01T20:54:36Z</time>
      </trkpt>
      <trkpt lat="45.80984" lon="4.65267">
        <ele>355.63186645508</ele>
        <time>2017-09-01T20:54:53Z</time>
      </trkpt>
      <trkpt lat="45.80944" lon="4.65286">
        <ele>357.70684814453</ele>
        <time>2017-09-01T20:54:56Z</time>
      </trkpt>
      <trkpt lat="45.80904" lon="4.65307">
        <ele>360.09451293945</ele>
        <time>2017-09-01T20:55:07Z</time>
      </trkpt>
      <trkpt lat="45.80884" lon="4.65313">
        <ele>360.48699951172</ele>
        <time>2017-09-01T20:55:18Z</time>
      </trkpt>
      <trkpt lat="45.80875" lon="4.65313">
        <ele>360.33535766602</ele>
        <time>2017-09-01T20:55:23Z</time>
      </trkpt>
      <trkpt lat="45.80875" lon="4.65313">
        <ele>360.33535766602</ele>
        <time>2017-09-01T20:55:25Z</time>
      </trkpt>
      <trkpt lat="45.80884" lon="4.65313">
        <ele>360.48699951172</ele>
        <time>2017-09-01T20:55:25Z</time>
      </trkpt>
      <trkpt lat="45.8088" lon="4.65331">
        <ele>360.28796386719</ele>
        <time>2017-09-01T20:55:27Z</time>
      </trkpt>
      <trkpt lat="45.80862" lon="4.65407">
        <ele>362.00369262695</ele>
        <time>2017-09-01T20:55:31Z</time>
      </trkpt>
      <trkpt lat="45.80855" lon="4.65434">
        <ele>361.82421875</ele>
        <time>2017-09-01T20:55:46Z</time>
      </trkpt>
      <trkpt lat="45.80855" lon="4.65434">
        <ele>361.82421875</ele>
        <time>2017-09-01T20:55:51Z</time>
      </trkpt>
      <trkpt lat="45.8083" lon="4.65515">
        <ele>359.43182373047</ele>
        <time>2017-09-01T20:55:51Z</time>
      </trkpt>
      <trkpt lat="45.8082" lon="4.65546">
        <ele>358.03884887695</ele>
        <time>2017-09-01T20:56:07Z</time>
      </trkpt>
      <trkpt lat="45.80813" lon="4.65572">
        <ele>357.4267578125</ele>
        <time>2017-09-01T20:56:13Z</time>
      </trkpt>
      <trkpt lat="45.80813" lon="4.65755">
        <ele>346.83819580078</ele>
        <time>2017-09-01T20:56:18Z</time>
      </trkpt>
      <trkpt lat="45.80815" lon="4.65776">
        <ele>346.22964477539</ele>
        <time>2017-09-01T20:56:52Z</time>
      </trkpt>
      <trkpt lat="45.80823" lon="4.65787">
        <ele>346.18753051758</ele>
        <time>2017-09-01T20:56:56Z</time>
      </trkpt>
      <trkpt lat="45.80839" lon="4.65818">
        <ele>345.47012329102</ele>
        <time>2017-09-01T20:56:59Z</time>
      </trkpt>
      <trkpt lat="45.80842" lon="4.65842">
        <ele>344.4111328125</ele>
        <time>2017-09-01T20:57:06Z</time>
      </trkpt>
      <trkpt lat="45.80836" lon="4.65907">
        <ele>345.42193603516</ele>
        <time>2017-09-01T20:57:11Z</time>
      </trkpt>
      <trkpt lat="45.80845" lon="4.65966">
        <ele>347.20510864258</ele>
        <time>2017-09-01T20:57:23Z</time>
      </trkpt>
      <trkpt lat="45.80847" lon="4.65992">
        <ele>349.07397460938</ele>
        <time>2017-09-01T20:57:34Z</time>
      </trkpt>
      <trkpt lat="45.80847" lon="4.65992">
        <ele>349.07397460938</ele>
        <time>2017-09-01T20:57:39Z</time>
      </trkpt>
      <trkpt lat="45.80846" lon="4.6609">
        <ele>353.15487670898</ele>
        <time>2017-09-01T20:57:39Z</time>
      </trkpt>
      <trkpt lat="45.80846" lon="4.66114">
        <ele>354.84725952148</ele>
        <time>2017-09-01T20:57:57Z</time>
      </trkpt>
      <trkpt lat="45.80849" lon="4.66144">
        <ele>355.6110534668</ele>
        <time>2017-09-01T20:58:01Z</time>
      </trkpt>
      <trkpt lat="45.80848" lon="4.66198">
        <ele>357.49087524414</ele>
        <time>2017-09-01T20:58:07Z</time>
      </trkpt>
      <trkpt lat="45.8085" lon="4.66226">
        <ele>357.47598266602</ele>
        <time>2017-09-01T20:58:17Z</time>
      </trkpt>
      <trkpt lat="45.80852" lon="4.66242">
        <ele>356.81591796875</ele>
        <time>2017-09-01T20:58:22Z</time>
      </trkpt>
      <trkpt lat="45.80852" lon="4.66248">
        <ele>356.81030273438</ele>
        <time>2017-09-01T20:58:25Z</time>
      </trkpt>
      <trkpt lat="45.80857" lon="4.66252">
        <ele>356.20654296875</ele>
        <time>2017-09-01T20:58:26Z</time>
      </trkpt>
      <trkpt lat="45.80852" lon="4.6626">
        <ele>357.07379150391</ele>
        <time>2017-09-01T20:58:28Z</time>
      </trkpt>
      <trkpt lat="45.80852" lon="4.6626">
        <ele>357.07379150391</ele>
        <time>2017-09-01T20:58:30Z</time>
      </trkpt>
      <trkpt lat="45.80842" lon="4.66283">
        <ele>359.30569458008</ele>
        <time>2017-09-01T20:58:30Z</time>
      </trkpt>
      <trkpt lat="45.80795" lon="4.6642">
        <ele>365.71951293945</ele>
        <time>2017-09-01T20:58:35Z</time>
      </trkpt>
      <trkpt lat="45.8079" lon="4.66442">
        <ele>365.55667114258</ele>
        <time>2017-09-01T20:59:03Z</time>
      </trkpt>
      <trkpt lat="45.8079" lon="4.66448">
        <ele>365.71209716797</ele>
        <time>2017-09-01T20:59:07Z</time>
      </trkpt>
      <trkpt lat="45.80784" lon="4.66454">
        <ele>366.30514526367</ele>
        <time>2017-09-01T20:59:08Z</time>
      </trkpt>
      <trkpt lat="45.80783" lon="4.6654">
        <ele>366.0546875</ele>
        <time>2017-09-01T20:59:10Z</time>
      </trkpt>
      <trkpt lat="45.80781" lon="4.66572">
        <ele>365.96817016602</ele>
        <time>2017-09-01T20:59:26Z</time>
      </trkpt>
      <trkpt lat="45.80778" lon="4.66583">
        <ele>365.8583984375</ele>
        <time>2017-09-01T20:59:32Z</time>
      </trkpt>
      <trkpt lat="45.8075" lon="4.66627">
        <ele>366.76937866211</ele>
        <time>2017-09-01T20:59:34Z</time>
      </trkpt>
      <trkpt lat="45.80739" lon="4.66649">
        <ele>368.45333862305</ele>
        <time>2017-09-01T20:59:45Z</time>
      </trkpt>
      <trkpt lat="45.80738" lon="4.66661">
        <ele>368.8063659668</ele>
        <time>2017-09-01T20:59:50Z</time>
      </trkpt>
      <trkpt lat="45.8075" lon="4.66717">
        <ele>370.66809082031</ele>
        <time>2017-09-01T20:59:52Z</time>
      </trkpt>
      <trkpt lat="45.80752" lon="4.66721">
        <ele>371.36380004883</ele>
        <time>2017-09-01T21:00:03Z</time>
      </trkpt>
      <trkpt lat="45.80761" lon="4.66734">
        <ele>371.72808837891</ele>
        <time>2017-09-01T21:00:04Z</time>
      </trkpt>
      <trkpt lat="45.80771" lon="4.66736">
        <ele>370.46157836914</ele>
        <time>2017-09-01T21:00:07Z</time>
      </trkpt>
      <trkpt lat="45.80787" lon="4.66731">
        <ele>368.24545288086</ele>
        <time>2017-09-01T21:00:10Z</time>
      </trkpt>
      <trkpt lat="45.8081" lon="4.66714">
        <ele>365.7370300293</ele>
        <time>2017-09-01T21:00:14Z</time>
      </trkpt>
      <trkpt lat="45.80846" lon="4.66693">
        <ele>362.64245605469</ele>
        <time>2017-09-01T21:00:21Z</time>
      </trkpt>
      <trkpt lat="45.80897" lon="4.66667">
        <ele>357.78982543945</ele>
        <time>2017-09-01T21:00:31Z</time>
      </trkpt>
      <trkpt lat="45.80909" lon="4.66661">
        <ele>356.24526977539</ele>
        <time>2017-09-01T21:00:45Z</time>
      </trkpt>
      <trkpt lat="45.80996" lon="4.66659">
        <ele>350.55087280273</ele>
        <time>2017-09-01T21:00:48Z</time>
      </trkpt>
      <trkpt lat="45.81052" lon="4.6665">
        <ele>345.60217285156</ele>
        <time>2017-09-01T21:01:11Z</time>
      </trkpt>
      <trkpt lat="45.81053" lon="4.66649">
        <ele>345.47061157227</ele>
        <time>2017-09-01T21:01:26Z</time>
      </trkpt>
      <trkpt lat="45.81054" lon="4.66644">
        <ele>345.14749145508</ele>
        <time>2017-09-01T21:01:26Z</time>
      </trkpt>
      <trkpt lat="45.81059" lon="4.66646">
        <ele>344.79550170898</ele>
        <time>2017-09-01T21:01:27Z</time>
      </trkpt>
      <trkpt lat="45.81066" lon="4.66646">
        <ele>344.52932739258</ele>
        <time>2017-09-01T21:01:28Z</time>
      </trkpt>
      <trkpt lat="45.81077" lon="4.66649">
        <ele>343.80328369141</ele>
        <time>2017-09-01T21:01:30Z</time>
      </trkpt>
      <trkpt lat="45.81224" lon="4.66706">
        <ele>334.53680419922</ele>
        <time>2017-09-01T21:01:33Z</time>
      </trkpt>
      <trkpt lat="45.81222" lon="4.66709">
        <ele>334.93215942383</ele>
        <time>2017-09-01T21:02:14Z</time>
      </trkpt>
      <trkpt lat="45.8123" lon="4.66723">
        <ele>335.69976806641</ele>
        <time>2017-09-01T21:02:15Z</time>
      </trkpt>
      <trkpt lat="45.81295" lon="4.66875">
        <ele>341.7004699707</ele>
        <time>2017-09-01T21:02:18Z</time>
      </trkpt>
      <trkpt lat="45.81312" lon="4.66918">
        <ele>341.50381469727</ele>
        <time>2017-09-01T21:02:51Z</time>
      </trkpt>
      <trkpt lat="45.81313" lon="4.66924">
        <ele>341.44592285156</ele>
        <time>2017-09-01T21:03:00Z</time>
      </trkpt>
      <trkpt lat="45.81316" lon="4.66928">
        <ele>341.26010131836</ele>
        <time>2017-09-01T21:03:01Z</time>
      </trkpt>
      <trkpt lat="45.81332" lon="4.66965">
        <ele>340.31942749023</ele>
        <time>2017-09-01T21:03:02Z</time>
      </trkpt>
      <trkpt lat="45.81365" lon="4.67056">
        <ele>334.02499389648</ele>
        <time>2017-09-01T21:03:10Z</time>
      </trkpt>
      <trkpt lat="45.81395" lon="4.67146">
        <ele>330.404296875</ele>
        <time>2017-09-01T21:03:29Z</time>
      </trkpt>
      <trkpt lat="45.81409" lon="4.67174">
        <ele>329.56326293945</ele>
        <time>2017-09-01T21:03:48Z</time>
      </trkpt>
      <trkpt lat="45.81491" lon="4.67281">
        <ele>324.36880493164</ele>
        <time>2017-09-01T21:03:54Z</time>
      </trkpt>
      <trkpt lat="45.8149" lon="4.67299">
        <ele>324.00921630859</ele>
        <time>2017-09-01T21:04:24Z</time>
      </trkpt>
      <trkpt lat="45.81477" lon="4.67359">
        <ele>323.7815246582</ele>
        <time>2017-09-01T21:04:27Z</time>
      </trkpt>
      <trkpt lat="45.8148" lon="4.67384">
        <ele>324.13116455078</ele>
        <time>2017-09-01T21:04:39Z</time>
      </trkpt>
      <trkpt lat="45.8148" lon="4.67384">
        <ele>324.13116455078</ele>
        <time>2017-09-01T21:04:44Z</time>
      </trkpt>
      <trkpt lat="45.8148" lon="4.67389">
        <ele>324.27243041992</ele>
        <time>2017-09-01T21:04:44Z</time>
      </trkpt>
      <trkpt lat="45.81438" lon="4.67429">
        <ele>326.5729675293</ele>
        <time>2017-09-01T21:04:45Z</time>
      </trkpt>
      <trkpt lat="45.81426" lon="4.67444">
        <ele>327.42034912109</ele>
        <time>2017-09-01T21:04:58Z</time>
      </trkpt>
      <trkpt lat="45.81386" lon="4.67529">
        <ele>330.82522583008</ele>
        <time>2017-09-01T21:05:02Z</time>
      </trkpt>
      <trkpt lat="45.8137" lon="4.67583">
        <ele>333.08996582031</ele>
        <time>2017-09-01T21:05:21Z</time>
      </trkpt>
      <trkpt lat="45.81347" lon="4.67667">
        <ele>334.99578857422</ele>
        <time>2017-09-01T21:05:32Z</time>
      </trkpt>
      <trkpt lat="45.81326" lon="4.67723">
        <ele>335.82919311523</ele>
        <time>2017-09-01T21:05:49Z</time>
      </trkpt>
      <trkpt lat="45.81319" lon="4.67757">
        <ele>335.63354492188</ele>
        <time>2017-09-01T21:06:01Z</time>
      </trkpt>
      <trkpt lat="45.81309" lon="4.67827">
        <ele>335.41711425781</ele>
        <time>2017-09-01T21:06:08Z</time>
      </trkpt>
      <trkpt lat="45.81306" lon="4.67905">
        <ele>333.58740234375</ele>
        <time>2017-09-01T21:06:21Z</time>
      </trkpt>
      <trkpt lat="45.81302" lon="4.67936">
        <ele>332.55529785156</ele>
        <time>2017-09-01T21:06:36Z</time>
      </trkpt>
      <trkpt lat="45.81297" lon="4.6795">
        <ele>332.498046875</ele>
        <time>2017-09-01T21:06:42Z</time>
      </trkpt>
      <trkpt lat="45.81282" lon="4.67971">
        <ele>331.61148071289</ele>
        <time>2017-09-01T21:06:45Z</time>
      </trkpt>
      <trkpt lat="45.81228" lon="4.68048">
        <ele>330.21539306641</ele>
        <time>2017-09-01T21:06:51Z</time>
      </trkpt>
      <trkpt lat="45.81186" lon="4.68107">
        <ele>327.88159179688</ele>
        <time>2017-09-01T21:07:11Z</time>
      </trkpt>
      <trkpt lat="45.81135" lon="4.68167">
        <ele>327.7092590332</ele>
        <time>2017-09-01T21:07:27Z</time>
      </trkpt>
      <trkpt lat="45.81127" lon="4.6821">
        <ele>325.47457885742</ele>
        <time>2017-09-01T21:07:45Z</time>
      </trkpt>
      <trkpt lat="45.81109" lon="4.68347">
        <ele>321.11807250977</ele>
        <time>2017-09-01T21:07:53Z</time>
      </trkpt>
      <trkpt lat="45.81106" lon="4.68395">
        <ele>320.27008056641</ele>
        <time>2017-09-01T21:08:19Z</time>
      </trkpt>
      <trkpt lat="45.81106" lon="4.6845">
        <ele>320.34887695312</ele>
        <time>2017-09-01T21:08:28Z</time>
      </trkpt>
      <trkpt lat="45.81096" lon="4.68589">
        <ele>318.34637451172</ele>
        <time>2017-09-01T21:08:38Z</time>
      </trkpt>
      <trkpt lat="45.81089" lon="4.68618">
        <ele>318.24182128906</ele>
        <time>2017-09-01T21:09:04Z</time>
      </trkpt>
      <trkpt lat="45.81089" lon="4.68618">
        <ele>318.24182128906</ele>
        <time>2017-09-01T21:09:10Z</time>
      </trkpt>
      <trkpt lat="45.8108" lon="4.68625">
        <ele>318.19555664062</ele>
        <time>2017-09-01T21:09:10Z</time>
      </trkpt>
      <trkpt lat="45.81062" lon="4.68627">
        <ele>319.78402709961</ele>
        <time>2017-09-01T21:09:13Z</time>
      </trkpt>
      <trkpt lat="45.81008" lon="4.68621">
        <ele>321.4736328125</ele>
        <time>2017-09-01T21:09:18Z</time>
      </trkpt>
      <trkpt lat="45.80992" lon="4.68623">
        <ele>321.91271972656</ele>
        <time>2017-09-01T21:09:32Z</time>
      </trkpt>
      <trkpt lat="45.8098" lon="4.68628">
        <ele>321.4387512207</ele>
        <time>2017-09-01T21:09:36Z</time>
      </trkpt>
      <trkpt lat="45.80971" lon="4.68636">
        <ele>320.8454284668</ele>
        <time>2017-09-01T21:09:39Z</time>
      </trkpt>
      <trkpt lat="45.8096" lon="4.68656">
        <ele>320.90451049805</ele>
        <time>2017-09-01T21:09:42Z</time>
      </trkpt>
      <trkpt lat="45.80886" lon="4.68825">
        <ele>320.75091552734</ele>
        <time>2017-09-01T21:09:47Z</time>
      </trkpt>
      <trkpt lat="45.80886" lon="4.68827">
        <ele>320.71917724609</ele>
        <time>2017-09-01T21:10:24Z</time>
      </trkpt>
      <trkpt lat="45.80883" lon="4.68834">
        <ele>320.60208129883</ele>
        <time>2017-09-01T21:10:24Z</time>
      </trkpt>
      <trkpt lat="45.80874" lon="4.68835">
        <ele>320.74829101562</ele>
        <time>2017-09-01T21:10:26Z</time>
      </trkpt>
      <trkpt lat="45.80834" lon="4.68851">
        <ele>319.71960449219</ele>
        <time>2017-09-01T21:10:28Z</time>
      </trkpt>
      <trkpt lat="45.80823" lon="4.68863">
        <ele>319.03070068359</ele>
        <time>2017-09-01T21:10:39Z</time>
      </trkpt>
      <trkpt lat="45.8077" lon="4.68942">
        <ele>316.97058105469</ele>
        <time>2017-09-01T21:10:43Z</time>
      </trkpt>
      <trkpt lat="45.80745" lon="4.68981">
        <ele>316.77911376953</ele>
        <time>2017-09-01T21:11:03Z</time>
      </trkpt>
      <trkpt lat="45.80732" lon="4.68993">
        <ele>316.78540039062</ele>
        <time>2017-09-01T21:11:13Z</time>
      </trkpt>
      <trkpt lat="45.8071" lon="4.69011">
        <ele>315.28253173828</ele>
        <time>2017-09-01T21:11:17Z</time>
      </trkpt>
      <trkpt lat="45.80694" lon="4.69027">
        <ele>314.87118530273</ele>
        <time>2017-09-01T21:11:24Z</time>
      </trkpt>
      <trkpt lat="45.80685" lon="4.69045">
        <ele>314.52404785156</ele>
        <time>2017-09-01T21:11:29Z</time>
      </trkpt>
      <trkpt lat="45.80633" lon="4.69178">
        <ele>315.5989074707</ele>
        <time>2017-09-01T21:11:33Z</time>
      </trkpt>
      <trkpt lat="45.80561" lon="4.69355">
        <ele>314.97421264648</ele>
        <time>2017-09-01T21:12:01Z</time>
      </trkpt>
      <trkpt lat="45.8052" lon="4.69465">
        <ele>317.48065185547</ele>
        <time>2017-09-01T21:12:39Z</time>
      </trkpt>
      <trkpt lat="45.8053" lon="4.69491">
        <ele>319.15972900391</ele>
        <time>2017-09-01T21:13:02Z</time>
      </trkpt>
      <trkpt lat="45.80541" lon="4.69501">
        <ele>321.55557250977</ele>
        <time>2017-09-01T21:13:08Z</time>
      </trkpt>
      <trkpt lat="45.80569" lon="4.69529">
        <ele>322.79339599609</ele>
        <time>2017-09-01T21:13:11Z</time>
      </trkpt>
      <trkpt lat="45.80576" lon="4.69547">
        <ele>321.4059753418</ele>
        <time>2017-09-01T21:13:20Z</time>
      </trkpt>
      <trkpt lat="45.80587" lon="4.69575">
        <ele>319.93969726562</ele>
        <time>2017-09-01T21:13:24Z</time>
      </trkpt>
      <trkpt lat="45.80592" lon="4.69598">
        <ele>317.89065551758</ele>
        <time>2017-09-01T21:13:30Z</time>
      </trkpt>
      <trkpt lat="45.80601" lon="4.6962">
        <ele>315.68884277344</ele>
        <time>2017-09-01T21:13:34Z</time>
      </trkpt>
      <trkpt lat="45.80607" lon="4.69646">
        <ele>305.65692138672</ele>
        <time>2017-09-01T21:13:39Z</time>
      </trkpt>
      <trkpt lat="45.80612" lon="4.69671">
        <ele>306.44338989258</ele>
        <time>2017-09-01T21:13:44Z</time>
      </trkpt>
      <trkpt lat="45.80619" lon="4.69685">
        <ele>314.19201660156</ele>
        <time>2017-09-01T21:13:49Z</time>
      </trkpt>
      <trkpt lat="45.80651" lon="4.69734">
        <ele>319.31460571289</ele>
        <time>2017-09-01T21:13:52Z</time>
      </trkpt>
      <trkpt lat="45.8068" lon="4.69774">
        <ele>313.76519775391</ele>
        <time>2017-09-01T21:14:05Z</time>
      </trkpt>
      <trkpt lat="45.80707" lon="4.69807">
        <ele>309.27310180664</ele>
        <time>2017-09-01T21:14:16Z</time>
      </trkpt>
      <trkpt lat="45.80725" lon="4.69836">
        <ele>305.51913452148</ele>
        <time>2017-09-01T21:14:25Z</time>
      </trkpt>
      <trkpt lat="45.80728" lon="4.69848">
        <ele>304.259765625</ele>
        <time>2017-09-01T21:14:32Z</time>
      </trkpt>
      <trkpt lat="45.80737" lon="4.69918">
        <ele>297.53155517578</ele>
        <time>2017-09-01T21:14:34Z</time>
      </trkpt>
      <trkpt lat="45.80736" lon="4.69935">
        <ele>296.37579345703</ele>
        <time>2017-09-01T21:14:47Z</time>
      </trkpt>
      <trkpt lat="45.80733" lon="4.69944">
        <ele>296.09817504883</ele>
        <time>2017-09-01T21:14:50Z</time>
      </trkpt>
      <trkpt lat="45.80732" lon="4.69954">
        <ele>295.59375</ele>
        <time>2017-09-01T21:14:52Z</time>
      </trkpt>
      <trkpt lat="45.80733" lon="4.69963">
        <ele>294.99716186523</ele>
        <time>2017-09-01T21:14:54Z</time>
      </trkpt>
      <trkpt lat="45.8074" lon="4.69971">
        <ele>293.87280273438</ele>
        <time>2017-09-01T21:14:56Z</time>
      </trkpt>
      <trkpt lat="45.80748" lon="4.6998">
        <ele>292.57412719727</ele>
        <time>2017-09-01T21:14:58Z</time>
      </trkpt>
      <trkpt lat="45.80753" lon="4.69989">
        <ele>291.66809082031</ele>
        <time>2017-09-01T21:15:01Z</time>
      </trkpt>
      <trkpt lat="45.80762" lon="4.69995">
        <ele>290.54113769531</ele>
        <time>2017-09-01T21:15:03Z</time>
      </trkpt>
      <trkpt lat="45.80773" lon="4.70001">
        <ele>289.73895263672</ele>
        <time>2017-09-01T21:15:06Z</time>
      </trkpt>
      <trkpt lat="45.80784" lon="4.70003">
        <ele>289.08981323242</ele>
        <time>2017-09-01T21:15:09Z</time>
      </trkpt>
      <trkpt lat="45.80789" lon="4.7001">
        <ele>289.11474609375</ele>
        <time>2017-09-01T21:15:12Z</time>
      </trkpt>
      <trkpt lat="45.80801" lon="4.70026">
        <ele>289.40844726562</ele>
        <time>2017-09-01T21:15:14Z</time>
      </trkpt>
      <trkpt lat="45.80806" lon="4.70038">
        <ele>289.861328125</ele>
        <time>2017-09-01T21:15:18Z</time>
      </trkpt>
      <trkpt lat="45.80813" lon="4.70069">
        <ele>291.20129394531</ele>
        <time>2017-09-01T21:15:21Z</time>
      </trkpt>
      <trkpt lat="45.80806" lon="4.70115">
        <ele>292.04647827148</ele>
        <time>2017-09-01T21:15:27Z</time>
      </trkpt>
      <trkpt lat="45.80806" lon="4.70141">
        <ele>290.97476196289</ele>
        <time>2017-09-01T21:15:36Z</time>
      </trkpt>
      <trkpt lat="45.80808" lon="4.70162">
        <ele>288.73461914062</ele>
        <time>2017-09-01T21:15:41Z</time>
      </trkpt>
      <trkpt lat="45.80812" lon="4.70194">
        <ele>281.43865966797</ele>
        <time>2017-09-01T21:15:45Z</time>
      </trkpt>
      <trkpt lat="45.8081" lon="4.70217">
        <ele>284.02090454102</ele>
        <time>2017-09-01T21:15:51Z</time>
      </trkpt>
      <trkpt lat="45.80797" lon="4.70294">
        <ele>279.46258544922</ele>
        <time>2017-09-01T21:15:55Z</time>
      </trkpt>
      <trkpt lat="45.80797" lon="4.70308">
        <ele>280.7805480957</ele>
        <time>2017-09-01T21:16:10Z</time>
      </trkpt>
      <trkpt lat="45.80808" lon="4.70314">
        <ele>282.7724609375</ele>
        <time>2017-09-01T21:16:13Z</time>
      </trkpt>
      <trkpt lat="45.80816" lon="4.70322">
        <ele>284.31954956055</ele>
        <time>2017-09-01T21:16:16Z</time>
      </trkpt>
      <trkpt lat="45.80819" lon="4.70331">
        <ele>284.40768432617</ele>
        <time>2017-09-01T21:16:19Z</time>
      </trkpt>
      <trkpt lat="45.80819" lon="4.70342">
        <ele>284.90814208984</ele>
        <time>2017-09-01T21:16:21Z</time>
      </trkpt>
      <trkpt lat="45.80815" lon="4.70346">
        <ele>285.30911254883</ele>
        <time>2017-09-01T21:16:23Z</time>
      </trkpt>
      <trkpt lat="45.80815" lon="4.70346">
        <ele>285.30911254883</ele>
        <time>2017-09-01T21:16:24Z</time>
      </trkpt>
      <trkpt lat="45.808" lon="4.70364">
        <ele>283.78091430664</ele>
        <time>2017-09-01T21:16:24Z</time>
      </trkpt>
      <trkpt lat="45.80797" lon="4.70371">
        <ele>283.64279174805</ele>
        <time>2017-09-01T21:16:29Z</time>
      </trkpt>
      <trkpt lat="45.80799" lon="4.70382">
        <ele>285.89929199219</ele>
        <time>2017-09-01T21:16:31Z</time>
      </trkpt>
      <trkpt lat="45.80802" lon="4.70385">
        <ele>286.92425537109</ele>
        <time>2017-09-01T21:16:33Z</time>
      </trkpt>
      <trkpt lat="45.80814" lon="4.70387">
        <ele>288.59393310547</ele>
        <time>2017-09-01T21:16:34Z</time>
      </trkpt>
      <trkpt lat="45.80833" lon="4.70393">
        <ele>290.71640014648</ele>
        <time>2017-09-01T21:16:37Z</time>
      </trkpt>
      <trkpt lat="45.80848" lon="4.70404">
        <ele>292.82513427734</ele>
        <time>2017-09-01T21:16:42Z</time>
      </trkpt>
      <trkpt lat="45.80871" lon="4.70431">
        <ele>297.08505249023</ele>
        <time>2017-09-01T21:16:47Z</time>
      </trkpt>
      <trkpt lat="45.80877" lon="4.70449">
        <ele>299.6669921875</ele>
        <time>2017-09-01T21:16:55Z</time>
      </trkpt>
      <trkpt lat="45.80875" lon="4.70525">
        <ele>307.12094116211</ele>
        <time>2017-09-01T21:16:59Z</time>
      </trkpt>
      <trkpt lat="45.80873" lon="4.7063">
        <ele>314.21142578125</ele>
        <time>2017-09-01T21:17:13Z</time>
      </trkpt>
      <trkpt lat="45.80877" lon="4.70643">
        <ele>314.51107788086</ele>
        <time>2017-09-01T21:17:33Z</time>
      </trkpt>
      <trkpt lat="45.80898" lon="4.70683">
        <ele>316.56588745117</ele>
        <time>2017-09-01T21:17:36Z</time>
      </trkpt>
      <trkpt lat="45.8091" lon="4.70704">
        <ele>317.82763671875</ele>
        <time>2017-09-01T21:17:45Z</time>
      </trkpt>
      <trkpt lat="45.80921" lon="4.7074">
        <ele>319.1494140625</ele>
        <time>2017-09-01T21:17:50Z</time>
      </trkpt>
      <trkpt lat="45.80928" lon="4.70777">
        <ele>320.0774230957</ele>
        <time>2017-09-01T21:17:57Z</time>
      </trkpt>
      <trkpt lat="45.80934" lon="4.7085">
        <ele>326.47665405273</ele>
        <time>2017-09-01T21:18:04Z</time>
      </trkpt>
      <trkpt lat="45.80938" lon="4.70848">
        <ele>326.14999389648</ele>
        <time>2017-09-01T21:18:18Z</time>
      </trkpt>
      <trkpt lat="45.80938" lon="4.70848">
        <ele>326.14999389648</ele>
        <time>2017-09-01T21:18:19Z</time>
      </trkpt>
      <trkpt lat="45.80929" lon="4.70856">
        <ele>326.88293457031</ele>
        <time>2017-09-01T21:18:19Z</time>
      </trkpt>
      <trkpt lat="45.80918" lon="4.70874">
        <ele>326.34512329102</ele>
        <time>2017-09-01T21:18:22Z</time>
      </trkpt>
      <trkpt lat="45.8091" lon="4.70911">
        <ele>327.09899902344</ele>
        <time>2017-09-01T21:18:26Z</time>
      </trkpt>
      <trkpt lat="45.80905" lon="4.7095">
        <ele>329.08251953125</ele>
        <time>2017-09-01T21:18:33Z</time>
      </trkpt>
      <trkpt lat="45.80909" lon="4.70987">
        <ele>330.56750488281</ele>
        <time>2017-09-01T21:18:40Z</time>
      </trkpt>
      <trkpt lat="45.8092" lon="4.71038">
        <ele>332.15789794922</ele>
        <time>2017-09-01T21:18:47Z</time>
      </trkpt>
      <trkpt lat="45.80949" lon="4.71138">
        <ele>335.00057983398</ele>
        <time>2017-09-01T21:18:57Z</time>
      </trkpt>
      <trkpt lat="45.81014" lon="4.71289">
        <ele>334.68542480469</ele>
        <time>2017-09-01T21:19:17Z</time>
      </trkpt>
      <trkpt lat="45.81065" lon="4.71353">
        <ele>337.55923461914</ele>
        <time>2017-09-01T21:19:50Z</time>
      </trkpt>
      <trkpt lat="45.81089" lon="4.7139">
        <ele>338.12219238281</ele>
        <time>2017-09-01T21:20:08Z</time>
      </trkpt>
      <trkpt lat="45.8112" lon="4.71467">
        <ele>341.23309326172</ele>
        <time>2017-09-01T21:20:17Z</time>
      </trkpt>
      <trkpt lat="45.81125" lon="4.71467">
        <ele>341.32427978516</ele>
        <time>2017-09-01T21:20:34Z</time>
      </trkpt>
      <trkpt lat="45.81128" lon="4.71475">
        <ele>341.66250610352</ele>
        <time>2017-09-01T21:20:35Z</time>
      </trkpt>
      <trkpt lat="45.81125" lon="4.71481">
        <ele>341.23602294922</ele>
        <time>2017-09-01T21:20:37Z</time>
      </trkpt>
      <trkpt lat="45.81159" lon="4.71576">
        <ele>343.48492431641</ele>
        <time>2017-09-01T21:20:38Z</time>
      </trkpt>
      <trkpt lat="45.81175" lon="4.71615">
        <ele>343.11651611328</ele>
        <time>2017-09-01T21:20:58Z</time>
      </trkpt>
      <trkpt lat="45.81185" lon="4.71643">
        <ele>342.24063110352</ele>
        <time>2017-09-01T21:21:06Z</time>
      </trkpt>
      <trkpt lat="45.81194" lon="4.71667">
        <ele>340.69146728516</ele>
        <time>2017-09-01T21:21:12Z</time>
      </trkpt>
      <trkpt lat="45.81196" lon="4.7168">
        <ele>340.10125732422</ele>
        <time>2017-09-01T21:21:17Z</time>
      </trkpt>
      <trkpt lat="45.81199" lon="4.717">
        <ele>339.82223510742</ele>
        <time>2017-09-01T21:21:19Z</time>
      </trkpt>
      <trkpt lat="45.812" lon="4.71728">
        <ele>336.48446655273</ele>
        <time>2017-09-01T21:21:23Z</time>
      </trkpt>
      <trkpt lat="45.81198" lon="4.7178">
        <ele>333.37118530273</ele>
        <time>2017-09-01T21:21:28Z</time>
      </trkpt>
      <trkpt lat="45.81199" lon="4.71792">
        <ele>332.75323486328</ele>
        <time>2017-09-01T21:21:38Z</time>
      </trkpt>
      <trkpt lat="45.81201" lon="4.71799">
        <ele>332.34912109375</ele>
        <time>2017-09-01T21:21:40Z</time>
      </trkpt>
      <trkpt lat="45.81196" lon="4.71802">
        <ele>332.02471923828</ele>
        <time>2017-09-01T21:21:41Z</time>
      </trkpt>
      <trkpt lat="45.81191" lon="4.71805">
        <ele>332.00698852539</ele>
        <time>2017-09-01T21:21:42Z</time>
      </trkpt>
      <trkpt lat="45.81191" lon="4.71811">
        <ele>331.35647583008</ele>
        <time>2017-09-01T21:21:43Z</time>
      </trkpt>
      <trkpt lat="45.81191" lon="4.71811">
        <ele>331.35647583008</ele>
        <time>2017-09-01T21:21:44Z</time>
      </trkpt>
      <trkpt lat="45.81191" lon="4.71805">
        <ele>332.00698852539</ele>
        <time>2017-09-01T21:21:44Z</time>
      </trkpt>
      <trkpt lat="45.81169" lon="4.71817">
        <ele>331.71722412109</ele>
        <time>2017-09-01T21:21:45Z</time>
      </trkpt>
      <trkpt lat="45.81108" lon="4.7185">
        <ele>325.76138305664</ele>
        <time>2017-09-01T21:21:51Z</time>
      </trkpt>
      <trkpt lat="45.81052" lon="4.71879">
        <ele>322.79083251953</ele>
        <time>2017-09-01T21:22:08Z</time>
      </trkpt>
      <trkpt lat="45.81017" lon="4.7189">
        <ele>321.70486450195</ele>
        <time>2017-09-01T21:22:24Z</time>
      </trkpt>
      <trkpt lat="45.80974" lon="4.71899">
        <ele>320.44616699219</ele>
        <time>2017-09-01T21:22:34Z</time>
      </trkpt>
      <trkpt lat="45.80909" lon="4.71906">
        <ele>317.21099853516</ele>
        <time>2017-09-01T21:22:46Z</time>
      </trkpt>
      <trkpt lat="45.8086" lon="4.71913">
        <ele>315.1862487793</ele>
        <time>2017-09-01T21:23:03Z</time>
      </trkpt>
      <trkpt lat="45.80818" lon="4.71923">
        <ele>313.88763427734</ele>
        <time>2017-09-01T21:23:16Z</time>
      </trkpt>
      <trkpt lat="45.80793" lon="4.71933">
        <ele>312.44924926758</ele>
        <time>2017-09-01T21:23:27Z</time>
      </trkpt>
      <trkpt lat="45.8079" lon="4.71936">
        <ele>312.22384643555</ele>
        <time>2017-09-01T21:23:34Z</time>
      </trkpt>
      <trkpt lat="45.80787" lon="4.71937">
        <ele>311.97271728516</ele>
        <time>2017-09-01T21:23:35Z</time>
      </trkpt>
      <trkpt lat="45.8078" lon="4.71935">
        <ele>311.72320556641</ele>
        <time>2017-09-01T21:23:36Z</time>
      </trkpt>
      <trkpt lat="45.80779" lon="4.71933">
        <ele>311.9072265625</ele>
        <time>2017-09-01T21:23:38Z</time>
      </trkpt>
      <trkpt lat="45.80767" lon="4.71936">
        <ele>312.06732177734</ele>
        <time>2017-09-01T21:23:38Z</time>
      </trkpt>
      <trkpt lat="45.80661" lon="4.71965">
        <ele>309.67770385742</ele>
        <time>2017-09-01T21:23:41Z</time>
      </trkpt>
      <trkpt lat="45.80617" lon="4.71981">
        <ele>308.95129394531</ele>
        <time>2017-09-01T21:24:10Z</time>
      </trkpt>
      <trkpt lat="45.80608" lon="4.71986">
        <ele>308.09710693359</ele>
        <time>2017-09-01T21:24:22Z</time>
      </trkpt>
      <trkpt lat="45.80584" lon="4.71992">
        <ele>307.16647338867</ele>
        <time>2017-09-01T21:24:25Z</time>
      </trkpt>
    </trkseg>
  </trk>
</gpx>